Date StartTime U_cm/s V_cm/s W_cm/s Ustd_cm/s Vstd_cm/s Wstd_cm/s Uvar_(cm/s)^2 Vvar_(cm/s)^2 Wvar_(cm/s)^2 KE_(m/s)^2 TurbulentKE_(m/s)^2 HorizWindSpeed_cm/s FrictionSpeec_cm/s DragCoef SpeedOfSound_m/s SonicTemperature_C Pressure_mb 
09/03/2014  00:00:00     -216.024      -53.433      -12.553      100.319       66.013       40.851    10063.848     4357.756     1668.821        3.288        0.805      222.534       31.525        0.020      346.429       24.667      857.716
09/03/2014  00:01:00     -258.354       25.514      -25.009      104.834       58.114       48.585    10990.269     3377.267     2360.454        4.237        0.836      259.611       56.986        0.048      346.137       24.165      857.741
09/03/2014  00:02:00     -217.582      -75.924      -14.657       99.753       80.777       50.510     9950.687     6524.998     2551.222        3.617        0.951      230.448       57.511        0.062      346.056       24.026      857.741
09/03/2014  00:03:00     -206.587      -82.439        0.991      102.522       79.192       49.245    10510.738     6271.326     2425.109        3.434        0.960      222.428       53.131        0.057      345.859       23.688      857.747
09/03/2014  00:04:00     -231.883      -40.552       -7.104       86.508       64.486       46.219     7483.657     4158.384     2136.187        3.462        0.689      235.402       46.124        0.038      345.922       23.793      857.754
09/03/2014  00:05:00     -194.845      -75.568        2.210       94.072       67.999       47.675     8849.603     4623.820     2272.926        2.971        0.787      208.986       55.583        0.071      345.894       23.747      857.767
09/03/2014  00:06:00     -291.663      -69.728        0.010      140.628       87.462       55.807    19776.261     7649.658     3114.413        6.023        1.527      299.883       54.073        0.033      346.122       24.139      857.762
09/03/2014  00:07:00     -309.594      -95.021      -25.431      153.636       98.452       60.696    23603.966     9692.727     3684.050        7.125        1.849      323.848       63.421        0.038      346.185       24.246      857.745
09/03/2014  00:08:00     -250.129      -59.975       -0.372      114.220       94.596       57.443    13046.196     8948.478     3299.673        4.572        1.265      257.219       57.746        0.050      346.245       24.350      857.732
09/03/2014  00:09:00     -210.347      -21.864      -24.947      110.905       90.963       52.931    12300.009     8274.239     2801.685        3.436        1.169      211.481       57.477        0.074      346.171       24.225      857.712
09/03/2014  00:10:00     -296.044      -80.377       -9.932      129.887       99.366       53.064    16870.618     9873.534     2815.786        6.187        1.478      306.761       58.926        0.037      346.138       24.166      857.732
09/03/2014  00:11:00     -163.450      -11.127       -9.062       82.987       75.905       45.598     6886.873     5761.552     2079.209        2.082        0.736      163.828       46.479        0.080      346.117       24.130      857.708
09/03/2014  00:12:00     -341.887      -64.966      -27.625      149.961      123.151       66.800    22488.293    15166.143     4462.231        8.199        2.106      348.005       67.114        0.037      346.214       24.297      857.685
09/03/2014  00:13:00     -424.751      -37.795      -10.653      155.989      123.543       77.149    24332.501    15262.826     5952.021       11.374        2.277      426.429       87.006        0.042      346.304       24.452      857.674
09/03/2014  00:14:00     -338.577     -125.723      -18.028      132.236      102.900       66.435    17486.418    10588.365     4413.565        8.162        1.624      361.166       69.038        0.037      346.265       24.384      857.676
09/03/2014  00:15:00     -296.670      -58.264      -13.017      149.558       92.089       63.288    22367.585     8480.408     4005.399        6.321        1.743      302.337       68.330        0.051      346.279       24.409      857.672
09/03/2014  00:16:00     -252.268      -19.360      -18.554       97.755       60.301       47.491     9556.094     3636.177     2255.433        3.990        0.772      253.010       47.904        0.036      346.182       24.242      857.667
09/03/2014  00:17:00     -373.105      -56.170      -17.067      186.151       90.071       61.001    34652.044     8112.747     3721.088        9.456        2.324      377.309       68.629        0.033      346.202       24.276      857.673
09/03/2014  00:18:00     -278.560       -9.028      -28.040       87.442       78.784       49.670     7646.044     6206.880     2467.152        4.739        0.816      278.706       50.932        0.033      346.098       24.097      857.687
09/03/2014  00:19:00     -195.048      -52.797       -5.467       90.836       70.952       39.049     8251.258     5034.146     1524.861        2.783        0.741      202.068       21.280        0.011      345.934       23.816      857.694
09/03/2014  00:20:00     -141.140       -2.299      -10.858       74.305       42.772       33.220     5521.159     1829.467     1103.573        1.425        0.423      141.159       30.980        0.048      345.854       23.681      857.698
09/03/2014  00:21:00     -166.451      -65.716      -20.815       78.336       83.751       39.723     6136.478     7014.214     1577.923        2.359        0.736      178.954       20.901        0.014      345.711       23.436      857.706
09/03/2014  00:22:00     -311.743      -81.791      -23.669      101.754       72.186       49.633    10353.811     5210.765     2463.443        6.123        0.901      322.294       41.092        0.016      345.578       23.203      857.703
09/03/2014  00:23:00     -237.563      -57.160      -16.661       93.771       86.998       48.094     8793.013     7568.666     2313.046        3.932        0.934      244.343       49.414        0.041      345.483       23.043      857.682
09/03/2014  00:24:00     -137.714      -54.040       -8.384       68.501       65.607       34.341     4692.411     4304.270     1179.310        1.606        0.509      147.937       26.535        0.032      345.445       22.977      857.667
09/03/2014  00:25:00     -106.953      -19.162       -4.006       78.246       49.155       39.983     6122.413     2416.207     1598.678        1.098        0.507      108.656       37.561        0.120      345.355       22.825      857.648
09/03/2014  00:26:00     -189.759     -101.487      -22.325       82.304       69.005       51.552     6773.896     4761.701     2657.576        3.050        0.710      215.193       43.813        0.041      345.329       22.778      857.658
09/03/2014  00:27:00     -142.573      -34.306      -19.114       73.543       39.710       38.835     5408.617     1576.918     1508.163        1.518        0.425      146.642       29.350        0.040      345.292       22.716      857.667
09/03/2014  00:28:00     -204.206      -49.997        0.733      150.862       78.511       50.099    22759.214     6163.957     2509.925        3.781        1.572      210.237       71.772        0.117      345.422       22.938      857.647
09/03/2014  00:29:00     -270.720       20.370      -24.478       67.079       54.223       31.354     4499.571     2940.125      983.096        4.136        0.421      271.485       31.709        0.014      345.486       23.047      857.654
09/03/2014  00:30:00     -131.481      -42.011       -8.799       65.092       58.735       29.547     4236.988     3449.753      873.037        1.384        0.428      138.029       28.152        0.042      345.276       22.690      857.643
09/03/2014  00:31:00     -178.475      -64.778      -25.394       80.965       79.224       40.209     6555.283     6276.508     1616.790        2.557        0.722      189.867       34.194        0.032      345.293       22.717      857.631
09/03/2014  00:32:00     -210.676      -41.901       -4.983       92.686       79.739       50.406     8590.606     6358.339     2540.717        3.182        0.874      214.803       44.258        0.042      345.353       22.819      857.613
09/03/2014  00:33:00     -310.196      -23.017      -36.231       82.323       63.198       46.360     6777.108     3994.000     2149.277        5.549        0.646      311.049       42.260        0.018      345.447       22.979      857.606
09/03/2014  00:34:00     -226.185      -72.611       -9.202       55.557       56.878       37.636     3086.553     3235.120     1416.467        3.213        0.387      237.554       34.703        0.021      345.413       22.922      857.596
09/03/2014  00:35:00     -205.473      -66.822       -5.073      119.093       71.170       48.357    14183.077     5065.222     2338.376        3.414        1.079      216.065       48.667        0.051      345.385       22.873      857.581
09/03/2014  00:36:00     -183.473      -71.644       -5.467       73.599       63.957       46.872     5416.792     4090.491     2197.012        2.526        0.585      196.965       43.841        0.050      345.383       22.871      857.563
09/03/2014  00:37:00     -301.444      -16.868      -17.554       69.641       72.340       41.097     4849.898     5233.038     1688.995        5.161        0.589      301.915       32.922        0.012      345.460       23.001      857.562
09/03/2014  00:38:00     -244.994      -29.331      -20.446       89.089       70.860       45.065     7936.814     5021.172     2030.841        3.814        0.749      246.743       47.355        0.037      345.379       22.862      857.548
09/03/2014  00:39:00     -249.926      -47.540       -8.816       83.686       91.942       49.031     7003.283     8453.299     2404.065        4.133        0.893      254.408       44.278        0.030      345.590       23.226      857.544
09/03/2014  00:40:00     -246.090      -28.333      -24.676       80.806       62.728       40.064     6529.593     3934.816     1605.114        3.702        0.603      247.715       38.640        0.024      345.472       23.022      857.531
09/03/2014  00:41:00     -243.859      -67.542      -14.247       85.312       67.137       44.224     7278.079     4507.364     1955.763        3.898        0.687      253.040       46.160        0.033      345.482       23.041      857.519
09/03/2014  00:42:00     -208.605      -36.481      -16.620       70.970       54.746       35.338     5036.677     2997.122     1248.764        2.720        0.464      211.771       34.133        0.026      345.463       23.008      857.515
09/03/2014  00:43:00     -221.522      -34.326      -22.734       82.191       61.356       36.639     6755.353     3764.579     1342.386        3.131        0.593      224.166       37.586        0.028      345.469       23.018      857.502
09/03/2014  00:44:00     -185.532      -25.963       -7.818       72.329       67.579       44.388     5231.430     4566.905     1970.257        2.346        0.588      187.340       42.318        0.051      345.392       22.887      857.505
09/03/2014  00:45:00     -216.915       -6.590      -16.196       64.133       59.717       40.207     4113.015     3566.147     1616.586        2.833        0.465      217.015       28.993        0.018      345.426       22.944      857.500
09/03/2014  00:46:00     -246.079      -35.422      -16.050       80.484       64.125       38.173     6477.598     4111.995     1457.176        3.705        0.602      248.616       40.633        0.027      345.386       22.877      857.492
09/03/2014  00:47:00     -221.042      -23.118      -32.039       77.103       57.622       42.593     5944.841     3320.288     1814.122        3.075        0.554      222.247       38.297        0.030      345.359       22.831      857.477
09/03/2014  00:48:00     -203.231      -49.490      -12.148       77.949       53.772       39.466     6076.007     2891.445     1557.558        2.721        0.526      209.170       44.473        0.045      345.255       22.649      857.485
09/03/2014  00:49:00     -209.844      -47.697      -15.265       66.437       58.703       37.695     4413.928     3446.040     1420.937        2.791        0.464      215.197       30.018        0.019      345.343       22.802      857.474
09/03/2014  00:50:00     -207.632      -24.144      -17.170       76.333       52.519       34.116     5826.783     2758.200     1163.897        2.687        0.487      209.031       36.168        0.030      345.335       22.789      857.468
09/03/2014  00:51:00     -164.123      -62.263        2.503       74.177       71.991       37.944     5502.160     5182.751     1439.755        2.147        0.606      175.536       32.121        0.033      345.375       22.858      857.458
09/03/2014  00:52:00     -138.066      -22.309        2.650       64.668       58.758       38.617     4182.003     3452.498     1491.249        1.434        0.456      139.856       33.832        0.059      345.440       22.970      857.444
09/03/2014  00:53:00     -179.357      -74.741       -6.255       87.863       77.101       43.498     7719.925     5944.614     1892.089        2.667        0.778      194.307       41.284        0.045      345.453       22.992      857.438
09/03/2014  00:54:00     -237.744      -33.640       -9.263      101.092       77.846       48.478    10219.532     6060.021     2350.146        3.818        0.931      240.112       51.106        0.045      345.510       23.088      857.424
09/03/2014  00:55:00     -265.524      -40.284       -6.469       94.626       79.399       48.939     8954.102     6304.257     2395.014        4.491        0.883      268.562       50.560        0.035      345.528       23.117      857.417
09/03/2014  00:56:00     -220.807      -32.776       -8.397       77.888       77.359       41.183     6066.537     5984.461     1696.055        3.182        0.687      223.227       35.750        0.026      345.466       23.012      857.409
09/03/2014  00:57:00     -151.073      -48.665        1.333       86.319       66.868       41.760     7450.884     4471.331     1743.867        1.943        0.683      158.718       43.609        0.075      345.429       22.951      857.405
09/03/2014  00:58:00     -185.754      -49.962        7.135      109.007       62.376       46.949    11882.447     3890.721     2204.225        2.751        0.899      192.355       50.683        0.069      345.535       23.132      857.407
09/03/2014  00:59:00     -218.019      -12.124      -11.519       89.015       64.012       43.408     7923.593     4097.492     1884.281        3.086        0.695      218.356       46.397        0.045      345.524       23.113      857.388
09/03/2014  01:00:00     -193.995      -36.997        7.851      130.592       63.922       42.988    17054.281     4085.976     1847.960        3.102        1.149      197.492       56.868        0.083      345.539       23.140      857.384
09/03/2014  01:01:00     -292.423      -54.264      -26.794       97.861       58.650       47.195     9576.862     3439.859     2227.355        5.221        0.762      297.415       56.453        0.036      345.654       23.335      857.370
09/03/2014  01:02:00     -252.777      -57.489      -13.839       85.462       67.504       43.250     7303.777     4556.740     1870.601        4.056        0.687      259.232       45.147        0.030      345.586       23.216      857.374
09/03/2014  01:03:00     -268.275      -38.128      -11.600       71.571       70.318       40.492     5122.419     4944.615     1639.585        4.263        0.585      270.971       39.393        0.021      345.596       23.234      857.373
09/03/2014  01:04:00     -205.541      -38.540       -3.069       80.000       57.477       40.936     6400.054     3303.660     1675.767        2.756        0.569      209.123       38.036        0.033      345.557       23.170      857.367
09/03/2014  01:05:00     -211.416      -38.621       -0.124      105.956       75.677       42.262    11226.653     5726.995     1786.093        3.246        0.937      214.915       45.670        0.045      345.539       23.138      857.360
09/03/2014  01:06:00     -172.726      -38.782        3.014      113.360       79.648       46.637    12850.542     6343.808     2175.031        2.635        1.068      177.026       54.503        0.095      345.470       23.021      857.356
09/03/2014  01:07:00     -265.707      -71.684       -5.103      101.843       90.034       48.094    10372.078     8106.045     2313.040        4.827        1.040      275.206       48.393        0.031      345.663       23.351      857.351
09/03/2014  01:08:00     -286.231      -72.741      -15.846      147.962       81.457       53.769    21892.869     6635.227     2891.156        5.944        1.571      295.329       61.083        0.043      345.642       23.315      857.360
09/03/2014  01:09:00     -269.238      -63.842      -16.062       92.943       76.349       50.723     8638.347     5829.129     2572.818        4.693        0.852      276.703       46.225        0.028      345.667       23.358      857.352
09/03/2014  01:10:00     -181.439      -43.993      -17.213      117.798       79.028       45.361    13876.274     6245.347     2057.607        2.866        1.109      186.697       51.448        0.076      345.648       23.324      857.345
09/03/2014  01:11:00     -253.230      -15.742       -7.084       97.044       67.770       47.425     9417.515     4592.727     2249.129        4.034        0.813      253.719       47.760        0.035      345.655       23.337      857.348
09/03/2014  01:12:00     -229.751      -48.642      -13.469      100.339       94.494       51.162    10067.929     8929.167     2617.506        3.847        1.081      234.844       52.942        0.051      345.640       23.312      857.347
09/03/2014  01:13:00     -148.133      -23.307       -1.094       92.982       60.715       33.180     8645.579     3686.279     1100.912        1.796        0.672      149.955       43.573        0.084      345.579       23.210      857.345
09/03/2014  01:14:00     -326.408      -33.983      -19.617      102.773       79.624       54.136    10562.192     6340.021     2930.707        6.395        0.992      328.172       56.829        0.030      345.695       23.405      857.348
09/03/2014  01:15:00     -210.651      -21.779       -7.970       76.174       58.051       44.303     5802.518     3369.921     1962.729        2.802        0.557      211.774       44.353        0.044      345.702       23.417      857.334
09/03/2014  01:16:00     -177.661      -21.835        0.533      130.885       63.307       49.939    17130.867     4007.828     2493.900        2.783        1.182      178.998       62.994        0.124      345.572       23.196      857.323
09/03/2014  01:17:00     -296.813      -81.286       -4.625      127.773       89.101       58.523    16325.816     7939.070     3424.974        6.120        1.384      307.743       62.617        0.041      345.688       23.393      857.325
09/03/2014  01:18:00     -253.438      -54.937      -21.133      128.073       94.037       48.856    16402.732     8842.910     2386.908        4.766        1.382      259.324       49.471        0.036      345.654       23.337      857.328
09/03/2014  01:19:00     -201.027      -18.364       -3.673       71.560       86.514       48.010     5120.855     7484.696     2304.983        2.783        0.746      201.864       44.574        0.049      345.544       23.145      857.345
09/03/2014  01:20:00     -197.431       -4.367        0.630       95.343       85.573       45.223     9090.383     7322.806     2045.155        2.872        0.923      197.480       46.627        0.056      345.609       23.259      857.338
09/03/2014  01:21:00     -159.741      -85.494       -0.497       93.656       95.043       50.504     8771.396     9033.229     2550.660        2.659        1.018      181.181       51.334        0.080      345.642       23.315      857.325
09/03/2014  01:22:00     -159.013      -70.805        1.686      110.384       85.867       53.681    12184.567     7373.203     2881.622        2.637        1.122      174.065       58.719        0.114      345.575       23.201      857.315
09/03/2014  01:23:00     -160.537      -52.608        3.789      108.786       77.564       49.138    11834.378     6016.140     2414.497        2.441        1.013      168.937       59.022        0.122      345.528       23.118      857.320
09/03/2014  01:24:00     -165.497      -25.708        5.293      130.926       77.359       42.299    17141.551     5984.483     1789.228        2.649        1.246      167.481       47.230        0.080      345.500       23.073      857.317
09/03/2014  01:25:00     -275.090      -62.813       -3.821      111.869      110.689       56.814    12514.683    12252.036     3227.880        5.381        1.400      282.170       50.814        0.032      345.565       23.184      857.326
09/03/2014  01:26:00     -211.004      -96.201       -6.231      154.831      147.515       62.080    23972.781    21760.536     3853.904        5.169        2.479      231.899       62.573        0.073      345.642       23.316      857.319
09/03/2014  01:27:00     -219.570      -48.763      -17.197      119.316       74.180       48.312    14236.221     5502.621     2334.031        3.647        1.104      224.920       50.800        0.051      345.565       23.184      857.337
09/03/2014  01:28:00     -151.553      -51.813        3.990       88.508       77.690       47.988     7833.613     6035.807     2302.812        2.092        0.809      160.165       53.565        0.112      345.553       23.162      857.339
09/03/2014  01:29:00     -172.352       -6.410        2.436       75.750       52.004       44.973     5738.087     2704.425     2022.538        2.011        0.523      172.471       43.072        0.062      345.479       23.036      857.331
09/03/2014  01:30:00     -243.247      -57.888      -15.205       84.219       68.846       40.050     7092.860     4739.750     1604.033        3.809        0.672      250.040       35.338        0.020      345.575       23.199      857.335
09/03/2014  01:31:00     -187.745      -39.002       -5.489       93.194       59.932       44.610     8685.097     3591.848     1990.075        2.553        0.713      191.753       40.944        0.046      345.578       23.207      857.323
09/03/2014  01:32:00     -206.276      -39.731       -1.742       88.513       79.461       43.440     7834.473     6314.038     1887.012        3.008        0.802      210.068       47.996        0.052      345.577       23.205      857.325
09/03/2014  01:33:00     -189.530      -12.048       -4.174      108.251       64.511       44.589    11718.283     4161.724     1988.160        2.697        0.893      189.912       42.983        0.051      345.497       23.068      857.337
09/03/2014  01:34:00     -136.788      -20.776        3.162       84.057       66.026       40.950     7065.587     4359.399     1676.865        1.612        0.655      138.357       38.488        0.077      345.540       23.141      857.349
09/03/2014  01:35:00     -124.118      -34.862        0.354       92.319      101.881       44.281     8522.747    10379.727     1960.823        1.874        1.043      128.921       49.092        0.145      345.506       23.084      857.345
09/03/2014  01:36:00     -184.796      -15.956       -3.575      102.806       73.513       47.158    10569.090     5404.147     2223.862        2.630        0.910      185.483       53.851        0.084      345.584       23.218      857.345
09/03/2014  01:37:00     -117.333      -55.660        3.671      128.809       57.259       50.855    16591.753     3278.598     2586.222        1.966        1.123      129.866       50.540        0.151      345.606       23.254      857.339
09/03/2014  01:38:00     -136.450      -80.482        2.367      123.387      105.609       50.789    15224.411    11153.282     2579.474        2.702        1.448      158.417       48.581        0.094      345.594       23.233      857.334
09/03/2014  01:39:00     -202.186      -74.470      -11.451       89.881       83.423       54.077     8078.567     6959.462     2924.333        3.226        0.898      215.465       46.610        0.047      345.676       23.374      857.329
09/03/2014  01:40:00     -155.259      -79.112        0.243      109.866       77.766       46.910    12070.446     6047.563     2200.556        2.534        1.016      174.253       43.983        0.064      345.605       23.253      857.343
09/03/2014  01:41:00     -272.580      -42.281      -22.162       94.608       77.421       49.276     8950.623     5994.069     2428.119        4.697        0.869      275.840       47.555        0.030      345.697       23.409      857.354
09/03/2014  01:42:00     -164.882      -39.771       -6.417       72.256       73.861       35.123     5220.881     5455.400     1233.607        2.036        0.595      169.611       37.282        0.048      345.599       23.242      857.354
09/03/2014  01:43:00     -221.925      -64.095       -2.768       72.406       78.509       35.632     5242.684     6163.606     1269.606        3.302        0.634      230.995       34.287        0.022      345.650       23.328      857.344
09/03/2014  01:44:00     -137.225        7.230        0.490       69.385       51.688       37.140     4814.259     2671.653     1379.359        1.387        0.443      137.415       28.812        0.044      345.629       23.295      857.338
09/03/2014  01:45:00     -184.073      -30.973        2.304       94.308       66.211       39.834     8894.063     4383.894     1586.716        2.485        0.743      186.660       37.227        0.040      345.588       23.223      857.329
09/03/2014  01:46:00     -157.141      -76.480        9.779       88.922       87.016       45.889     7907.047     7571.805     2105.805        2.411        0.879      174.764       50.455        0.083      345.588       23.223      857.330
09/03/2014  01:47:00     -281.875      -79.295      -11.617      114.074       92.622       47.767    13012.943     8578.838     2281.686        5.487        1.194      292.816       55.115        0.035      345.666       23.357      857.324
09/03/2014  01:48:00     -227.106      -53.920       -6.163       95.039       66.403       49.249     9032.503     4409.387     2425.506        3.519        0.793      233.419       51.026        0.048      345.610       23.261      857.327
09/03/2014  01:49:00     -215.491      -35.710      -18.496       65.792       63.251       36.566     4328.614     4000.705     1337.094        2.886        0.483      218.429       27.039        0.015      345.640       23.311      857.314
09/03/2014  01:50:00     -162.830      -55.326       -7.650       94.060       62.701       41.475     8847.219     3931.384     1720.169        2.206        0.725      171.972       42.881        0.062      345.609       23.258      857.310
09/03/2014  01:51:00     -210.798      -82.377       -2.657       85.465       62.395       49.798     7304.243     3893.116     2479.856        3.245        0.684      226.322       48.926        0.047      345.732       23.469      857.301
09/03/2014  01:52:00     -147.309      -85.338       -0.944       76.791       80.158       48.799     5896.828     6425.364     2381.318        2.184        0.735      170.242       49.702        0.085      345.633       23.300      857.315
09/03/2014  01:53:00     -167.955      -21.095       10.628       88.893       56.845       53.667     7902.025     3231.397     2880.178        2.139        0.701      169.274       41.060        0.059      345.618       23.274      857.321
09/03/2014  01:54:00     -238.858      -67.327      -17.305      111.125       70.291       46.451    12348.849     4940.792     2157.702        4.066        0.972      248.165       48.995        0.039      345.651       23.332      857.345
09/03/2014  01:55:00     -209.056      -28.587       -0.856       83.598       64.489       46.483     6988.624     4158.832     2160.691        2.891        0.665      211.001       48.243        0.052      345.653       23.333      857.359
09/03/2014  01:56:00     -125.824      -43.583       12.569      119.933       67.103       45.004    14383.877     4502.769     2025.340        1.940        1.046      133.158       50.983        0.147      345.591       23.230      857.360
09/03/2014  01:57:00     -136.202      -65.024        4.691       83.756       63.724       39.599     7015.148     4060.761     1568.118        1.772        0.632      150.928       38.417        0.065      345.628       23.294      857.364
09/03/2014  01:58:00     -204.384      -36.371      -10.993       85.152       60.152       40.997     7250.878     3618.217     1680.792        2.788        0.627      207.595       35.409        0.029      345.739       23.482      857.375
09/03/2014  01:59:00     -163.680     -110.207       -3.235       81.712       84.158       41.995     6676.893     7082.597     1763.559        2.723        0.776      197.324       41.867        0.045      345.688       23.395      857.377
09/03/2014  02:00:00     -245.453      -38.673       -7.729       85.641       62.706       42.757     7334.302     3932.053     1828.121        3.745        0.655      248.481       45.571        0.034      345.751       23.501      857.390
09/03/2014  02:01:00     -156.323      -33.337       -4.208      112.853       50.160       33.656    12735.797     2515.998     1132.724        2.097        0.819      159.838       43.198        0.073      345.659       23.343      857.399
09/03/2014  02:02:00      -76.268      -26.133        7.504       50.196       56.362       27.660     2519.666     3176.704      765.064        0.651        0.323       80.621       24.109        0.089      345.545       23.151      857.414
09/03/2014  02:03:00     -100.632       37.117      -11.045       45.399       57.491       30.003     2061.054     3305.264      900.158        0.895        0.313      107.259       20.726        0.037      345.690       23.401      857.436
09/03/2014  02:04:00      -24.078       92.968      -19.167       46.073       31.719       25.486     2122.691     1006.122      649.518        0.668        0.189       96.035       18.433        0.037      345.676       23.377      857.456
09/03/2014  02:05:00        2.653       93.934       -6.813       54.025       55.564       30.297     2918.651     3087.318      917.889        0.790        0.346       93.972       30.908        0.108      345.543       23.150      857.453
09/03/2014  02:06:00      105.887       89.081        0.315       57.809       40.514       35.994     3341.925     1641.356     1295.548        1.271        0.314      138.375       25.329        0.034      345.218       22.591      857.463
09/03/2014  02:07:00      150.510       97.063        2.547       61.422       36.259       33.770     3772.705     1314.715     1140.391        1.915        0.311      179.094       24.784        0.019      345.001       22.219      857.473
09/03/2014  02:08:00       36.239       79.985       -1.293       34.509       45.289       36.825     1190.840     2051.055     1356.117        0.615        0.230       87.812       34.261        0.152      344.836       21.937      857.469
09/03/2014  02:09:00       27.480      144.510      -12.592       56.711       82.226       34.510     3216.102     6761.132     1190.966        1.648        0.558      147.100       41.804        0.081      344.813       21.896      857.472
09/03/2014  02:10:00       22.565      200.706      -22.344       77.260       77.924       37.838     5969.130     6072.126     1431.721        2.738        0.674      201.970       36.996        0.034      344.763       21.809      857.482
09/03/2014  02:11:00      -59.459      183.109      -12.465       52.787       67.837       43.139     2786.510     4601.925     1860.954        2.323        0.462      192.521       38.375        0.040      344.748       21.784      857.481
09/03/2014  02:12:00      -74.306      112.596      -10.995       57.508       36.385       27.919     3307.181     1323.898      779.450        1.186        0.271      134.905       28.569        0.045      344.768       21.822      857.499
09/03/2014  02:13:00      -48.957       23.728      -11.815       36.127       48.651       22.808     1305.148     2366.959      520.215        0.365        0.210       54.404       16.918        0.097      344.845       21.953      857.519
09/03/2014  02:14:00        1.500       10.777        5.621       30.231       18.429       12.460      913.930      339.643      155.260        0.078        0.070       10.881       13.055        1.439      344.762       21.813      857.538
09/03/2014  02:15:00      -47.426       64.837        0.352       46.153       35.088       20.835     2130.128     1231.148      434.077        0.512        0.190       80.331       22.233        0.077      344.665       21.643      857.552
09/03/2014  02:16:00        5.687       47.835        0.625       30.054       36.831       19.598      903.241     1356.533      384.091        0.248        0.132       48.172       21.607        0.201      344.663       21.642      857.557
09/03/2014  02:17:00       46.469       45.256       17.305       40.771       43.252       25.170     1662.280     1870.742      633.547        0.434        0.208       64.866       25.760        0.158      344.557       21.460      857.576
09/03/2014  02:18:00       60.179      157.854      -18.460       73.480       64.451       35.308     5399.351     4153.958     1246.632        1.984        0.540      168.936       34.827        0.043      344.537       21.425      857.591
09/03/2014  02:19:00       91.341       52.954        5.643       47.856       37.968       23.131     2290.192     1441.554      535.047        0.772        0.213      105.581       16.579        0.025      344.481       21.331      857.597
09/03/2014  02:20:00       37.791       29.279        4.150       33.003       30.165       23.428     1089.181      909.899      548.886        0.242        0.127       47.806       16.421        0.118      344.379       21.157      857.605
09/03/2014  02:21:00       56.013      156.486       -6.003       55.972       68.013       44.850     3132.821     4625.735     2011.506        1.871        0.489      166.209       36.180        0.047      344.289       21.000      857.622
09/03/2014  02:22:00       73.084       74.141       -3.536       42.366       52.566       32.502     1794.877     2763.183     1056.411        0.823        0.281      104.107       34.632        0.111      344.191       20.835      857.620
09/03/2014  02:23:00       84.145       50.915        2.180       31.995       24.277       21.317     1023.655      589.358      454.414        0.587        0.103       98.350       12.873        0.017      344.198       20.847      857.623
09/03/2014  02:24:00       85.717       42.813        3.606       29.521       23.094       21.289      871.505      533.349      453.218        0.553        0.093       95.814       13.565        0.020      344.128       20.728      857.618
09/03/2014  02:25:00       13.069       48.113       -5.117       35.449       32.057       17.844     1256.616     1027.628      318.416        0.256        0.130       49.856       15.836        0.101      344.083       20.651      857.620
09/03/2014  02:26:00        0.181       66.140       -6.402       30.623       30.507       16.730      937.755      930.703      279.896        0.328        0.107       66.140       13.042        0.039      344.148       20.762      857.632
09/03/2014  02:27:00       82.169       44.925        8.805       81.363       53.727       32.321     6619.949     2886.634     1044.665        0.970        0.528       93.648       30.435        0.106      344.194       20.838      857.638
09/03/2014  02:28:00      121.580       92.620       47.097       78.369       53.381       59.246     6141.729     2849.499     3510.050        1.904        0.625      152.840       33.367        0.048      344.488       21.340      857.619
09/03/2014  02:29:00      -42.406       22.274      -16.324       41.857       37.831       17.940     1752.007     1431.163      321.855        0.303        0.175       47.900       15.428        0.104      344.379       21.156      857.635
09/03/2014  02:30:00      -76.098      -33.054        2.063       55.283       35.347       24.137     3056.252     1249.436      582.588        0.589        0.244       82.967       29.891        0.130      344.160       20.781      857.644
09/03/2014  02:31:00       -6.754       28.802       -5.602       12.015       19.077        9.860      144.360      363.916       97.212        0.076        0.030       29.584        8.884        0.090      344.198       20.848      857.642
09/03/2014  02:32:00      -25.138      -16.757        2.474       27.481       27.481        8.708      755.181      755.189       75.822        0.125        0.079       30.212       11.184        0.137      344.145       20.756      857.633
09/03/2014  02:33:00      -10.672       10.407        8.186       15.489        8.480        9.320      239.912       71.910       86.872        0.034        0.020       14.907        9.162        0.378      344.065       20.618      857.633
09/03/2014  02:34:00      -14.551       -4.071       -4.008       18.829       18.946       13.652      354.542      358.945      186.387        0.057        0.045       15.110        6.907        0.209      344.223       20.889      857.628
09/03/2014  02:35:00        6.034       94.054      -15.315       26.751       50.033       20.439      715.619     2503.262      417.745        0.638        0.182       94.248       24.253        0.066      344.083       20.651      857.648
09/03/2014  02:36:00       70.867       29.098       10.771       23.220       18.576       18.206      539.154      345.060      331.468        0.360        0.061       76.609       12.159        0.025      344.195       20.840      857.657
09/03/2014  02:37:00       51.651       11.549       11.278       14.671       18.473       13.900      215.235      341.266      193.220        0.184        0.037       52.926        5.578        0.011      344.209       20.867      857.670
09/03/2014  02:38:00       27.499       30.563       27.352       40.959       31.102       31.914     1677.660      967.360     1018.511        0.305        0.183       41.113       33.168        0.651      344.142       20.751      857.666
09/03/2014  02:39:00       25.227       62.554      -19.735       16.653       33.825       15.596      277.326     1144.121      243.247        0.330        0.083       67.450        6.055        0.008      344.474       21.317      857.685
09/03/2014  02:40:00       -0.343       79.591      -11.000       36.756       43.702       16.774     1350.982     1909.825      281.373        0.500        0.177       79.592       19.078        0.057      344.294       21.011      857.718
09/03/2014  02:41:00       46.304      -10.572       31.539       47.260       87.631       38.784     2233.467     7679.198     1504.179        0.733        0.571       47.495       52.725        1.232      343.986       20.486      857.727
09/03/2014  02:42:00       93.453     -105.089      -20.011       28.580       43.347       19.465      816.837     1878.993      378.873        1.163        0.154      140.631       15.152        0.012      344.329       21.070      857.740
09/03/2014  02:43:00       72.578      -80.509      -14.148       22.997       31.445       17.264      528.849      988.816      298.045        0.688        0.091      108.394        5.342        0.002      344.189       20.831      857.753
09/03/2014  02:44:00       74.952      -83.584        0.235       27.987       27.234       17.399      783.289      741.694      302.726        0.722        0.091      112.268       13.121        0.014      344.160       20.782      857.756
09/03/2014  02:45:00       57.667      -48.397       14.179       23.690       36.136       20.587      561.202     1305.846      423.829        0.408        0.115       75.285       17.745        0.056      344.289       21.000      857.768
09/03/2014  02:46:00       43.408      -69.691       -9.599       24.301       22.723       15.858      590.521      516.317      251.465        0.410        0.068       82.105       10.145        0.015      344.281       20.988      857.761
09/03/2014  02:47:00        0.294      -57.563        0.939       21.566       34.996       18.931      465.080     1224.718      358.376        0.268        0.102       57.564       18.067        0.099      344.265       20.961      857.767
09/03/2014  02:48:00      -27.321       -0.864       -4.503       12.260       10.630        9.222      150.317      113.005       85.046        0.056        0.017       27.335        7.596        0.077      344.121       20.715      857.778
09/03/2014  02:49:00      -12.423       29.970       -3.514        9.021       13.150        5.556       81.375      172.926       30.864        0.067        0.014       32.443        1.978        0.004      344.126       20.723      857.762
09/03/2014  02:50:00       14.401       -5.003       -2.524       12.980       21.560        7.087      168.474      464.814       50.228        0.046        0.034       15.245        4.829        0.100      344.369       21.138      857.751
09/03/2014  02:51:00      -10.681      -38.159       10.368       36.048       13.781       11.113     1299.456      189.911      123.494        0.164        0.081       39.626       16.163        0.166      344.436       21.252      857.744
09/03/2014  02:52:00      -52.696      -18.815       -6.600       15.437       13.850        7.985      238.286      191.818       63.766        0.183        0.025       55.954        7.716        0.019      343.955       20.431      857.737
09/03/2014  02:53:00       -2.799      -10.152        8.038       15.431       10.794        8.935      238.119      116.505       79.829        0.030        0.022       10.530        8.708        0.684      343.821       20.204      857.739
09/03/2014  02:54:00       15.778       31.138      -10.010       18.398       27.797       17.881      338.477      772.672      319.724        0.137        0.072       34.907       14.428        0.171      343.794       20.156      857.748
09/03/2014  02:55:00      -11.028        7.294        5.663       12.116       14.813        8.426      146.804      219.436       70.991        0.032        0.022       13.222        5.828        0.194      344.004       20.513      857.750
09/03/2014  02:56:00      -13.203        1.453       -5.412       11.393        7.852        5.444      129.793       61.657       29.634        0.021        0.011       13.283        3.987        0.090      344.158       20.777      857.737
09/03/2014  02:57:00       -3.415        3.006       -2.155        5.195        9.922        4.179       26.989       98.449       17.465        0.008        0.007        4.549        5.359        1.388      344.152       20.766      857.721
09/03/2014  02:58:00       -2.948      -15.320       -5.826       10.399       11.058        9.100      108.139      122.268       82.817        0.030        0.016       15.601        7.307        0.219      344.056       20.605      857.727
09/03/2014  02:59:00      -42.348      -16.813       -8.648       15.035        7.766        4.508      226.060       60.304       20.325        0.123        0.015       45.564        4.211        0.009      344.087       20.660      857.740
09/03/2014  03:00:00      -83.785       23.735      -15.420       12.036        9.405        8.873      144.863       88.454       78.729        0.407        0.016       87.082        6.263        0.005      343.764       20.104      857.745
09/03/2014  03:01:00      -82.264       -1.458      -15.377       11.684        9.273        6.119      136.511       85.990       37.438        0.363        0.013       82.277        3.402        0.002      343.845       20.243      857.758
09/03/2014  03:02:00      -65.442      -16.868      -10.812        8.621       12.314        6.451       74.315      151.628       41.609        0.248        0.013       67.581        3.042        0.002      343.893       20.323      857.772
09/03/2014  03:03:00      -16.431       48.377      -18.574       58.672       45.502       19.979     3442.378     2070.393      399.146        0.443        0.296       51.092       24.786        0.235      344.201       20.852      857.772
09/03/2014  03:04:00       -8.157       67.665       -7.594       41.725       35.617       18.761     1740.945     1268.591      351.985        0.403        0.168       68.155       13.658        0.040      344.153       20.769      857.763
09/03/2014  03:05:00       -8.957       28.934       -4.982       21.702       24.249       12.762      470.981      588.021      162.860        0.108        0.061       30.289       10.361        0.117      343.990       20.491      857.767
09/03/2014  03:06:00      -22.998       22.349       -7.434       18.475       13.172        9.577      341.334      173.496       91.713        0.084        0.030       32.068        9.864        0.095      343.953       20.428      857.781
09/03/2014  03:07:00       11.617       24.089       -2.042       22.270       35.928       17.223      495.932     1290.827      296.616        0.140        0.104       26.744       14.207        0.282      343.963       20.445      857.786
09/03/2014  03:08:00      -56.124       46.944       -9.412       27.257       41.470       18.812      742.932     1719.738      353.906        0.413        0.141       73.168       13.224        0.033      343.890       20.321      857.794
09/03/2014  03:09:00      -67.764       81.409      -16.619       49.487       48.595       25.938     2448.958     2361.471      672.792        0.849        0.274      105.922       30.703        0.084      343.950       20.423      857.805
09/03/2014  03:10:00      -78.640       72.203      -19.780       39.652       29.480       25.339     1572.288      869.058      642.089        0.744        0.154      106.759       20.262        0.036      343.836       20.228      857.807
09/03/2014  03:11:00      -79.736       35.254      -14.285       27.389       31.111       16.765      750.152      967.889      281.062        0.490        0.100       87.182       17.341        0.040      343.845       20.245      857.814
09/03/2014  03:12:00      -74.719      -12.294       -0.855       37.138       28.737       20.335     1379.266      825.831      413.532        0.418        0.131       75.724       20.891        0.076      343.791       20.151      857.832
09/03/2014  03:13:00      -59.086      -38.927       -0.927       44.586       29.848       21.184     1987.950      890.889      448.770        0.417        0.166       70.757       24.351        0.118      343.747       20.077      857.846
09/03/2014  03:14:00     -101.097      -36.580       -0.602       39.113       33.807       23.334     1529.809     1142.901      544.493        0.739        0.161      107.511       18.669        0.030      343.700       19.995      857.868
09/03/2014  03:15:00      -52.559        1.821        4.888       29.446       17.118       17.156      867.063      293.038      294.312        0.212        0.073       52.591       10.277        0.038      343.625       19.869      857.875
09/03/2014  03:16:00     -128.880      -29.560      -14.026       56.948       39.547       16.039     3243.028     1563.940      257.260        1.137        0.253      132.226       19.773        0.022      343.691       19.980      857.873
09/03/2014  03:17:00     -129.106       15.439      -14.655       74.737       53.909       47.192     5585.654     2906.129     2227.049        1.392        0.536      130.026       39.326        0.091      343.660       19.927      857.865
09/03/2014  03:18:00     -134.715      109.977      -22.763       87.846       57.470       40.779     7717.006     3302.801     1662.920        2.172        0.634      173.906       48.417        0.078      343.587       19.801      857.858
09/03/2014  03:19:00     -112.310      165.187      -31.371       50.182       59.871       35.210     2518.241     3584.585     1239.746        2.411        0.367      199.751       30.801        0.024      343.668       19.939      857.842
09/03/2014  03:20:00      -79.503       82.242       -7.911       33.237       52.331       23.934     1104.691     2738.531      572.853        0.878        0.221      114.388        9.807        0.007      343.551       19.742      857.836
09/03/2014  03:21:00      -68.152       29.986        3.124       39.930       50.897       25.347     1594.370     2590.520      642.465        0.519        0.241       74.457       20.355        0.075      343.510       19.671      857.846
09/03/2014  03:22:00     -158.393      -30.119       -4.211       75.501       53.546       35.890     5700.339     2867.213     1288.105        1.793        0.493      161.231       36.505        0.051      343.457       19.581      857.843
09/03/2014  03:23:00     -120.089      -40.334       -7.705       64.820       38.700       27.869     4201.666     1497.674      776.680        1.129        0.324      126.681       24.771        0.038      343.411       19.502      857.841
09/03/2014  03:24:00     -163.697      -14.252       -6.630       55.320       45.546       31.461     3060.335     2074.449      989.775        1.658        0.306      164.316       26.102        0.025      343.479       19.618      857.851
09/03/2014  03:25:00     -153.035      -43.903      -12.412       60.806       37.969       23.168     3697.359     1441.679      536.737        1.559        0.284      159.208       26.164        0.027      343.432       19.539      857.850
09/03/2014  03:26:00     -167.283      -33.479      -12.405       42.167       35.100       23.657     1778.069     1232.021      559.668        1.641        0.178      170.600       20.578        0.015      343.429       19.534      857.848
09/03/2014  03:27:00     -115.992      -23.760       -8.537       46.402       32.797       20.760     2153.154     1075.661      430.970        0.887        0.183      118.401       18.518        0.024      343.439       19.551      857.847
09/03/2014  03:28:00     -119.484      -26.247       -7.761       43.770       46.049       19.786     1915.819     2120.556      391.478        0.973        0.221      122.333       19.824        0.026      343.364       19.424      857.853
09/03/2014  03:29:00     -102.166      -51.895        4.437       42.100       34.439       26.120     1772.368     1186.070      682.277        0.839        0.182      114.590       23.236        0.041      343.174       19.101      857.845
09/03/2014  03:30:00     -134.785      -14.024       -6.623       37.978       27.371       22.855     1442.348      749.196      522.332        1.056        0.136      135.513       17.451        0.017      343.163       19.082      857.847
09/03/2014  03:31:00     -107.687        3.452       -6.755       56.279       36.562       26.289     3167.298     1336.772      691.136        0.842        0.260      107.743       28.589        0.070      343.150       19.060      857.848
09/03/2014  03:32:00      -69.733       41.476      -14.521       40.034       29.764       19.658     1602.694      885.918      386.448        0.483        0.144       81.136       17.404        0.046      343.088       18.954      857.838
09/03/2014  03:33:00     -131.730       10.957      -20.799       71.305       73.737       39.286     5084.352     5437.132     1543.389        1.498        0.603      132.185       48.121        0.133      343.111       18.993      857.832
09/03/2014  03:34:00     -140.334      -58.517      -16.917       47.489       51.411       30.035     2255.249     2643.102      902.130        1.460        0.290      152.046       22.409        0.022      343.140       19.040      857.841
09/03/2014  03:35:00     -144.820      -47.544       -7.786       40.852       37.614       32.000     1668.884     1414.845     1023.969        1.370        0.205      152.424       24.524        0.026      343.100       18.974      857.852
09/03/2014  03:36:00     -131.144      -27.449      -11.865       52.330       26.804       22.046     2738.474      718.430      486.025        1.102        0.197      133.986       11.103        0.007      343.131       19.027      857.841
09/03/2014  03:37:00     -136.574      -36.316      -12.189       33.294       35.710       20.342     1108.487     1275.211      413.813        1.146        0.140      141.320       16.939        0.014      343.038       18.869      857.849
09/03/2014  03:38:00      -93.645      -51.900       -0.507       38.866       45.241       22.959     1510.529     2046.742      527.134        0.777        0.204      107.066       21.580        0.041      342.986       18.779      857.849
09/03/2014  03:39:00      -48.100       -5.261        1.947       53.047       32.825       16.175     2813.942     1077.496      261.630        0.325        0.208       48.387       20.906        0.187      342.866       18.576      857.845
09/03/2014  03:40:00     -141.963       53.204      -17.459       61.591       34.086       29.329     3793.513     1161.841      860.213        1.455        0.291      151.606       28.946        0.036      343.108       18.988      857.854
09/03/2014  03:41:00     -147.054       -2.196      -11.795       59.944       51.462       26.480     3593.267     2648.357      701.205        1.435        0.347      147.071       28.559        0.038      343.052       18.893      857.835
09/03/2014  03:42:00     -201.564       51.210      -19.001       60.629       48.597       38.357     3675.824     2361.680     1471.266        2.556        0.375      207.968       25.198        0.015      343.187       19.119      857.831
09/03/2014  03:43:00     -138.584       40.692      -16.786       68.656       63.212       32.579     4713.615     3995.779     1061.386        1.546        0.489      144.435       32.382        0.050      343.145       19.050      857.835
09/03/2014  03:44:00      -93.163       -2.009      -15.768       45.972       48.880       35.816     2113.412     2389.232     1282.757        0.736        0.289       93.184       17.677        0.036      343.139       19.039      857.829
09/03/2014  03:45:00     -124.618      -36.172       -9.927       52.051       41.397       29.124     2709.269     1713.714      848.182        1.110        0.264      129.762       26.813        0.043      343.114       18.998      857.835
09/03/2014  03:46:00     -117.722       10.157      -10.887       57.397       59.510       29.470     3294.459     3541.422      868.472        1.089        0.385      118.159       26.287        0.049      343.117       19.003      857.834
09/03/2014  03:47:00     -167.851       26.491      -13.989       48.656       30.574       24.767     2367.377      934.769      613.383        1.649        0.196      169.928       17.683        0.011      343.155       19.068      857.836
09/03/2014  03:48:00     -163.958      -13.842      -22.386       40.233       64.637       25.549     1618.734     4177.889      652.768        1.701        0.322      164.541       21.370        0.017      343.181       19.111      857.841
09/03/2014  03:49:00     -166.524       37.092      -29.380       34.923       72.255       27.543     1219.619     5220.791      758.611        1.858        0.360      170.605       24.169        0.020      343.105       18.982      857.845
09/03/2014  03:50:00     -141.445      -10.373      -23.463       75.948       64.802       38.547     5768.099     4199.278     1485.889        1.606        0.573      141.825       38.816        0.075      343.143       19.047      857.842
09/03/2014  03:51:00     -125.119       -4.437      -22.197       45.350       61.786       21.813     2056.610     3817.527      475.786        1.126        0.317      125.198       20.158        0.026      343.178       19.107      857.850
09/03/2014  03:52:00     -117.300      -63.761      -25.944       52.029       43.383       25.827     2707.067     1882.092      667.017        1.188        0.263      133.509       17.756        0.018      343.118       19.005      857.850
09/03/2014  03:53:00     -144.913      -29.737      -16.996       44.047       39.706       30.923     1940.169     1576.563      956.255        1.332        0.224      147.932       28.239        0.036      343.098       18.971      857.856
09/03/2014  03:54:00      -93.770      -43.933       -0.599       33.721       25.014       23.502     1137.109      625.719      552.362        0.652        0.116      103.551        9.484        0.008      343.111       18.994      857.866
09/03/2014  03:55:00     -122.896      -10.635      -10.686       31.982       30.775       17.292     1022.831      947.127      299.007        0.880        0.113      123.355       13.948        0.013      343.076       18.933      857.852
09/03/2014  03:56:00     -164.391      -10.261      -10.559       51.646       29.090       27.457     2667.262      846.219      753.884        1.575        0.213      164.711       22.151        0.018      343.097       18.967      857.862
09/03/2014  03:57:00     -173.104      -73.980      -17.557       56.316       51.797       33.565     3171.508     2682.951     1126.637        2.136        0.349      188.250       27.201        0.021      343.133       19.028      857.868
09/03/2014  03:58:00     -107.964      -40.948       -0.080       67.910       46.760       25.404     4611.783     2186.543      645.379        1.039        0.372      115.469       27.270        0.056      343.016       18.831      857.857
09/03/2014  03:59:00      -74.981      -84.721       -1.599       54.570       39.918       30.688     2977.896     1593.458      941.740        0.916        0.276      113.137       27.972        0.061      342.956       18.727      857.885
09/03/2014  04:00:00      -43.762       -0.593       10.381       43.439       43.873       20.656     1886.968     1924.826      426.685        0.313        0.212       43.766       28.353        0.420      342.874       18.589      857.888
09/03/2014  04:01:00       13.035       32.164       12.164       19.988       15.620       15.471      399.536      243.981      239.339        0.112        0.044       34.705       10.886        0.098      342.933       18.688      857.905
09/03/2014  04:02:00       27.916       27.414        3.727       28.287       23.664       17.492      800.165      560.004      305.985        0.161        0.083       39.126       14.159        0.131      343.051       18.890      857.931
09/03/2014  04:03:00       47.226       10.551       18.830       25.467       21.915       24.164      648.568      480.260      583.909        0.220        0.086       48.390       14.686        0.092      342.966       18.745      857.943
09/03/2014  04:04:00      -29.165        6.275       12.916       17.717       17.175       14.268      313.882      294.985      203.586        0.093        0.041       29.833       14.983        0.252      342.974       18.760      857.937
09/03/2014  04:05:00      -82.334      -15.930      -15.392       19.969       12.679       16.655      398.757      160.767      277.381        0.405        0.042       83.861       14.533        0.030      343.465       19.595      857.936
09/03/2014  04:06:00      -59.819      -19.802        1.865       26.471       20.732       19.317      700.721      429.811      373.157        0.274        0.075       63.011       18.431        0.086      343.363       19.422      857.937
09/03/2014  04:07:00     -117.461       -0.621       -9.708       36.431       64.576       25.192     1327.247     4170.053      634.617        1.001        0.307      117.463       14.922        0.016      343.392       19.472      857.922
09/03/2014  04:08:00      -26.957      -12.600      -12.182       34.352       51.599       38.303     1180.044     2662.490     1467.127        0.317        0.265       29.756       29.589        0.989      343.835       20.227      857.913
09/03/2014  04:09:00        3.162       93.079      -10.565       36.758       60.508       31.081     1351.149     3661.258      965.997        0.738        0.299       93.133       33.148        0.127      343.689       19.978      857.898
09/03/2014  04:10:00     -117.153       42.238      -18.672       42.586       37.490       16.364     1813.563     1405.482      267.792        0.967        0.174      124.534       10.407        0.007      343.385       19.460      857.887
09/03/2014  04:11:00      -80.387      -21.821       -4.796       16.077       26.784       14.063      258.456      717.398      197.773        0.407        0.059       83.296        9.805        0.014      343.270       19.263      857.888
09/03/2014  04:12:00     -177.572       27.229      -23.498       62.802       31.810       16.998     3944.087     1011.858      288.949        1.903        0.262      179.648       20.024        0.012      343.290       19.295      857.893
09/03/2014  04:13:00     -117.321      -10.923       -5.810       65.068       29.741       22.067     4233.839      884.553      486.955        0.976        0.280      117.829       25.896        0.048      342.969       18.751      857.896
09/03/2014  04:14:00     -104.346       -9.386       -7.343       29.553       28.376       15.934      873.396      805.213      253.882        0.648        0.097      104.767       12.812        0.015      343.026       18.848      857.885
09/03/2014  04:15:00     -149.720       17.535      -16.286       25.693       28.577       13.787      660.150      816.636      190.084        1.233        0.083      150.743        7.843        0.003      343.170       19.093      857.888
09/03/2014  04:16:00     -146.079       74.826      -21.458       30.419       46.128       22.754      925.310     2127.775      517.754        1.548        0.179      164.128       20.091        0.015      343.588       19.807      857.877
09/03/2014  04:17:00      -99.156       35.352      -11.643       21.237       24.384       16.790      451.018      594.589      281.895        0.627        0.066      105.269       11.454        0.012      343.479       19.620      857.871
09/03/2014  04:18:00      -95.712       23.510       -6.032       28.172       32.645       19.316      793.668     1065.681      373.122        0.599        0.112       98.557       16.566        0.028      343.414       19.507      857.866
09/03/2014  04:19:00      -38.683       10.976       -4.338       17.516       16.687       13.232      306.807      278.452      175.095        0.120        0.038       40.210       10.185        0.064      343.274       19.271      857.872
09/03/2014  04:20:00       16.015        9.126        8.471       31.018       18.445       18.823      962.093      340.221      354.307        0.103        0.083       18.433        5.552        0.091      343.035       18.864      857.877
09/03/2014  04:21:00       10.957       11.721       -5.217       21.863       13.954       11.232      477.998      194.725      126.150        0.054        0.040       16.045        9.138        0.324      342.950       18.719      857.880
09/03/2014  04:22:00      -25.803       -4.843      -12.116       15.587        8.803        7.705      242.957       77.494       59.364        0.061        0.019       26.254        4.790        0.033      342.930       18.682      857.881
09/03/2014  04:23:00      -79.623      -14.971       -5.490       20.457       15.333        5.777      418.509      235.107       33.372        0.364        0.034       81.018        6.423        0.006      342.820       18.499      857.875
09/03/2014  04:24:00      -73.529      -46.955       -4.619       22.709       14.594       13.026      515.699      212.992      169.681        0.427        0.045       87.243        6.433        0.005      342.801       18.465      857.877
09/03/2014  04:25:00      -55.083      -49.200       -6.522       19.070       19.943       11.677      363.683      397.738      136.342        0.320        0.045       73.857        6.011        0.007      342.860       18.565      857.881
09/03/2014  04:26:00      -52.025      -34.873        8.284       24.709       20.897       13.042      610.525      436.668      170.083        0.260        0.061       62.631        9.757        0.024      342.813       18.486      857.896
09/03/2014  04:27:00     -115.085      -21.279      -11.058       20.136       13.848       11.187      405.465      191.771      125.154        0.727        0.036      117.036       11.132        0.009      342.856       18.558      857.908
09/03/2014  04:28:00     -113.421      -28.122       -2.245       29.309       22.951       15.508      859.033      526.727      240.503        0.764        0.081      116.855       16.154        0.019      342.765       18.403      857.912
09/03/2014  04:29:00      -89.072      -38.503        6.308       37.228       26.893       16.130     1385.959      723.252      260.187        0.591        0.118       97.038       13.535        0.019      342.548       18.035      857.911
09/03/2014  04:30:00      -38.488      -40.106        7.496       45.424       41.029       18.204     2063.363     1683.343      331.379        0.361        0.204       55.586       22.934        0.170      342.594       18.114      857.912
09/03/2014  04:31:00      -64.028      -76.772        3.593       42.155       34.892       26.082     1777.083     1217.451      680.251        0.684        0.184       99.968       23.978        0.058      342.581       18.089      857.921
09/03/2014  04:32:00      -62.235      -88.400       -1.761       41.670       42.278       20.677     1736.405     1787.463      427.532        0.782        0.198      108.109       21.417        0.039      342.801       18.467      857.922
09/03/2014  04:33:00      -87.792      -47.855        9.736       48.202       37.769       35.008     2323.435     1426.522     1225.530        0.753        0.249       99.988       19.203        0.037      342.665       18.233      857.920
09/03/2014  04:34:00      -66.984      -40.176        4.997       40.266       35.391       25.481     1621.369     1252.498      649.305        0.482        0.176       78.109       27.113        0.120      342.619       18.154      857.927
09/03/2014  04:35:00      -81.074      -58.699       -6.783       32.933       31.870       22.556     1084.551     1015.719      508.778        0.634        0.130      100.092       15.299        0.023      342.703       18.297      857.920
09/03/2014  04:36:00      -58.595      -35.484       -2.623       31.215       24.138       20.455      974.385      582.628      418.412        0.334        0.099       68.502       11.771        0.030      342.663       18.230      857.922
09/03/2014  04:37:00      -24.795      -29.772       -1.017       30.740       22.095       15.435      944.952      488.203      238.243        0.159        0.084       38.745       10.559        0.074      342.679       18.258      857.925
09/03/2014  04:38:00      -60.139      -21.541        5.163       46.573       23.694       17.096     2169.015      561.416      292.260        0.356        0.151       63.881       22.356        0.122      342.626       18.167      857.927
09/03/2014  04:39:00     -112.837       -9.518       -3.310       21.003       27.699       14.179      441.122      767.212      201.034        0.712        0.070      113.238       12.753        0.013      342.776       18.423      857.939
09/03/2014  04:40:00     -113.036      -19.138       -9.598       24.229       24.868       14.506      587.051      618.413      210.423        0.733        0.071      114.645        9.973        0.008      342.523       17.992      857.932
09/03/2014  04:41:00      -91.086      -25.414       -1.102       17.142       17.451       14.835      293.864      304.545      220.074        0.488        0.041       94.565       11.949        0.016      342.400       17.783      857.924
09/03/2014  04:42:00      -43.734      -30.190        5.941       36.733       21.619       13.075     1349.302      467.397      170.964        0.242        0.099       53.142       17.729        0.111      342.379       17.748      857.922
09/03/2014  04:43:00      -40.118      -36.217       -0.204       27.012       18.552       14.488      729.656      344.163      209.893        0.210        0.064       54.047       13.738        0.065      342.691       18.278      857.934
09/03/2014  04:44:00      -38.442      -15.454       -2.255       21.349       19.435       13.403      455.775      377.731      179.640        0.137        0.051       41.432       13.439        0.105      342.462       17.889      857.946
09/03/2014  04:45:00      -76.426       -4.540       -6.019       17.722       22.442       10.369      314.083      503.624      107.514        0.341        0.046       76.561        7.579        0.010      342.389       17.765      857.956
09/03/2014  04:46:00     -101.211      -24.005       -9.245       18.182       14.599       13.147      330.570      213.135      172.838        0.581        0.036      104.019        8.235        0.006      342.275       17.569      857.966
09/03/2014  04:47:00      -64.466      -27.606      -11.971       34.725       19.060       15.157     1205.837      363.265      229.725        0.343        0.090       70.128       11.833        0.028      342.137       17.335      857.986
09/03/2014  04:48:00      -58.814      -13.029       -4.508       25.574       20.051       10.152      654.053      402.038      103.054        0.240        0.058       60.240        9.908        0.027      342.156       17.369      857.984
09/03/2014  04:49:00      -79.225       -4.295      -10.547       17.198       11.918       10.728      295.786      142.050      115.086        0.348        0.028       79.341        7.787        0.010      342.247       17.523      857.988
09/03/2014  04:50:00      -74.867      -20.394      -12.735       10.321        9.109        6.818      106.533       82.966       46.488        0.321        0.012       77.595        5.594        0.005      342.443       17.858      857.988
09/03/2014  04:51:00      -74.113      -39.199      -10.028       11.671       10.264        5.995      136.211      105.357       35.943        0.370        0.014       83.841        4.798        0.003      342.725       18.335      857.985
09/03/2014  04:52:00     -107.836       -1.950      -13.878       19.612       13.300        8.930      384.647      176.902       79.742        0.623        0.032      107.854        6.072        0.003      342.410       17.799      857.974
09/03/2014  04:53:00     -132.595      -23.019      -13.713       37.718       17.147       15.736     1422.658      294.021      247.616        1.013        0.098      134.578       18.921        0.020      342.320       17.648      857.970
09/03/2014  04:54:00     -135.487      -63.367       -8.799       34.286       28.163       22.497     1175.558      793.164      506.135        1.246        0.124      149.573       20.700        0.019      341.838       16.829      857.978
09/03/2014  04:55:00     -101.551      -53.919      -16.562       30.514       21.195       15.842      931.081      449.249      250.978        0.756        0.082      114.978       12.075        0.011      341.867       16.878      857.984
09/03/2014  04:56:00      -82.488      -11.641        3.808       25.713       30.454       18.560      661.183      927.420      344.481        0.444        0.097       83.305       16.980        0.042      342.016       17.131      857.984
09/03/2014  04:57:00      -45.812      -11.331        2.585       27.079       22.129       14.751      733.279      489.681      217.584        0.184        0.072       47.192       13.822        0.086      341.939       16.999      857.979
09/03/2014  04:58:00      -57.701        0.852       -0.751       17.553       20.280       13.275      308.123      411.291      176.225        0.211        0.045       57.708       11.257        0.038      342.080       17.238      857.981
09/03/2014  04:59:00      -21.396       -4.238        4.130       26.167       12.360        9.891      684.686      152.779       97.835        0.071        0.047       21.811        8.518        0.153      342.261       17.547      857.992
09/03/2014  05:00:00        2.672      -17.775       10.320        8.083        8.617        7.554       65.340       74.259       57.070        0.031        0.010       17.975        5.046        0.079      342.184       17.417      857.989
09/03/2014  05:01:00       53.080       30.188        4.128       17.380       23.405       12.465      302.055      547.790      155.375        0.238        0.050       61.064        6.913        0.013      341.972       17.055      857.990
09/03/2014  05:02:00       33.826        4.109        1.037       19.546       24.893       11.672      382.047      619.656      136.226        0.115        0.057       34.075        5.733        0.028      341.960       17.036      858.009
09/03/2014  05:03:00       12.562      -43.531       -5.748       16.504       24.455       13.279      272.367      598.047      176.323        0.157        0.052       45.307       12.248        0.073      342.051       17.190      858.025
09/03/2014  05:04:00       28.641      -85.070      -16.399       21.154       19.646       16.011      447.491      385.952      256.344        0.471        0.054       89.762       12.095        0.018      342.152       17.363      858.025
09/03/2014  05:05:00       23.460      -72.639       -9.227       25.226       30.487       22.895      636.367      929.461      524.185        0.400        0.105       76.334       24.189        0.100      342.119       17.305      858.021
09/03/2014  05:06:00      -24.213        4.791       -1.044       20.802       12.358       14.871      432.709      152.709      221.139        0.071        0.040       24.682       12.186        0.244      341.989       17.085      858.030
09/03/2014  05:07:00      -72.391      -17.178       -8.141       13.856       12.116       10.122      192.002      146.798      102.458        0.302        0.022       74.401        8.253        0.012      341.943       17.006      858.042
09/03/2014  05:08:00      -67.337      -22.063       -0.542        9.519        9.313        6.979       90.619       86.728       48.708        0.262        0.011       70.859        4.984        0.005      341.902       16.937      858.040
09/03/2014  05:09:00      -64.132      -22.267       -2.933       20.090       15.854       10.607      403.604      251.360      112.508        0.269        0.038       67.887       10.373        0.023      341.860       16.866      858.043
09/03/2014  05:10:00      -26.828      -27.902        5.805       34.622       19.233       13.842     1198.662      369.927      191.588        0.165        0.088       38.707        9.373        0.059      341.850       16.848      858.045
09/03/2014  05:11:00      -14.458      -18.162        3.343       28.726       13.414       11.246      825.194      179.934      126.465        0.084        0.057       23.214        8.208        0.125      341.923       16.974      858.050
09/03/2014  05:12:00      -28.114      -17.095        1.150       16.005       15.055       12.337      256.153      226.663      152.212        0.086        0.032       32.903        6.163        0.035      341.901       16.935      858.049
09/03/2014  05:13:00      -24.624      -58.372        6.952       33.715       30.316       14.836     1136.673      919.074      220.118        0.317        0.114       63.353       11.924        0.035      341.981       17.072      858.051
09/03/2014  05:14:00      -48.958     -102.581       -5.335       26.315       19.992       15.816      692.457      399.675      250.135        0.714        0.067      113.665       11.200        0.010      342.097       17.269      858.050
09/03/2014  05:15:00      -47.793      -36.214        1.257       23.514       18.166       14.094      552.903      329.998      198.640        0.234        0.054       59.963        6.746        0.013      342.008       17.118      858.053
09/03/2014  05:16:00      -71.981      -48.887        9.543       42.792       31.954       22.558     1831.153     1021.034      508.850        0.551        0.168       87.013       19.221        0.049      341.920       16.967      858.058
09/03/2014  05:17:00     -112.384      -85.422        2.837       66.298       42.065       29.596     4395.483     1769.458      875.938        1.349        0.352      141.163       29.495        0.044      341.707       16.607      858.059
09/03/2014  05:18:00     -147.829     -113.088       -3.098       48.065       47.249       28.522     2310.283     2232.502      813.530        2.000        0.268      186.124       29.353        0.025      341.640       16.491      858.057
09/03/2014  05:19:00     -131.458      -92.332        3.753       53.718       44.744       27.442     2885.598     2002.032      753.088        1.573        0.282      160.643       31.370        0.038      341.593       16.410      858.055
09/03/2014  05:20:00     -171.187      -80.067        0.134       49.717       38.790       27.152     2471.809     1504.646      737.235        2.021        0.236      188.986       25.586        0.018      341.562       16.359      858.042
09/03/2014  05:21:00     -137.822      -77.544        0.025       52.894       35.324       25.905     2797.729     1247.793      671.052        1.486        0.236      158.139       25.868        0.027      341.589       16.406      858.044
09/03/2014  05:22:00     -121.318      -67.041       -3.717       39.378       27.504       20.952     1550.609      756.445      438.984        1.099        0.137      138.609       19.398        0.020      341.611       16.444      858.054
09/03/2014  05:23:00      -92.677      -73.229       -9.251       32.342       32.413       21.779     1046.014     1050.630      474.320        0.830        0.129      118.117       19.294        0.027      341.645       16.500      858.059
09/03/2014  05:24:00      -94.810      -39.271        0.804       39.798       29.703       24.291     1583.909      882.244      590.038        0.679        0.153      102.622       23.675        0.053      341.617       16.454      858.068
09/03/2014  05:25:00      -46.499      -38.329        5.254       35.274       30.106       19.289     1244.249      906.395      372.083        0.309        0.126       60.260       18.050        0.090      341.541       16.325      858.073
09/03/2014  05:26:00       -7.537      -37.465       11.838       26.427       29.030       25.357      698.381      842.751      642.982        0.189        0.109       38.216       24.114        0.398      341.518       16.285      858.077
09/03/2014  05:27:00      -26.633      -15.580       -8.234       14.459       28.517       13.475      209.068      813.214      181.577        0.111        0.060       30.856        7.984        0.067      341.553       16.344      858.080
09/03/2014  05:28:00      -39.600      -18.362        0.188       33.837       17.144       11.438     1144.924      293.907      130.817        0.174        0.078       43.650       10.629        0.059      341.586       16.401      858.085
09/03/2014  05:29:00      -10.658      -40.847        2.196       22.441       13.877       15.368      503.612      192.584      236.189        0.136        0.047       42.215        6.860        0.026      341.581       16.391      858.085
09/03/2014  05:30:00     -103.255      -63.110      -17.503       21.149       15.734       12.989      447.268      247.570      168.714        0.791        0.043      121.014        5.822        0.002      341.495       16.247      858.084
09/03/2014  05:31:00      -60.194      -59.943        4.552       42.897       27.813       24.146     1840.182      773.583      583.040        0.522        0.160       84.950       20.973        0.061      341.382       16.054      858.086
09/03/2014  05:32:00     -111.428      -56.625       -6.509       29.226       22.175       17.672      854.149      491.738      312.316        0.866        0.083      124.990       15.024        0.014      341.429       16.135      858.062
09/03/2014  05:33:00      -85.080      -45.948        3.152       30.297       28.465       20.047      917.925      810.244      401.896        0.574        0.107       96.694       18.236        0.036      341.382       16.055      858.054
09/03/2014  05:34:00     -120.434      -38.256      -15.319       19.036       16.809       10.242      362.354      282.558      104.896        0.848        0.037      126.364        7.734        0.004      341.414       16.111      858.055
09/03/2014  05:35:00     -118.999      -37.176        0.280       25.611       21.665       17.163      655.945      469.355      294.563        0.848        0.071      124.671       11.164        0.008      341.366       16.028      858.042
09/03/2014  05:36:00     -118.777      -25.200       -4.404       23.706       23.640       13.506      561.993      558.827      182.412        0.803        0.065      121.421       11.285        0.009      341.345       15.993      858.042
09/03/2014  05:37:00     -111.474      -38.882       -8.819       24.148       23.852       16.953      583.107      568.922      287.414        0.773        0.072      118.061       11.269        0.009      341.333       15.972      858.052
09/03/2014  05:38:00     -124.691      -44.492       -9.661       29.208       27.587       17.992      853.101      761.019      323.713        0.978        0.097      132.391       12.283        0.009      341.344       15.991      858.070
09/03/2014  05:39:00     -138.591      -67.012       -6.867       21.851       19.264       15.579      477.461      371.095      242.698        1.242        0.055      153.941        8.483        0.003      341.318       15.948      858.077
09/03/2014  05:40:00     -142.776      -28.784       -8.550       25.254       24.691       13.074      637.787      609.664      170.923        1.135        0.071      145.649       11.366        0.006      341.257       15.844      858.088
09/03/2014  05:41:00     -144.622      -27.389      -21.569       15.644       18.489       15.744      244.734      341.845      247.860        1.148        0.042      147.193       11.199        0.006      341.196       15.741      858.101
09/03/2014  05:42:00     -131.266      -28.027      -12.146       21.015       20.175       14.876      441.612      407.028      221.283        0.962        0.053      134.225        9.077        0.005      341.072       15.530      858.116
09/03/2014  05:43:00     -119.765      -43.428       -9.188       18.934       22.182       11.490      358.509      492.025      132.024        0.865        0.049      127.395        8.195        0.004      341.143       15.652      858.122
09/03/2014  05:44:00     -145.152      -28.924      -14.850       28.631       22.592       20.482      819.742      510.398      419.515        1.194        0.087      148.006       17.634        0.014      341.148       15.660      858.137
09/03/2014  05:45:00     -156.307      -19.721      -13.844       37.894       26.563       22.663     1435.922      705.589      513.594        1.383        0.133      157.546       21.440        0.019      340.999       15.407      858.158
09/03/2014  05:46:00     -104.474      -19.620        2.665       50.220       27.042       24.623     2522.080      731.289      606.314        0.758        0.193      106.300       26.468        0.062      340.931       15.293      858.169
09/03/2014  05:47:00     -115.250      -22.415       -2.903       44.131       29.195       18.514     1947.575      852.345      342.775        0.847        0.157      117.409       20.738        0.031      340.881       15.207      858.174
09/03/2014  05:48:00     -102.220      -21.443        1.966       27.204       28.253       19.061      740.074      798.224      363.332        0.641        0.095      104.445       16.364        0.025      341.061       15.511      858.187
09/03/2014  05:49:00      -99.781      -18.329       -4.249       34.108       31.329       20.837     1163.381      981.513      434.189        0.644        0.129      101.451       17.162        0.029      341.041       15.479      858.201
09/03/2014  05:50:00     -167.493       -1.206      -13.811       41.544       31.133       25.740     1725.881      969.244      662.550        1.580        0.168      167.497       16.944        0.010      340.922       15.276      858.207
09/03/2014  05:51:00     -149.607      -59.823       -6.987       41.926       45.322       25.364     1757.801     2054.051      643.350        1.523        0.223      161.125       23.762        0.022      341.025       15.451      858.209
09/03/2014  05:52:00     -146.262      -39.510      -10.417       31.543       23.692       19.282      994.946      561.311      371.783        1.249        0.096      151.505       12.768        0.007      340.968       15.355      858.217
09/03/2014  05:53:00      -99.081      -10.232       -5.939       47.856       28.013       15.431     2290.175      784.726      238.125        0.663        0.166       99.608       22.242        0.050      340.938       15.306      858.201
09/03/2014  05:54:00     -105.272       30.547      -10.646       37.972       21.711       14.032     1441.888      471.380      196.909        0.712        0.106      109.615        7.106        0.004      340.892       15.226      858.197
09/03/2014  05:55:00      -71.496       19.255       -6.676       30.391       19.666       12.548      923.604      386.754      157.455        0.350        0.073       74.044        8.262        0.012      341.054       15.502      858.196
09/03/2014  05:56:00      -42.402      -17.436       -8.706       17.343       18.736       10.139      300.781      351.051      102.806        0.147        0.038       45.847        6.278        0.019      341.160       15.681      858.195
09/03/2014  05:57:00      -14.505      -31.585      -18.176       25.508       13.247       12.749      650.680      175.482      162.530        0.126        0.049       34.757       10.085        0.084      341.322       15.954      858.202
09/03/2014  05:58:00        9.294      -13.909       -6.087       13.333       11.751        9.430      177.758      138.076       88.916        0.036        0.020       16.728        6.961        0.173      341.187       15.725      858.216
09/03/2014  05:59:00      -24.506      -18.259        3.380       23.005       12.706       12.129      529.226      161.452      147.122        0.089        0.042       30.560       11.251        0.136      341.181       15.716      858.230
09/03/2014  06:00:00      -66.304      -23.067      -17.086        9.426       11.480        8.203       88.840      131.802       67.291        0.275        0.014       70.202        4.103        0.003      341.297       15.912      858.226
09/03/2014  06:01:00      -87.127      -31.253       -6.544       29.304       14.992       13.095      858.715      224.769      171.491        0.493        0.063       92.563       14.134        0.023      341.229       15.797      858.238
09/03/2014  06:02:00       10.820      -29.688       15.475       34.446       27.230       21.447     1186.495      741.484      459.976        0.181        0.119       31.598       14.437        0.209      341.162       15.683      858.254
09/03/2014  06:03:00      -62.692      -78.857        1.611       24.615       28.940       18.295      605.906      837.524      334.711        0.596        0.089      100.741       14.040        0.019      341.122       15.616      858.254
09/03/2014  06:04:00      -99.788      -44.875       -7.827       29.989       34.650       15.487      899.321     1200.656      239.857        0.719        0.117      109.414       13.392        0.015      341.177       15.708      858.257
09/03/2014  06:05:00     -117.230      -30.053       -8.546       34.599       26.893       21.378     1197.068      723.252      457.038        0.855        0.119      121.021       20.315        0.028      341.129       15.627      858.264
09/03/2014  06:06:00     -117.151      -45.627       -8.203       42.779       26.797       17.903     1830.026      718.064      320.515        0.937        0.143      125.723       17.347        0.019      340.935       15.299      858.252
09/03/2014  06:07:00      -37.946      -60.963       -3.745       20.469       25.395       19.060      418.975      644.895      363.293        0.330        0.071       71.808       16.322        0.052      341.064       15.517      858.245
09/03/2014  06:08:00      -82.185      -32.311       -8.527       20.275       17.957        8.821      411.063      322.470       77.807        0.434        0.041       88.308        2.465        0.001      341.257       15.845      858.254
09/03/2014  06:09:00      -53.713      -20.598       -6.632       20.158       11.389       11.736      406.344      129.711      137.732        0.201        0.034       57.527       13.051        0.051      341.397       16.080      858.263
09/03/2014  06:10:00      -45.557        3.805       -9.934       18.951       28.769       13.271      359.122      827.662      176.107        0.178        0.068       45.716       15.049        0.108      341.489       16.238      858.272
09/03/2014  06:11:00       -6.541      -37.850       -4.180       19.486       25.619       15.941      379.697      656.309      254.125        0.139        0.065       38.411       12.122        0.100      341.275       15.877      858.280
09/03/2014  06:12:00        5.282      -27.395       18.202       26.772       18.721       23.237      716.721      350.487      539.954        0.136        0.080       27.900       19.712        0.499      341.107       15.591      858.299
09/03/2014  06:13:00      -88.835      -91.843       -5.590       44.490       39.500       22.859     1979.336     1560.247      522.517        1.021        0.203      127.776       19.881        0.024      341.144       15.652      858.308
09/03/2014  06:14:00      -79.899      -66.599       -6.710       47.704       29.651       24.776     2275.653      879.160      613.839        0.732        0.188      104.016       19.371        0.035      341.023       15.447      858.324
09/03/2014  06:15:00      -83.668      -98.140      -10.846       26.808       20.004       13.491      718.663      400.177      182.018        0.902        0.065      128.964        9.884        0.006      341.058       15.509      858.335
09/03/2014  06:16:00      -81.262     -135.865       -6.074       36.558       41.355       25.407     1336.503     1710.258      645.538        1.440        0.185      158.313       18.446        0.014      341.037       15.471      858.344
09/03/2014  06:17:00     -116.606     -115.797      -14.864       36.077       36.868       23.536     1301.529     1359.262      553.945        1.522        0.161      164.335       17.106        0.011      341.042       15.480      858.355
09/03/2014  06:18:00     -133.708      -89.714      -11.832       34.165       34.915       25.178     1167.265     1219.086      633.947        1.454        0.151      161.016       18.488        0.013      341.027       15.457      858.363
09/03/2014  06:19:00     -108.367      -65.186       -0.639       43.817       32.102       25.080     1919.948     1030.514      629.002        0.979        0.179      126.462       22.053        0.030      340.977       15.371      858.376
09/03/2014  06:20:00      -60.598      -61.214        6.034       37.673       41.717       20.809     1419.262     1740.289      432.998        0.552        0.180       86.135       14.099        0.027      340.975       15.366      858.396
09/03/2014  06:21:00      -73.794      -83.181       -2.823       46.556       38.896       26.421     2167.430     1512.876      698.054        0.837        0.219      111.196       25.612        0.053      340.940       15.306      858.408
09/03/2014  06:22:00      -84.423      -91.899      -12.809       43.701       49.125       25.039     1909.797     2413.259      626.975        1.034        0.248      124.790       20.118        0.026      340.927       15.286      858.413
09/03/2014  06:23:00      -62.929      -40.182        9.210       51.162       42.774       27.862     2617.601     1829.603      776.289        0.544        0.261       74.663       26.476        0.126      340.794       15.059      858.405
09/03/2014  06:24:00     -137.882      -94.100       -3.760       55.411       36.944       26.664     3070.429     1364.853      710.961        1.651        0.257      166.932       26.536        0.025      340.748       14.982      858.401
09/03/2014  06:25:00     -134.670     -101.090       -9.934       40.371       40.693       25.925     1629.794     1655.952      672.096        1.621        0.198      168.390       14.747        0.008      340.726       14.946      858.400
09/03/2014  06:26:00     -136.532     -109.833       -1.002       70.181       48.535       32.092     4925.426     2355.602     1029.922        1.951        0.416      175.227       36.761        0.044      340.636       14.792      858.414
09/03/2014  06:27:00     -138.256     -131.250       -6.661       40.402       56.045       33.105     1632.324     3141.042     1095.933        2.113        0.293      190.634       25.384        0.018      340.631       14.784      858.417
09/03/2014  06:28:00     -188.339     -107.652      -11.652       67.483       47.530       32.932     4553.903     2259.090     1084.486        2.755        0.395      216.934       19.697        0.008      340.695       14.892      858.414
09/03/2014  06:29:00     -168.849      -93.296       -1.320       63.866       49.220       35.359     4078.904     2422.639     1250.233        2.248        0.388      192.910       31.768        0.027      340.736       14.960      858.421
09/03/2014  06:30:00     -146.094      -78.911       -0.147       72.861       51.305       38.207     5308.729     2632.167     1459.790        1.848        0.470      166.043       41.796        0.063      340.725       14.944      858.430
09/03/2014  06:31:00     -153.729      -66.609       -7.086       45.326       42.459       28.666     2054.418     1802.744      821.737        1.640        0.234      167.539       25.066        0.022      340.777       15.032      858.448
09/03/2014  06:32:00     -162.006      -56.646      -21.748       37.234       45.091       19.570     1386.341     2033.209      382.991        1.686        0.190      171.624       17.580        0.010      340.776       15.030      858.473
09/03/2014  06:33:00     -124.801      -50.436       -5.351       61.597       42.254       23.068     3794.193     1785.361      532.122        1.213        0.306      134.608       18.930        0.020      340.772       15.024      858.485
09/03/2014  06:34:00      -90.122      -82.269        0.627       65.320       35.512       24.412     4266.654     1261.088      595.938        1.051        0.306      122.025       23.821        0.038      340.786       15.047      858.486
09/03/2014  06:35:00     -101.879     -110.227       -3.819       53.971       39.813       30.897     2912.827     1585.045      954.655        1.400        0.273      150.097       28.699        0.037      340.725       14.944      858.514
09/03/2014  06:36:00     -122.122     -101.445        4.920       65.531       38.847       31.788     4294.372     1509.073     1010.467        1.602        0.341      158.761       33.527        0.045      340.673       14.856      858.533
09/03/2014  06:37:00     -140.934      -98.637       -2.900       41.202       36.418       26.997     1697.591     1326.290      728.855        1.668        0.188      172.023       24.592        0.020      340.659       14.833      858.548
09/03/2014  06:38:00      -88.738      -63.366        9.234       51.019       39.990       27.310     2602.891     1599.187      745.838        0.846        0.247      109.040       21.688        0.040      340.580       14.699      858.572
09/03/2014  06:39:00      -63.446      -52.147        5.899       53.896       32.855       25.040     2904.786     1079.430      627.005        0.569        0.231       82.126       25.102        0.093      340.578       14.695      858.592
09/03/2014  06:40:00      -72.165      -82.115        4.572       40.406       34.974       24.448     1632.620     1223.166      597.698        0.771        0.173      109.319       22.948        0.044      340.606       14.742      858.594
09/03/2014  06:41:00      -76.703      -91.603        1.845       40.989       32.857       22.373     1680.119     1079.555      500.567        0.877        0.163      119.476       12.051        0.010      340.632       14.787      858.592
09/03/2014  06:42:00      -86.915      -58.035        1.422       53.642       25.311       26.522     2877.498      640.623      703.421        0.757        0.211      104.510       28.920        0.077      340.608       14.746      858.606
09/03/2014  06:43:00      -95.164      -51.506        2.822       44.091       29.252       28.821     1944.055      855.671      830.622        0.767        0.182      108.209       28.548        0.070      340.589       14.713      858.624
09/03/2014  06:44:00     -147.069      -30.578      -20.271       29.602       28.585       19.313      876.289      817.092      373.000        1.252        0.103      150.214       15.520        0.011      340.591       14.717      858.630
09/03/2014  06:45:00     -171.911      -33.323      -18.052       25.100       33.117       19.886      630.005     1096.736      395.441        1.656        0.106      175.111       11.777        0.005      340.607       14.745      858.639
09/03/2014  06:46:00     -192.254      -15.425      -15.664       35.687       26.075       26.059     1273.578      679.910      679.065        2.004        0.132      192.872       24.293        0.016      340.467       14.506      858.654
09/03/2014  06:47:00     -171.893      -70.464       -8.344       44.662       49.448       30.252     1994.728     2445.115      915.165        1.997        0.268      185.775       25.892        0.019      340.426       14.436      858.661
09/03/2014  06:48:00     -120.260      -92.889      -12.469       45.925       38.295       31.482     2109.094     1466.507      991.147        1.391        0.228      151.957       21.312        0.020      340.390       14.377      858.668
09/03/2014  06:49:00     -143.794      -85.007       -8.396       74.494       45.431       27.138     5549.299     2063.976      736.460        1.816        0.417      167.042       31.800        0.036      340.362       14.330      858.672
09/03/2014  06:50:00     -131.323      -79.073       -5.079       55.096       39.390       25.690     3035.595     1551.562      659.965        1.438        0.262      153.292       27.373        0.032      340.329       14.274      858.693
09/03/2014  06:51:00     -132.958      -64.769       -7.931       28.168       33.051       21.826      793.410     1092.354      476.380        1.215        0.118      147.895       12.806        0.007      340.388       14.374      858.701
09/03/2014  06:52:00     -107.750      -56.888      -10.384       41.943       30.585       18.652     1759.251      935.420      347.905        0.900        0.152      121.845       17.094        0.020      340.494       14.553      858.713
09/03/2014  06:53:00     -142.096      -31.408       -6.409       27.634       22.546       15.195      763.622      508.343      230.888        1.136        0.075      145.525       12.169        0.007      340.490       14.547      858.720
09/03/2014  06:54:00     -124.025      -43.743      -15.371       22.024       20.202       14.113      485.049      408.103      199.188        0.931        0.055      131.513        3.428        0.001      340.526       14.608      858.724
09/03/2014  06:55:00     -115.107      -59.749       -6.128       23.034       20.490       16.445      530.560      419.850      270.428        0.904        0.061      129.691       13.441        0.011      340.571       14.683      858.731
09/03/2014  06:56:00     -108.734      -51.724       -4.342       24.437       25.632       16.165      597.177      657.021      261.303        0.802        0.076      120.410       12.830        0.011      340.622       14.769      858.739
09/03/2014  06:57:00      -47.995      -49.692        1.126       51.987       37.147       24.266     2702.666     1379.909      588.861        0.472        0.234       69.086       28.221        0.167      340.731       14.956      858.754
09/03/2014  06:58:00      -52.239      -73.989        0.882       42.827       31.768       28.765     1834.118     1009.218      827.422        0.594        0.184       90.572       25.870        0.082      340.695       14.894      858.776
09/03/2014  06:59:00      -30.983      -49.973        8.906       46.427       39.881       28.989     2155.508     1590.487      840.342        0.406        0.229       58.798       30.324        0.266      340.713       14.923      858.796
09/03/2014  07:00:00      -37.248      -44.575        7.828       43.429       44.153       24.077     1886.095     1949.521      579.722        0.392        0.221       58.089       22.439        0.149      340.760       15.003      858.811
09/03/2014  07:01:00      -75.317      -80.205       -3.439       49.711       35.748       22.321     2471.179     1277.937      498.239        0.818        0.212      110.024       23.478        0.046      340.799       15.069      858.830
09/03/2014  07:02:00      -66.620      -38.017        5.309       52.925       37.011       28.190     2801.102     1369.800      794.701        0.544        0.248       76.705       33.220        0.188      340.797       15.065      858.847
09/03/2014  07:03:00      -49.459      -64.974        9.660       41.377       47.027       23.566     1712.086     2211.500      555.361        0.562        0.224       81.657       16.073        0.039      340.719       14.934      858.857
09/03/2014  07:04:00     -102.643      -89.270       -4.226       36.240       32.577       22.950     1313.373     1061.260      526.695        1.071        0.145      136.032       17.619        0.017      340.779       15.036      858.862
09/03/2014  07:05:00      -56.889      -50.963        8.093       45.471       42.644       29.412     2067.646     1818.471      865.063        0.532        0.238       76.377       25.201        0.109      340.851       15.158      858.869
09/03/2014  07:06:00      -49.784      -69.262        2.783       55.544       39.905       29.242     3085.156     1592.417      855.117        0.641        0.277       85.298       29.807        0.122      340.822       15.107      858.879
09/03/2014  07:07:00      -79.418      -60.761        7.114       55.417       48.656       26.146     3071.015     2367.395      683.598        0.808        0.306       99.996       30.826        0.095      340.823       15.109      858.890
09/03/2014  07:08:00     -139.835     -126.826       -6.619       41.859       42.712       26.259     1752.185     1824.290      689.549        1.997        0.213      188.782       16.771        0.008      340.865       15.179      858.898
09/03/2014  07:09:00     -135.944      -74.921        1.346       44.045       45.848       24.047     1939.971     2102.020      578.267        1.436        0.231      155.222       16.985        0.012      340.881       15.207      858.896
09/03/2014  07:10:00     -108.635      -73.703        0.231       59.316       43.801       33.499     3518.447     1918.488     1122.201        1.190        0.328      131.277       33.984        0.067      340.966       15.352      858.879
09/03/2014  07:11:00      -88.976      -86.261        4.969       62.522       49.534       37.320     3908.980     2453.597     1392.806        1.157        0.388      123.926       39.298        0.101      340.975       15.367      858.877
09/03/2014  07:12:00     -118.722     -106.995        0.619       50.171       38.697       27.647     2517.115     1497.485      764.377        1.516        0.239      159.822       22.979        0.021      340.965       15.348      858.887
09/03/2014  07:13:00     -141.508      -92.108       -3.811       51.386       27.985       25.286     2640.530      783.133      639.367        1.629        0.203      168.845       27.405        0.026      340.948       15.321      858.897
09/03/2014  07:14:00     -102.219      -67.296        2.184       68.371       37.649       28.790     4674.526     1417.444      828.876        1.095        0.346      122.382       32.638        0.071      340.966       15.352      858.900
09/03/2014  07:15:00     -116.884      -79.635       -4.385       41.376       35.115       30.518     1712.003     1233.033      931.345        1.195        0.194      141.434       25.456        0.032      340.993       15.399      858.918
09/03/2014  07:16:00     -121.399      -85.730      -10.372       36.813       36.716       24.528     1355.229     1348.072      601.634        1.275        0.165      148.618       18.416        0.015      341.021       15.444      858.934
09/03/2014  07:17:00     -101.077     -103.249       -3.383       38.809       32.531       27.848     1506.136     1058.253      775.534        1.211        0.167      144.489       20.694        0.021      340.998       15.406      858.950
09/03/2014  07:18:00      -97.708      -85.298        0.669       50.788       36.090       25.135     2579.447     1302.460      631.768        1.067        0.226      129.702       23.645        0.033      340.988       15.387      858.958
09/03/2014  07:19:00      -57.074      -79.669       -2.310       30.476       39.151       20.129      928.773     1532.811      405.192        0.624        0.143       98.003       13.579        0.019      340.982       15.377      858.960
09/03/2014  07:20:00      -68.286      -69.693        1.844       32.532       34.492       24.470     1058.349     1189.724      598.772        0.618        0.142       97.571       21.942        0.051      341.039       15.477      858.976
09/03/2014  07:21:00      -63.835      -79.468       -5.133       23.032       34.067       16.074      530.471     1160.554      258.360        0.618        0.097      101.931       14.570        0.020      341.045       15.485      858.985
09/03/2014  07:22:00      -61.731      -62.621       -1.982       34.832       26.274       13.820     1213.302      690.339      190.988        0.491        0.105       87.932       11.605        0.017      341.131       15.632      858.978
09/03/2014  07:23:00      -67.443      -78.192       -3.479       32.812       27.430       20.680     1076.610      752.400      427.656        0.647        0.113      103.259       19.518        0.036      341.170       15.697      858.980
09/03/2014  07:24:00      -69.236      -82.429        1.804       43.843       38.858       25.292     1922.247     1509.966      639.689        0.783        0.204      107.648       26.502        0.061      341.170       15.698      858.986
09/03/2014  07:25:00      -80.485      -67.847       -3.495       27.552       18.438       20.387      759.134      339.969      415.650        0.630        0.076      105.266       18.837        0.032      341.210       15.765      858.975
09/03/2014  07:26:00      -74.601      -59.191        4.115       46.257       32.888       21.304     2139.724     1081.599      453.865        0.638        0.184       95.231       22.847        0.058      341.206       15.759      858.975
09/03/2014  07:27:00      -72.636      -59.385       -0.749       47.816       33.549       22.144     2286.370     1125.533      490.373        0.635        0.195       93.822       22.588        0.058      341.327       15.963      858.976
09/03/2014  07:28:00      -99.419      -72.122        3.126       47.000       34.893       26.384     2208.960     1217.515      696.091        0.961        0.206      122.823       25.895        0.044      341.285       15.891      858.983
09/03/2014  07:29:00      -84.836      -69.194        0.537       46.434       35.968       20.789     2156.149     1293.688      432.181        0.793        0.194      109.475       18.396        0.028      341.308       15.931      858.996
09/03/2014  07:30:00      -99.715      -71.002       -7.980       41.065       23.771       24.795     1686.368      565.068      614.785        0.896        0.143      122.411       24.293        0.039      341.372       16.039      858.998
09/03/2014  07:31:00     -100.713      -65.143       -6.355       32.995       32.659       18.475     1088.700     1066.594      341.341        0.846        0.125      119.944       11.441        0.009      341.438       16.149      858.999
09/03/2014  07:32:00      -80.219      -68.068        0.748       39.506       43.121       22.749     1560.742     1859.419      517.537        0.750        0.197      105.206       23.207        0.049      341.493       16.243      858.996
09/03/2014  07:33:00      -84.475      -51.062        2.049       43.091       33.658       22.963     1856.807     1132.840      527.279        0.663        0.176       98.709       23.130        0.055      341.548       16.337      858.997
09/03/2014  07:34:00      -71.407      -59.607       -3.500       43.604       29.228       25.560     1901.338      854.259      653.325        0.604        0.170       93.016       24.862        0.071      341.521       16.290      859.015
09/03/2014  07:35:00      -81.370      -39.853       -3.164       29.735       20.384       13.836      884.171      415.509      191.424        0.485        0.075       90.606       11.383        0.016      341.625       16.467      859.017
09/03/2014  07:36:00      -82.724      -35.959      -13.967       29.911       25.507       18.525      894.672      650.602      343.181        0.511        0.094       90.201       13.692        0.023      341.714       16.619      859.031
09/03/2014  07:37:00      -61.532      -33.260        3.779       32.866       22.930       18.637     1080.152      525.770      347.335        0.343        0.098       69.946       19.812        0.080      341.732       16.650      859.033
09/03/2014  07:38:00      -55.749      -22.718        1.005       40.214       28.867       20.718     1617.133      833.287      429.250        0.325        0.144       60.200       20.517        0.116      341.781       16.732      859.036
09/03/2014  07:39:00      -64.237      -29.004        2.407       50.360       21.121       18.848     2536.124      446.110      355.234        0.415        0.167       70.482       19.603        0.077      341.897       16.929      859.029
09/03/2014  07:40:00      -64.220      -37.652       -9.254       37.793       17.524       16.252     1428.282      307.104      264.131        0.381        0.100       74.443       13.713        0.034      341.934       16.991      859.034
09/03/2014  07:41:00      -24.135      -36.919       13.329       45.918       26.286       20.248     2108.453      690.931      409.975        0.267        0.160       44.108       24.719        0.314      342.050       17.189      859.021
09/03/2014  07:42:00      -84.194      -69.870        0.627       53.936       26.590       20.275     2909.132      707.005      411.084        0.800        0.201      109.409       25.846        0.056      341.985       17.079      859.014
09/03/2014  07:43:00      -59.494      -70.138       -0.436       34.415       36.626       24.498     1184.406     1341.486      600.161        0.579        0.156       91.972       22.216        0.058      341.994       17.094      859.010
09/03/2014  07:44:00      -95.118      -81.120       -0.566       48.024       32.027       24.522     2306.314     1025.708      601.342        0.978        0.197      125.012       20.466        0.027      342.017       17.133      858.998
09/03/2014  07:45:00      -83.901      -76.057        3.220       49.720       36.984       30.063     2472.037     1367.797      903.812        0.879        0.237      113.243       33.099        0.085      342.096       17.267      858.999
09/03/2014  07:46:00      -55.890      -52.271        0.920       26.624       27.661       15.419      708.819      765.107      237.739        0.378        0.086       76.524       16.156        0.045      342.201       17.446      859.006
09/03/2014  07:47:00      -55.580      -34.307        5.213       33.530       30.530       15.030     1124.263      932.104      225.897        0.329        0.114       65.315       15.346        0.055      342.209       17.459      859.001
09/03/2014  07:48:00      -30.785      -40.300        1.922       20.474       33.791       11.202      419.197     1141.842      125.478        0.213        0.084       50.713        9.249        0.033      342.226       17.486      859.006
09/03/2014  07:49:00      -30.792      -68.557        2.532       27.506       19.823       18.604      756.586      392.956      346.101        0.357        0.075       75.155       18.456        0.060      342.221       17.480      859.014
09/03/2014  07:50:00      -44.411      -78.881      -15.253       13.680       14.088       13.302      187.134      198.468      176.947        0.449        0.028       90.524        6.448        0.005      342.209       17.459      859.022
09/03/2014  07:51:00      -38.225      -64.006      -12.112       26.911       15.837       14.667      724.204      250.807      215.134        0.345        0.060       74.552        7.948        0.011      342.250       17.528      859.025
09/03/2014  07:52:00      -21.724      -93.717       -0.327       26.991       29.232       17.669      728.514      854.530      312.200        0.557        0.095       96.202       15.433        0.026      342.285       17.587      859.033
09/03/2014  07:53:00      -38.919      -61.323        1.751       42.226       35.862       24.448     1783.038     1286.114      597.690        0.447        0.183       72.631       16.564        0.052      342.272       17.566      859.032
09/03/2014  07:54:00      -66.701     -110.153      -10.027       36.583       29.609       23.106     1338.313      876.703      533.907        0.972        0.137      128.774       16.495        0.016      342.051       17.189      859.033
09/03/2014  07:55:00      -30.222      -57.930       -8.074       57.799       37.621       21.016     3340.668     1415.334      441.667        0.477        0.260       65.340       17.128        0.069      342.143       17.346      859.033
09/03/2014  07:56:00      -36.403      -56.349       12.468       33.966       48.271       24.293     1153.656     2330.110      590.129        0.436        0.204       67.085       22.787        0.115      342.132       17.328      859.027
09/03/2014  07:57:00      -35.567      -74.043        5.361       35.796       28.036       20.643     1281.352      786.023      426.135        0.463        0.125       82.143       16.080        0.038      342.063       17.211      859.023
09/03/2014  07:58:00      -30.257      -62.327       -2.489       29.462       31.583       23.820      868.024      997.456      567.378        0.362        0.122       69.283       18.284        0.070      342.152       17.362      859.015
09/03/2014  07:59:00      -40.732      -59.690        0.716       27.513       33.329       22.568      756.960     1110.816      509.319        0.380        0.119       72.263       17.580        0.059      342.149       17.354      859.011
09/03/2014  08:00:00      -21.339      -40.115       12.564       17.509       27.117       20.465      306.563      735.311      418.832        0.184        0.073       45.438       18.494        0.166      342.358       17.712      859.007
09/03/2014  08:01:00      -47.956      -52.752        4.300       32.597       34.139       20.613     1062.547     1165.494      424.911        0.388        0.133       71.292       19.075        0.072      342.155       17.367      858.999
09/03/2014  08:02:00      -35.406      -34.619       -4.370       25.325       21.940       20.225      641.359      481.355      409.070        0.200        0.077       49.518       14.380        0.084      342.191       17.426      859.005
09/03/2014  08:03:00      -19.773      -32.297       -5.652       38.528       28.570       19.617     1484.436      816.263      384.813        0.208        0.134       37.869       16.156        0.182      342.414       17.807      859.013
09/03/2014  08:04:00      -33.924      -69.540      -16.078       22.541       20.704       15.286      508.085      428.672      233.654        0.371        0.059       77.373        9.382        0.015      342.377       17.743      859.013
09/03/2014  08:05:00      -37.334      -63.779        2.040       26.812       30.311       22.413      718.894      918.779      502.363        0.380        0.107       73.902       17.504        0.056      342.379       17.747      859.016
09/03/2014  08:06:00      -38.942      -38.713       -5.864       24.181       23.535       20.012      584.717      553.881      400.499        0.229        0.077       54.910       18.031        0.108      342.302       17.615      859.031
09/03/2014  08:07:00      -66.720      -29.715       -1.220       27.367       20.791       14.769      748.966      432.284      218.116        0.337        0.070       73.038       13.665        0.035      342.292       17.599      859.028
09/03/2014  08:08:00      -24.083      -39.155       23.014       26.964       29.011       22.512      727.072      841.623      506.784        0.236        0.104       45.969       15.723        0.117      342.744       18.367      859.034
09/03/2014  08:09:00      -29.952      -26.620        2.259       20.654       21.795       15.227      426.587      475.011      231.848        0.137        0.057       40.072        9.485        0.056      342.650       18.208      859.037
09/03/2014  08:10:00      -18.478       -0.006       16.743       13.872       19.461       18.926      192.440      378.741      358.194        0.078        0.046       18.478       11.874        0.413      342.931       18.686      859.044
09/03/2014  08:11:00      -21.261      -24.791        8.104       25.079       16.046       15.245      628.980      257.487      232.407        0.113        0.056       32.659       12.504        0.147      342.727       18.339      859.045
09/03/2014  08:12:00       24.316       29.338       35.451       25.697       27.500       20.436      660.353      756.245      417.643        0.227        0.092       38.105       16.628        0.190      342.981       18.771      859.043
09/03/2014  08:13:00       17.364       22.513       41.058       27.213       24.057       19.316      740.557      578.726      373.089        0.209        0.085       28.431        6.232        0.048      343.039       18.870      859.040
09/03/2014  08:14:00      -18.493       -0.281        1.780       14.674       15.663       18.731      215.335      245.330      350.866        0.058        0.041       18.495       11.705        0.400      342.895       18.626      859.038
09/03/2014  08:15:00      -18.426       -0.812       22.422       18.672       15.240       18.689      348.634      232.256      349.269        0.089        0.047       18.444       16.826        0.832      343.160       19.078      859.051
09/03/2014  08:16:00      -52.700      -35.462        4.357       32.915       20.313       15.240     1083.415      412.634      232.245        0.289        0.086       63.520       14.878        0.055      342.547       18.034      859.061
09/03/2014  08:17:00      -53.063      -27.813        5.098       39.908       24.649       20.864     1592.651      607.591      435.310        0.312        0.132       59.911       19.693        0.108      342.667       18.238      859.067
09/03/2014  08:18:00      -38.364      -20.685       10.123       33.611       19.874       22.006     1129.726      394.970      484.261        0.201        0.100       43.585       21.903        0.253      342.981       18.772      859.060
09/03/2014  08:19:00      -72.008      -39.631       -5.320       10.874       15.720       11.152      118.252      247.121      124.358        0.364        0.024       82.193        8.297        0.010      342.450       17.867      859.051
09/03/2014  08:20:00      -52.297      -36.077       -1.157       12.826       15.550       12.245      164.512      241.807      149.946        0.230        0.028       63.534       10.777        0.029      342.488       17.933      859.041
09/03/2014  08:21:00      -60.374      -41.050        2.275       24.212       16.745       11.893      586.238      280.411      141.442        0.317        0.050       73.008        6.115        0.007      342.553       18.043      859.038
09/03/2014  08:22:00      -46.267      -17.374        0.391       23.399       25.742       20.881      547.515      662.667      436.026        0.204        0.082       49.421       16.567        0.112      342.719       18.327      859.029
09/03/2014  08:23:00      -22.695       -4.379       21.054       26.600       18.752       15.936      707.538      351.630      253.945        0.115        0.066       23.113       11.444        0.245      342.999       18.804      859.026
09/03/2014  08:24:00      -20.631       11.518       28.869       26.290       24.969       20.831      691.145      623.465      433.912        0.157        0.087       23.628       19.469        0.679      343.063       18.911      859.020
09/03/2014  08:25:00      -37.475      -38.629       -1.315       25.058       21.439       17.258      627.923      459.612      297.831        0.214        0.069       53.820        9.451        0.031      342.692       18.280      859.016
09/03/2014  08:26:00       -6.897      -17.946      -11.059       21.285       45.409       17.988      453.046     2061.984      323.557        0.166        0.142       19.226       14.362        0.558      343.007       18.816      859.025
09/03/2014  08:27:00      -39.852        5.903        8.411       26.645       18.889       15.836      709.951      356.811      250.782        0.151        0.066       40.287       15.676        0.151      342.994       18.794      859.033
09/03/2014  08:28:00      -75.236      -55.465        0.857       28.630       32.899       14.386      819.691     1082.371      206.959        0.542        0.105       93.471       12.659        0.018      342.717       18.321      859.028
09/03/2014  08:29:00      -75.484      -43.074        6.154       29.471       28.153       19.995      868.542      792.583      399.794        0.483        0.103       86.909       16.489        0.036      342.757       18.390      859.029
09/03/2014  08:30:00      -69.383      -18.865        4.243       41.520       31.381       21.949     1723.878      984.776      481.739        0.419        0.160       71.902       25.476        0.126      343.045       18.880      859.032
09/03/2014  08:31:00      -71.139      -39.667        2.398       26.705       24.592       16.319      713.176      604.786      266.300        0.411        0.079       81.450       11.476        0.020      342.825       18.506      859.036
09/03/2014  08:32:00      -42.491      -44.654       -1.821       39.588       35.488       22.924     1567.197     1259.400      525.511        0.358        0.168       61.640       16.965        0.076      342.914       18.657      859.031
09/03/2014  08:33:00      -67.613      -60.044       -0.236       46.026       25.053       21.477     2118.414      627.668      461.252        0.569        0.160       90.426        9.317        0.011      342.846       18.543      859.037
09/03/2014  08:34:00      -46.253      -58.346       -6.152       35.675       25.096       17.327     1272.739      629.823      300.213        0.389        0.110       74.455       13.128        0.031      342.821       18.498      859.041
09/03/2014  08:35:00      -42.440      -53.690       -2.473       35.159       29.652       19.307     1236.173      879.257      372.755        0.359        0.124       68.438       11.158        0.027      342.845       18.539      859.052
09/03/2014  08:36:00      -50.103      -52.874        4.658       22.042       32.342       17.470      485.853     1046.013      305.197        0.358        0.092       72.842       11.551        0.025      342.925       18.676      859.066
09/03/2014  08:37:00      -48.345      -53.088      -10.700       23.804       32.942       18.160      566.610     1085.149      329.771        0.363        0.099       71.802       19.021        0.070      342.879       18.598      859.075
09/03/2014  08:38:00      -84.169      -87.974       -5.376       28.538       32.513       20.006      814.422     1057.066      400.243        0.856        0.114      121.753       13.738        0.013      342.822       18.500      859.086
09/03/2014  08:39:00      -71.737      -53.217       -3.423       36.723       25.872       22.235     1348.610      669.373      494.379        0.525        0.126       89.321       18.352        0.042      342.892       18.620      859.091
09/03/2014  08:40:00      -78.060      -78.521       -5.306       52.008       41.215       26.623     2704.844     1698.681      708.772        0.870        0.256      110.720       31.056        0.079      342.896       18.627      859.090
09/03/2014  08:41:00      -95.962      -92.743      -12.136       48.031       23.000       20.293     2306.991      528.990      411.793        1.060        0.162      133.454       18.152        0.019      342.885       18.608      859.088
09/03/2014  08:42:00      -83.440      -51.439        9.770       42.679       37.701       23.146     1821.457     1421.392      535.716        0.674        0.189       98.021       28.069        0.082      343.089       18.954      859.084
09/03/2014  08:43:00      -86.502      -53.529        2.371       53.324       26.925       21.815     2843.437      724.968      475.892        0.720        0.202      101.725       22.047        0.047      342.986       18.778      859.078
09/03/2014  08:44:00      -63.642      -36.627        5.134       38.079       32.083       23.241     1450.043     1029.309      540.146        0.422        0.151       73.430       16.857        0.053      343.154       19.068      859.084
09/03/2014  08:45:00      -48.041      -41.150       10.085       37.763       35.352       21.053     1426.052     1249.762      443.226        0.361        0.156       63.255       21.741        0.118      343.316       19.341      859.094
09/03/2014  08:46:00      -51.886      -69.646        0.093       39.436       34.790       23.796     1555.179     1210.347      566.248        0.544        0.167       86.849       23.730        0.075      343.164       19.083      859.090
09/03/2014  08:47:00      -70.383      -85.624       -7.844       37.815       33.089       18.934     1429.960     1094.885      358.496        0.761        0.144      110.839       16.104        0.021      343.050       18.889      859.090
09/03/2014  08:48:00      -36.422      -38.607        7.155       33.612       34.205       20.296     1129.775     1169.968      411.909        0.279        0.136       53.076       11.994        0.051      343.320       19.349      859.098
09/03/2014  08:49:00      -39.242      -11.025       23.308       25.459       23.966       20.955      648.164      574.348      439.097        0.193        0.083       40.762       20.385        0.250      343.610       19.844      859.106
09/03/2014  08:50:00      -51.250       -7.095        8.952       28.159       18.090       14.494      792.909      327.260      210.075        0.204        0.067       51.739       12.995        0.063      343.380       19.451      859.127
09/03/2014  08:51:00      -49.670      -70.361       -8.665       43.693       44.567       23.862     1909.122     1986.213      569.379        0.598        0.223       86.127       22.737        0.070      343.343       19.389      859.148
09/03/2014  08:52:00      -94.954      -72.043       -3.925       32.687       29.450       20.874     1068.461      867.324      435.735        0.830        0.119      119.191       21.585        0.033      343.238       19.209      859.155
09/03/2014  08:53:00      -47.134      -57.873        1.583       34.385       32.093       22.557     1182.297     1029.943      508.816        0.415        0.136       74.638       22.298        0.089      343.349       19.398      859.169
09/03/2014  08:54:00      -57.234      -61.630        7.274       38.123       36.787       22.726     1453.399     1353.296      516.485        0.522        0.166       84.107       22.780        0.073      343.377       19.446      859.165
09/03/2014  08:55:00      -46.592      -25.367        2.424       33.092       25.274       23.131     1095.063      638.798      535.027        0.254        0.113       53.050       21.767        0.168      343.563       19.762      859.167
09/03/2014  08:56:00      -76.852      -61.448       -2.180       46.842       35.216       24.199     2194.192     1240.162      585.584        0.685        0.201       98.398       18.304        0.035      343.387       19.463      859.158
09/03/2014  08:57:00      -80.777      -52.579        4.912       51.837       36.527       28.636     2687.072     1334.245      820.011        0.708        0.242       96.382       31.296        0.105      343.450       19.570      859.151
09/03/2014  08:58:00      -72.827      -71.352       -0.613       42.058       39.747       27.461     1768.862     1579.827      754.109        0.725        0.205      101.955       30.956        0.092      343.516       19.684      859.152
09/03/2014  08:59:00      -78.096      -67.725        2.593       54.103       41.680       26.955     2927.123     1737.264      726.547        0.804        0.270      103.372       33.099        0.103      343.577       19.786      859.154
09/03/2014  09:00:00      -50.133      -35.101        9.879       48.158       40.011       26.705     2319.190     1600.848      713.162        0.424        0.232       61.200       26.710        0.190      343.693       19.985      859.147
09/03/2014  09:01:00      -98.225      -94.625      -11.312       29.008       32.883       21.247      841.443     1081.293      451.445        1.055        0.119      136.389       15.547        0.013      343.305       19.324      859.159
09/03/2014  09:02:00     -100.967      -68.901       -1.958       32.425       35.702       21.257     1051.387     1274.633      451.868        0.886        0.139      122.236       17.521        0.021      343.364       19.423      859.177
09/03/2014  09:03:00      -74.761      -61.073        5.903       46.998       39.207       25.160     2208.844     1537.164      633.050        0.687        0.219       96.536       24.208        0.063      343.549       19.739      859.197
09/03/2014  09:04:00      -53.452      -63.770        9.688       32.898       34.946       22.478     1082.278     1221.223      505.257        0.491        0.140       83.209       21.315        0.066      343.512       19.675      859.221
09/03/2014  09:05:00      -79.136      -52.946        2.849       30.406       38.624       17.957      924.532     1491.777      322.470        0.591        0.137       95.214       13.575        0.020      343.415       19.510      859.225
09/03/2014  09:06:00      -50.958      -53.423        8.746       41.751       28.284       24.217     1743.140      800.008      586.441        0.433        0.156       73.829       22.996        0.097      343.531       19.708      859.242
09/03/2014  09:07:00      -66.442      -60.061       10.128       59.880       42.818       25.756     3585.579     1833.408      663.396        0.710        0.304       89.565       31.223        0.122      343.687       19.974      859.257
09/03/2014  09:08:00      -96.061      -63.822       -4.201       40.436       36.952       33.629     1635.066     1365.445     1130.918        0.872        0.207      115.330       14.351        0.015      343.503       19.660      859.265
09/03/2014  09:09:00      -74.283      -33.615       -1.104       28.178       24.428       19.830      793.974      596.730      393.217        0.422        0.089       81.535       13.335        0.027      343.572       19.776      859.278
09/03/2014  09:10:00      -78.885      -49.240       13.092       68.832       41.768       27.141     4737.778     1744.575      736.631        0.802        0.361       92.991       27.126        0.085      343.951       20.425      859.283
09/03/2014  09:11:00     -101.855      -33.871       -2.258       33.458       25.291       17.249     1119.453      639.638      297.538        0.679        0.103      107.339       15.802        0.022      343.490       19.639      859.284
09/03/2014  09:12:00      -73.142      -43.976       -1.036       40.575       27.588       14.822     1646.357      761.108      219.699        0.496        0.131       85.344       18.056        0.045      343.642       19.898      859.291
09/03/2014  09:13:00      -96.526      -78.083        4.074       55.630       49.676       24.012     3094.663     2467.732      576.563        1.078        0.307      124.154       26.958        0.047      343.767       20.110      859.289
09/03/2014  09:14:00      -37.410      -55.179        1.574       41.716       28.479       26.089     1740.238      811.070      680.637        0.384        0.162       66.665       24.942        0.140      343.710       20.014      859.293
09/03/2014  09:15:00      -56.461      -69.460      -11.097       36.867       22.257       20.225     1359.193      495.389      409.057        0.520        0.113       89.513       15.644        0.031      343.587       19.803      859.300
09/03/2014  09:16:00      -76.611      -45.740       -4.824       34.558       43.293       18.632     1194.282     1874.311      347.135        0.570        0.171       89.227       17.727        0.039      343.655       19.920      859.280
09/03/2014  09:17:00      -87.061      -65.854       -0.555       45.946       40.379       26.159     2111.059     1630.439      684.280        0.817        0.221      109.162       29.883        0.075      343.692       19.982      859.276
09/03/2014  09:18:00     -107.280      -94.592       -4.466       38.202       38.795       25.108     1459.363     1505.081      630.420        1.203        0.180      143.026       24.531        0.029      343.688       19.978      859.264
09/03/2014  09:19:00      -97.920      -65.619       -2.621       40.138       35.534       22.031     1611.070     1262.671      485.360        0.863        0.168      117.873       19.315        0.027      343.716       20.024      859.268
09/03/2014  09:20:00      -85.094      -48.842      -10.332       14.180       18.188       11.217      201.060      330.814      125.832        0.520        0.033       98.115        5.426        0.003      343.718       20.027      859.272
09/03/2014  09:21:00      -48.056      -29.124        8.719       35.490       24.874       14.055     1259.530      618.712      197.535        0.265        0.104       56.192       17.321        0.095      344.005       20.519      859.281
09/03/2014  09:22:00      -99.543      -32.228       -2.710       57.195       40.475       23.043     3271.284     1638.237      531.000        0.820        0.272      104.630       26.863        0.066      344.035       20.568      859.292
09/03/2014  09:23:00     -122.052      -47.133      -12.491       46.282       27.672       19.282     2142.005      765.724      371.789        1.028        0.164      130.836       25.954        0.039      343.762       20.102      859.293
09/03/2014  09:24:00      -53.575        2.021        5.009       34.003       19.532       22.708     1156.219      381.495      515.674        0.248        0.103       53.613       24.085        0.202      344.324       21.062      859.301
09/03/2014  09:25:00      -94.046        5.221        1.608       61.795       26.683       25.316     3818.594      711.969      640.900        0.702        0.259       94.191       28.445        0.091      344.133       20.735      859.298
09/03/2014  09:26:00      -64.197      -45.467       -2.981       60.321       26.078       17.772     3638.576      680.076      315.827        0.541        0.232       78.667       27.605        0.123      343.996       20.501      859.287
09/03/2014  09:27:00       -4.123      -40.616        0.465       20.904       26.296       17.202      436.964      691.474      295.904        0.155        0.071       40.825       11.314        0.077      344.267       20.965      859.286
09/03/2014  09:28:00      -59.006      -20.693        5.690       45.996       30.395       23.262     2115.626      923.857      541.138        0.376        0.179       62.529       27.101        0.188      344.415       21.219      859.280
09/03/2014  09:29:00      -28.649       -6.171       22.675       52.319       34.940       26.987     2737.306     1220.833      728.324        0.303        0.234       29.306       32.177        1.205      344.867       21.992      859.279
09/03/2014  09:30:00        0.328      -15.402       11.993       37.169       29.515       27.547     1381.526      871.138      758.823        0.170        0.151       15.405       19.425        1.590      344.768       21.823      859.272
09/03/2014  09:31:00      -53.552      -36.081        7.611       37.724       30.341       20.736     1423.124      920.548      429.975        0.350        0.139       64.573       22.810        0.125      344.381       21.158      859.266
09/03/2014  09:32:00      -48.273      -63.149       -2.753       36.342       38.683       20.908     1320.736     1496.345      437.157        0.479        0.163       79.487       17.888        0.051      344.207       20.864      859.263
09/03/2014  09:33:00      -49.312      -53.021        0.264       38.915       29.069       17.946     1514.374      845.023      322.063        0.396        0.134       72.408       13.160        0.033      344.201       20.853      859.261
09/03/2014  09:34:00      -34.916      -25.427       13.219       24.077       19.103       18.804      579.687      364.933      353.604        0.167        0.065       43.193        8.732        0.041      344.438       21.257      859.266
09/03/2014  09:35:00       24.814       -5.003       41.687       37.382       49.029       37.345     1397.377     2403.845     1394.664        0.379        0.260       25.314       31.891        1.587      345.463       23.012      859.269
09/03/2014  09:36:00       14.869      -29.468       29.060       46.425       61.946       38.978     2155.266     3837.330     1519.261        0.472        0.376       33.007       38.751        1.378      345.201       22.562      859.272
09/03/2014  09:37:00       43.148       50.813       76.704       50.973      100.976       47.847     2598.290    10196.157     2289.362        1.270        0.754       66.661       49.040        0.541      344.665       21.645      859.263
09/03/2014  09:38:00       45.715       81.312       62.990       48.495       51.713       48.779     2351.781     2674.199     2379.358        1.004        0.370       93.282       42.757        0.210      344.808       21.891      859.274
09/03/2014  09:39:00      120.546       97.171       42.225       36.432       30.579       30.982     1327.271      935.082      959.884        1.449        0.161      154.834       14.564        0.009      344.469       21.309      859.275
09/03/2014  09:40:00       99.445       76.346       31.101       30.701       36.218       36.903      942.537     1311.774     1361.818        1.015        0.181      125.371       18.527        0.022      344.734       21.762      859.269
09/03/2014  09:41:00       88.009       52.418       13.947       45.595       38.718       35.507     2078.898     1499.108     1260.758        0.776        0.242      102.437       25.222        0.061      344.934       22.105      859.265
09/03/2014  09:42:00       67.911       65.205       21.549       31.678       34.239       38.382     1003.492     1172.339     1473.168        0.649        0.182       94.147       25.116        0.071      344.932       22.103      859.241
09/03/2014  09:43:00       84.175       74.375       33.623       28.424       26.392       30.417      807.896      696.559      925.169        0.809        0.121      112.326       16.547        0.022      344.719       21.737      859.235
09/03/2014  09:44:00       89.877       69.419       26.541       28.514       41.616       30.447      813.057     1731.879      927.000        0.854        0.174      113.565       29.690        0.068      344.593       21.522      859.223
09/03/2014  09:45:00       11.349      -14.388       18.267       35.614       36.325       33.134     1268.343     1319.473     1097.860        0.218        0.184       18.325       22.091        1.453      345.321       22.769      859.212
09/03/2014  09:46:00       11.155       -6.879       29.781       31.594       39.585       35.933      998.200     1566.966     1291.200        0.246        0.193       13.105       20.641        2.481      345.444       22.979      859.205
09/03/2014  09:47:00       20.217       32.681       66.558       46.775       63.459       31.052     2187.909     4027.017      964.257        0.654        0.359       38.429       30.256        0.620      345.358       22.831      859.194
09/03/2014  09:48:00       48.077      -46.854       32.798       49.260       80.672       50.260     2426.507     6507.897     2526.057        0.852        0.573       67.132       52.519        0.612      345.355       22.826      859.188
09/03/2014  09:49:00       48.639       22.634       54.492       43.819       48.848       38.520     1920.111     2386.146     1483.793        0.582        0.290       53.648       35.612        0.441      345.088       22.370      859.183
09/03/2014  09:50:00       47.927       74.353       71.997       54.794       41.503       43.464     3002.402     1722.466     1889.163        0.981        0.331       88.462       45.060        0.259      344.953       22.139      859.183
09/03/2014  09:51:00      106.277       57.081       29.695       39.492       30.277       33.737     1559.655      916.722     1138.153        0.952        0.181      120.636       22.066        0.033      344.770       21.826      859.171
09/03/2014  09:52:00       48.507       38.382       23.711       37.092       29.296       37.101     1375.849      858.279     1376.452        0.400        0.181       61.855       28.894        0.218      345.434       22.961      859.163
09/03/2014  09:53:00      143.220       99.816       44.183       47.340       38.840       50.256     2241.046     1508.581     2525.710        1.935        0.314      174.572       30.122        0.030      344.916       22.075      859.153
09/03/2014  09:54:00       22.086       62.461       63.062       37.460       40.791       33.864     1403.281     1663.921     1146.760        0.629        0.211       66.251       23.077        0.121      345.265       22.672      859.145
09/03/2014  09:55:00      116.989       78.414       23.313       68.971       55.226       60.173     4757.048     3049.867     3620.816        1.590        0.571      140.838       36.366        0.067      345.306       22.742      859.145
09/03/2014  09:56:00      174.814      112.959       49.461       59.226       53.792       52.836     3507.706     2893.596     2791.644        2.748        0.460      208.134       35.999        0.030      345.118       22.418      859.141
09/03/2014  09:57:00      162.677      106.394       15.579       42.879       44.020       38.454     1838.638     1937.771     1478.748        2.164        0.263      194.380       19.710        0.010      344.698       21.700      859.147
09/03/2014  09:58:00       95.759       64.068       17.139       51.648       41.892       31.776     2667.507     1754.962     1009.727        0.950        0.272      115.215       22.131        0.037      344.769       21.821      859.151
09/03/2014  09:59:00       32.296       -6.752       11.724       33.600       74.850       28.261     1128.980     5602.538      798.699        0.438        0.377       32.994       28.307        0.736      345.001       22.220      859.145
09/03/2014  10:00:00       31.102      -16.203        5.875       44.832       56.031       36.444     2009.908     3139.430     1328.145        0.387        0.324       35.069       34.819        0.986      345.463       23.013      859.139
09/03/2014  10:01:00       11.392       21.317       14.655       26.400       43.698       29.550      696.969     1909.518      873.231        0.214        0.174       24.170       20.691        0.733      345.660       23.349      859.146
09/03/2014  10:02:00       10.588      -18.321       34.876       30.941       64.013       34.449      957.360     4097.601     1186.766        0.395        0.312       21.160       18.865        0.795      345.592       23.233      859.148
09/03/2014  10:03:00       31.418       44.454       74.164       50.050       87.224       52.987     2504.970     7608.078     2807.625        1.069        0.646       54.436       53.455        0.964      345.532       23.130      859.152
09/03/2014  10:04:00      120.700       75.330       28.033       59.338       39.128       49.073     3521.019     1531.010     2408.147        1.424        0.373      142.278       39.067        0.075      345.103       22.394      859.151
09/03/2014  10:05:00      110.185       90.411       55.795       71.174       38.501       50.863     5065.738     1482.344     2587.013        1.628        0.457      142.531       48.263        0.115      345.479       23.037      859.144
09/03/2014  10:06:00      103.314      105.685       77.536       71.773       41.016       60.751     5151.429     1682.297     3690.720        1.919        0.526      147.794       51.423        0.121      345.114       22.412      859.141
09/03/2014  10:07:00       38.770       54.937       44.866       46.670       33.554       46.002     2178.133     1125.844     2116.180        0.598        0.271       67.240       41.774        0.386      345.487       23.052      859.132
09/03/2014  10:08:00       24.475       30.893       66.968       32.839       38.812       24.644     1078.406     1506.349      607.317        0.461        0.160       39.413       22.873        0.337      346.093       24.092      859.128
09/03/2014  10:09:00      102.428       78.062       70.459       76.807       51.184       49.022     5899.385     2619.763     2403.190        1.623        0.546      128.783       47.093        0.134      345.647       23.326      859.116
09/03/2014  10:10:00       66.390       82.533       79.609       61.736       58.362       51.896     3811.391     3406.071     2693.213        1.373        0.496      105.922       44.241        0.174      345.606       23.258      859.121
09/03/2014  10:11:00       76.300       46.373       59.882       50.720       81.278       46.690     2572.548     6606.100     2179.916        1.146        0.568       89.286       48.115        0.290      345.174       22.515      859.118
09/03/2014  10:12:00      101.758      -96.405       -1.802       39.030       51.158       30.545     1523.323     2617.139      932.994        1.236        0.254      140.173       24.304        0.030      345.341       22.803      859.128
09/03/2014  10:13:00       53.068      -15.873       37.103       60.377       54.703       39.099     3645.332     2992.467     1528.708        0.630        0.408       55.391       34.438        0.387      345.794       23.580      859.120
09/03/2014  10:14:00       63.734      -69.743        4.890       43.778       65.017       48.308     1916.545     4227.262     2333.674        0.871        0.424       94.478       39.963        0.179      345.738       23.484      859.133
09/03/2014  10:15:00       78.638     -122.242       -8.827       34.112       40.466       25.616     1163.596     1637.513      656.177        1.233        0.173      145.351       20.623        0.020      345.547       23.156      859.143
09/03/2014  10:16:00       40.413       -7.654       49.108       40.403       56.085       46.905     1632.422     3145.535     2200.102        0.554        0.349       41.131       36.466        0.786      345.946       23.840      859.148
09/03/2014  10:17:00       56.577       -1.603       45.964       60.826       62.752       38.169     3699.860     3937.790     1456.860        0.720        0.455       56.599       39.313        0.482      345.877       23.724      859.155
09/03/2014  10:18:00      139.713       50.726       37.459       83.029       73.232       46.978     6893.764     5362.962     2206.948        1.898        0.723      148.637       38.740        0.068      345.538       23.138      859.149
09/03/2014  10:19:00      124.913       94.944       51.816       58.631       43.723       55.673     3437.541     1911.679     3099.442        1.787        0.422      156.900       33.171        0.045      345.258       22.659      859.156
09/03/2014  10:20:00       27.116       46.688       58.920       40.280       40.548       42.283     1622.445     1644.105     1787.829        0.572        0.253       53.992       25.223        0.218      346.069       24.051      859.150
09/03/2014  10:21:00       18.882        9.179       60.778       39.205       51.328       34.238     1537.052     2634.578     1172.275        0.474        0.267       20.995       29.616        1.990      346.106       24.116      859.143
09/03/2014  10:22:00       43.873       21.593       21.698       38.468       81.690       34.498     1479.753     6673.220     1190.111        0.610        0.467       48.899       28.946        0.350      345.996       23.927      859.134
09/03/2014  10:23:00      136.006       72.701       29.844       43.280       37.759       46.468     1873.194     1425.730     2159.311        1.506        0.273      154.217       26.702        0.030      345.438       22.969      859.132
09/03/2014  10:24:00        0.593      -18.076       28.393       26.074       54.965       20.666      679.875     3021.183      427.071        0.263        0.206       18.085       16.168        0.799      345.783       23.561      859.127
09/03/2014  10:25:00      135.612       69.411       10.597       51.684       42.787       33.947     2671.212     1830.720     1152.408        1.449        0.283      152.343       22.113        0.021      345.695       23.409      859.119
09/03/2014  10:26:00       69.588       69.429        8.201       48.919       49.461       37.479     2393.060     2446.379     1404.708        0.799        0.312       98.300       24.870        0.064      345.768       23.534      859.115
09/03/2014  10:27:00       11.852       53.300        4.094       37.086       47.222       31.654     1375.336     2229.877     1001.994        0.380        0.230       54.602       26.841        0.242      346.132       24.159      859.122
09/03/2014  10:28:00        5.733       11.926       31.177       27.477       37.722       27.343      754.978     1422.933      747.615        0.204        0.146       13.232       20.010        2.287      346.632       25.020      859.118
09/03/2014  10:29:00       30.013      -50.427        7.696       61.489       53.955       36.790     3780.890     2911.157     1353.472        0.577        0.402       58.683       37.822        0.415      346.175       24.233      859.126
09/03/2014  10:30:00      -12.911       21.994        7.267       28.327       19.345       33.142      802.434      374.238     1098.394        0.149        0.114       25.504       24.870        0.951      346.286       24.425      859.117
09/03/2014  10:31:00      -42.296        2.013        5.740       33.091       48.294       26.806     1094.996     2332.263      718.564        0.299        0.207       42.343       21.231        0.251      345.915       23.787      859.116
09/03/2014  10:32:00      -23.103       -1.119        9.791       27.464       33.526       33.802      754.280     1124.009     1142.605        0.183        0.151       23.130       31.372        1.840      345.926       23.808      859.114
09/03/2014  10:33:00       48.316       62.225       66.604       51.917       36.786       42.763     2695.337     1353.232     1828.634        0.826        0.294       78.781       32.918        0.175      346.175       24.234      859.114
09/03/2014  10:34:00      136.695      102.044       68.079       78.553       49.621       55.056     6170.644     2462.277     3031.180        2.270        0.583      170.583       46.975        0.076      345.838       23.653      859.104
09/03/2014  10:35:00       95.139      129.698      103.624       75.807       55.838       68.729     5746.698     3117.835     4723.662        2.510        0.679      160.851       60.687        0.142      345.615       23.270      859.107
09/03/2014  10:36:00       73.977       42.089       23.261       51.313       58.896       44.653     2633.018     3468.725     1993.891        0.794        0.405       85.112       26.423        0.096      345.815       23.615      859.106
09/03/2014  10:37:00      120.601       95.853       57.494       66.129       59.686       64.867     4373.028     3562.404     4207.750        1.959        0.607      154.053       33.167        0.046      345.802       23.592      859.092
09/03/2014  10:38:00      124.778      111.870       62.521       57.638       47.557       46.870     3322.122     2261.627     2196.804        1.989        0.389      167.584       29.216        0.030      345.891       23.744      859.085
09/03/2014  10:39:00       87.517       54.502       24.254       42.764       34.529       36.930     1828.776     1192.274     1363.837        0.780        0.219      103.100       22.561        0.048      345.945       23.837      859.089
09/03/2014  10:40:00       58.527       94.145       18.952       54.145       61.418       42.811     2931.669     3772.127     1832.749        1.059        0.427      110.854       39.549        0.127      346.391       24.605      859.099
09/03/2014  10:41:00       82.089       85.482        7.050       63.284       49.327       41.859     4004.874     2433.157     1752.176        1.114        0.410      118.515       34.595        0.085      346.401       24.621      859.095
09/03/2014  10:42:00       59.303       47.425       17.846       55.902       54.001       42.268     3124.978     2916.081     1786.562        0.695        0.391       75.934       23.092        0.092      346.500       24.792      859.119
09/03/2014  10:43:00       35.354       78.376        8.758       43.905       58.095       37.940     1927.618     3374.980     1439.472        0.710        0.337       85.981       38.731        0.203      346.162       24.212      859.115
09/03/2014  10:44:00       44.175       70.712       66.380       67.961       58.172       50.038     4618.759     3383.950     2503.790        1.093        0.525       83.376       46.470        0.311      346.385       24.594      859.109
09/03/2014  10:45:00       89.420       61.377        0.334       98.053       47.265       40.771     9614.426     2233.998     1662.309        1.263        0.676      108.458       37.199        0.118      345.748       23.500      859.108
09/03/2014  10:46:00       92.772       47.198       18.898       64.242       37.218       37.504     4127.035     1385.210     1406.558        0.905        0.346      104.088       20.914        0.040      346.009       23.949      859.091
09/03/2014  10:47:00       38.190       33.018        8.374       49.939       28.242       26.778     2493.934      797.635      717.065        0.331        0.200       50.484       30.768        0.371      346.138       24.172      859.068
09/03/2014  10:48:00       30.501      -30.759       21.068       36.441       88.100       46.292     1327.940     7761.556     2142.993        0.677        0.562       43.318       56.863        1.723      346.162       24.211      859.046
09/03/2014  10:49:00       26.063      -78.100       13.447       39.200       47.654       34.851     1536.654     2270.865     1214.560        0.599        0.251       82.334       31.481        0.146      346.179       24.240      859.043
09/03/2014  10:50:00       41.637      -11.871       29.919       62.676       73.799       40.513     3928.240     5446.307     1641.273        0.689        0.551       43.296       32.131        0.551      346.580       24.931      859.018
09/03/2014  10:51:00       82.179       -5.994       37.691      102.994      101.350       48.427    10607.748    10271.735     2345.194        1.571        1.161       82.398       46.326        0.316      346.115       24.130      859.020
09/03/2014  10:52:00      110.559       75.652       21.141       75.934       48.215       39.873     5766.037     2324.666     1589.856        1.404        0.484      133.965       36.277        0.073      345.921       23.798      859.008
09/03/2014  10:53:00      138.150       84.646       45.366       91.786       68.023       51.305     8424.626     4627.121     2632.190        2.199        0.784      162.019       45.084        0.077      346.199       24.273      858.995
09/03/2014  10:54:00       88.493       68.419       57.925       64.744       50.306       44.477     4191.748     2530.653     1978.197        1.228        0.435      111.858       37.466        0.112      346.026       23.977      858.972
09/03/2014  10:55:00       84.153      -41.487       34.466       72.080       81.924       55.561     5195.554     6711.561     3087.072        1.249        0.750       93.824       56.298        0.360      346.394       24.609      858.963
09/03/2014  10:56:00       27.136      -51.215       14.075       57.463       52.743       48.761     3301.967     2781.856     2377.656        0.601        0.423       57.960       42.320        0.533      346.526       24.837      858.943
09/03/2014  10:57:00        1.994      -56.590       17.784       38.546       48.803       41.898     1485.815     2381.729     1755.479        0.457        0.281       56.625       35.606        0.395      346.533       24.850      858.937
09/03/2014  10:58:00       16.097      -61.861       25.249       54.616       72.669       39.504     2982.864     5280.765     1560.529        0.727        0.491       63.921       43.837        0.470      346.442       24.695      858.915
09/03/2014  10:59:00       39.704     -143.619       -9.727       68.281       76.389       58.863     4662.227     5835.287     3464.846        1.813        0.698      149.006       42.091        0.080      346.452       24.709      858.898
09/03/2014  11:00:00      105.742      -73.381        7.510       67.719       78.229       75.638     4585.839     6119.793     5721.088        1.652        0.821      128.709       72.143        0.314      346.457       24.717      858.897
09/03/2014  11:01:00      115.111     -121.233      -33.525       56.549       67.536       44.696     3197.810     4561.144     1997.689        1.941        0.488      167.176       28.769        0.030      346.168       24.220      858.892
09/03/2014  11:02:00       79.187      -72.158        8.452       50.055       61.886       54.691     2505.474     3829.831     2991.118        1.044        0.466      107.133       49.830        0.216      346.407       24.633      858.893
09/03/2014  11:03:00       -1.363      -10.812       39.323       54.762       68.062       51.072     2998.852     4632.443     2608.313        0.595        0.512       10.898       42.497       15.206      346.566       24.907      858.869
09/03/2014  11:04:00       35.420      -37.154       26.127       39.731       58.142       40.300     1578.568     3380.530     1624.112        0.495        0.329       51.332       39.658        0.597      346.176       24.236      858.868
09/03/2014  11:05:00       47.880     -131.689       -2.643       31.424       27.276       30.890      987.449      743.964      954.197        1.116        0.134      140.123       19.035        0.018      346.051       24.021      858.851
09/03/2014  11:06:00        1.060      -75.034       -2.927       37.114       56.313       17.614     1377.484     3171.169      310.267        0.525        0.243       75.042       13.024        0.030      345.952       23.850      858.826
09/03/2014  11:07:00      -25.301        0.362        1.177       30.974       20.626       21.684      959.397      425.445      470.199        0.125        0.093       25.304       14.224        0.316      346.534       24.851      858.821
09/03/2014  11:08:00     -138.139      -33.332       -5.692       42.118       41.074       20.784     1773.965     1687.042      431.958        1.206        0.195      142.104       19.569        0.019      346.006       23.944      858.795
09/03/2014  11:09:00      -23.804      -66.150       -6.984       87.523       38.823       28.014     7660.285     1507.218      784.778        0.747        0.498       70.302       23.611        0.113      346.341       24.518      858.769
09/03/2014  11:10:00        9.823      -19.147       14.693       22.002       27.609       31.301      484.106      762.279      979.755        0.145        0.111       21.520       23.259        1.168      346.852       25.398      858.760
09/03/2014  11:11:00      -43.288      -96.542       -7.447       72.158       60.727       26.241     5206.740     3687.748      688.569        1.041        0.479      105.802       24.186        0.052      346.164       24.215      858.741
09/03/2014  11:12:00       37.013       29.145       61.119       73.223       92.394       54.742     5361.559     8536.709     2996.664        1.142        0.845       47.111       61.038        1.679      346.991       25.636      858.727
09/03/2014  11:13:00       94.831       91.598       71.715       77.381       49.534       47.746     5987.830     2453.582     2279.698        1.662        0.536      131.845       37.781        0.082      346.541       24.862      858.722
09/03/2014  11:14:00       66.004       56.790       34.776       44.909       62.927       33.973     2016.790     3959.848     1154.165        0.796        0.357       87.073       33.145        0.145      346.645       25.042      858.701
09/03/2014  11:15:00       53.926      -40.846       30.687       67.800       76.261       61.241     4596.827     5815.711     3750.403        0.984        0.708       67.649       58.226        0.741      346.841       25.379      858.692
09/03/2014  11:16:00      -29.299      -50.468      -10.358       49.794       39.072       16.623     2479.398     1526.636      276.312        0.390        0.214       58.357       17.813        0.093      345.927       23.806      858.678
09/03/2014  11:17:00      -40.982      -29.076        7.530       53.224       35.925       25.466     2832.747     1290.606      648.493        0.368        0.239       50.248       24.039        0.229      346.726       25.181      858.659
09/03/2014  11:18:00       16.953       -3.175       32.161       36.295       33.523       26.767     1317.320     1123.768      716.461        0.224        0.158       17.248       21.246        1.517      347.317       26.199      858.641
09/03/2014  11:19:00       33.512       -1.147       19.936       40.056       73.967       45.411     1604.447     5471.045     2062.145        0.533        0.457       33.532       38.095        1.291      347.158       25.924      858.620
09/03/2014  11:20:00       52.494       84.516       68.953       62.787       61.418       59.363     3942.241     3772.127     3523.920        1.294        0.562       99.491       46.532        0.219      346.744       25.212      858.615
09/03/2014  11:21:00      125.597       57.266       21.243       63.378       54.416       46.329     4016.817     2961.119     2146.403        1.431        0.456      138.036       18.707        0.018      346.726       25.180      858.602
09/03/2014  11:22:00       94.526       82.249       16.712       57.538       45.068       34.978     3310.586     2031.168     1223.432        1.127        0.328      125.300       22.909        0.033      346.558       24.892      858.597
09/03/2014  11:23:00       28.613       43.596        9.156       43.220       32.104       26.374     1868.003     1030.660      695.571        0.320        0.180       52.147       23.171        0.197      346.691       25.122      858.578
09/03/2014  11:24:00       61.358       36.891       22.903       64.689       47.398       26.868     4184.696     2246.529      721.875        0.640        0.358       71.594       11.387        0.025      347.057       25.751      858.550
09/03/2014  11:25:00      108.203       92.517        7.369       41.541       32.319       34.981     1725.629     1044.488     1223.653        1.216        0.200      142.363       21.973        0.024      346.405       24.629      858.553
09/03/2014  11:26:00      -51.914       33.786      -16.514       42.531       29.804       22.500     1808.852      888.297      506.259        0.366        0.160       61.940       15.765        0.065      346.487       24.771      858.527
09/03/2014  11:27:00      -31.575       53.401        7.033       33.743       41.181       31.178     1138.577     1695.901      972.083        0.385        0.190       62.037       31.595        0.259      347.132       25.881      858.506
09/03/2014  11:28:00      -26.623       25.905       -1.968       23.818       29.835       22.937      567.315      890.098      526.094        0.168        0.099       37.147       18.434        0.246      346.853       25.400      858.486
09/03/2014  11:29:00       42.213       46.069       28.053       60.316       54.231       21.527     3638.079     2940.993      463.405        0.587        0.352       62.485       22.076        0.125      347.785       27.007      858.464
09/03/2014  11:30:00       99.654      103.496       97.946       82.999       73.559       52.426     6888.781     5410.991     2748.518        2.264        0.752      143.675       26.596        0.034      347.099       25.822      858.451
09/03/2014  11:31:00       68.218       91.412      108.357       82.900       71.017       55.257     6872.448     5043.468     3053.313        1.986        0.748      114.061       51.911        0.207      346.890       25.462      858.428
09/03/2014  11:32:00       46.397       69.359       71.156       75.188       56.043       43.157     5653.255     3140.835     1862.545        1.134        0.533       83.447       41.359        0.246      346.984       25.624      858.420
09/03/2014  11:33:00      103.320       85.336       60.047       72.006       52.177       48.010     5184.830     2722.437     2304.958        1.589        0.511      134.005       36.937        0.076      346.897       25.474      858.407
09/03/2014  11:34:00      112.367       97.574       -0.033       54.556       43.542       35.958     2976.322     1895.930     1292.956        1.415        0.308      148.819       14.979        0.010      346.865       25.419      858.397
09/03/2014  11:35:00       89.737       52.892       25.523       60.465       62.963       46.559     3655.980     3964.339     2167.755        1.064        0.489      104.165       28.451        0.075      346.532       24.847      858.384
09/03/2014  11:36:00       86.578       79.700       33.642       75.651       62.282       60.058     5723.076     3879.103     3606.918        1.409        0.660      117.676       46.579        0.157      347.110       25.842      858.345
09/03/2014  11:37:00      136.764       98.767       64.422       94.486       62.496       46.820     8927.670     3905.722     2192.069        2.381        0.751      168.699       44.460        0.069      347.011       25.668      858.343
09/03/2014  11:38:00      145.955      117.084       -3.538       48.195       49.714       36.852     2322.748     2471.481     1358.055        2.059        0.308      187.113        7.006        0.001      346.538       24.856      858.334
09/03/2014  11:39:00      115.847       88.678        3.346       61.875       46.898       46.547     3828.457     2199.398     2166.587        1.474        0.410      145.891       19.874        0.019      346.563       24.901      858.343
09/03/2014  11:40:00       25.274       48.346       15.365       49.359       55.599       43.304     2436.275     3091.249     1875.263        0.531        0.370       54.554       30.971        0.322      347.042       25.724      858.331
09/03/2014  11:41:00      -12.165       18.966       15.375       51.868       21.025       28.541     2690.257      442.052      814.578        0.234        0.197       22.532       21.766        0.933      347.259       26.098      858.324
09/03/2014  11:42:00        9.359       13.382       36.770       25.607       26.232       22.267      655.743      688.138      495.824        0.173        0.092       16.330       16.878        1.068      348.067       27.494      858.311
09/03/2014  11:43:00       19.780       11.808       38.566       29.873       22.887       21.963      892.424      523.817      482.383        0.196        0.095       23.036       16.769        0.530      347.836       27.094      858.308
09/03/2014  11:44:00       55.924       70.378       60.190       44.260       43.293       32.596     1958.966     1874.246     1062.505        0.830        0.245       89.892       27.514        0.094      347.100       25.825      858.291
09/03/2014  11:45:00       92.953       68.761       21.689       30.277       28.747       35.918      916.708      826.387     1290.124        0.844        0.152      115.622       18.654        0.026      346.789       25.291      858.288
09/03/2014  11:46:00       45.424       96.805      -20.409       42.512       35.817       30.863     1807.245     1282.863      952.497        0.795        0.202      106.933       17.367        0.026      346.541       24.863      858.279
09/03/2014  11:47:00       76.553       55.293       -5.112       29.055       33.969       27.561      844.180     1153.921      759.591        0.585        0.138       94.433       13.130        0.019      346.968       25.598      858.260
09/03/2014  11:48:00       48.996       47.775       37.851       26.816       22.971       26.401      719.074      527.681      697.013        0.403        0.097       68.434       13.845        0.041      346.759       25.238      858.242
09/03/2014  11:49:00      -46.122       13.886        5.094       69.314       13.294       23.885     4804.474      176.729      570.490        0.395        0.278       48.167       33.271        0.477      346.834       25.365      858.224
09/03/2014  11:50:00      -73.417       25.868       -3.262       42.733       28.108       29.238     1826.129      790.051      854.886        0.477        0.174       77.840       26.209        0.113      346.868       25.427      858.209
09/03/2014  11:51:00      -82.784      -26.647        7.820       67.701       31.731       28.621     4583.399     1006.855      819.150        0.702        0.320       86.967       35.164        0.163      347.260       26.101      858.184
09/03/2014  11:52:00     -122.353      -51.010        0.095       52.929       45.411       27.647     2801.489     2062.138      764.348        1.160        0.281      132.561       22.313        0.028      346.856       25.406      858.173
09/03/2014  11:53:00     -147.108      -50.365       -0.971       58.380       38.302       26.103     3408.167     1467.060      681.388        1.487        0.278      155.491       25.036        0.026      346.857       25.406      858.155
09/03/2014  11:54:00      -34.243      -29.536       21.237       64.076       43.420       37.970     4105.708     1885.338     1441.728        0.496        0.372       45.221       38.099        0.710      347.330       26.221      858.150
09/03/2014  11:55:00     -198.185      -55.396      -14.789       55.052       39.202       29.018     3030.721     1536.822      842.042        2.399        0.270      205.781       22.768        0.012      346.742       25.208      858.134
09/03/2014  11:56:00     -136.531        4.461      -17.658       35.553       34.772       20.626     1263.989     1209.118      425.424        1.093        0.145      136.604       19.717        0.021      346.763       25.244      858.142
09/03/2014  11:57:00     -118.553       -5.296      -23.936       22.996       38.416       13.349      528.834     1475.795      178.188        0.842        0.109      118.671        9.136        0.006      346.520       24.826      858.139
09/03/2014  11:58:00      -78.895       -7.261        0.220       35.605       36.180       26.517     1267.736     1308.992      703.167        0.478        0.164       79.229       20.861        0.069      346.985       25.628      858.124
09/03/2014  11:59:00      -73.931        5.460       -6.047       27.572       18.037       13.502      760.229      325.326      182.305        0.340        0.063       74.132        7.373        0.010      346.800       25.307      858.103
09/03/2014  12:00:00      -19.589      -25.710       -3.567       43.036       50.326       15.184     1852.084     2532.688      230.542        0.284        0.231       32.322       13.172        0.166      347.244       26.073      858.082
09/03/2014  12:01:00        8.415      -34.569       -6.029       39.189       35.146       23.329     1535.811     1235.217      544.252        0.231        0.166       35.579       16.523        0.216      347.257       26.096      858.054
09/03/2014  12:02:00       -0.032      -51.955       20.564       19.082       24.974       21.591      364.121      623.676      466.177        0.229        0.073       51.955       15.837        0.093      347.519       26.548      858.036
09/03/2014  12:03:00       94.867     -179.229      -23.306      107.318      117.334       59.949    11517.243    13767.372     3593.848        3.527        1.444      202.788       73.036        0.130      347.361       26.272      858.021
09/03/2014  12:04:00      193.009     -180.136      -66.019       91.880      118.076       69.019     8441.985    13941.947     4763.638        5.060        1.357      264.010       60.815        0.053      347.159       25.925      857.995
09/03/2014  12:05:00      200.905     -221.765      -75.303       71.146       59.965       36.005     5061.748     3595.761     1296.338        5.258        0.498      299.237       28.894        0.009      346.869       25.423      858.005
09/03/2014  12:06:00       94.787     -156.971      -16.659       75.714       79.561       59.552     5732.546     6329.876     3546.488        2.475        0.780      183.370       48.951        0.071      347.055       25.744      858.008
09/03/2014  12:07:00        2.612        6.217       54.356       29.847       71.605       37.533      890.840     5127.333     1408.716        0.521        0.371        6.743       33.667       24.928      347.561       26.620      857.995
09/03/2014  12:08:00       22.027      -51.826       19.019       42.033       47.760       43.485     1766.759     2281.039     1890.939        0.473        0.297       56.313       32.124        0.325      347.679       26.823      857.985
09/03/2014  12:09:00       66.721     -110.613       -9.507       38.123       52.900       34.226     1453.360     2798.418     1171.409        1.110        0.271      129.178       20.018        0.024      347.338       26.235      857.964
09/03/2014  12:10:00       55.059        0.520       44.337       61.463       69.305       55.276     3777.653     4803.250     3055.470        0.831        0.582       55.061       46.058        0.700      347.850       27.119      857.945
09/03/2014  12:11:00       60.426      -12.321       35.346       41.525       42.647       41.611     1724.338     1818.727     1731.491        0.516        0.264       61.670       37.942        0.379      347.509       26.530      857.953
09/03/2014  12:12:00       45.906       -1.981       49.673       51.893       55.838       40.962     2692.867     3117.879     1677.854        0.603        0.374       45.948       38.446        0.700      347.519       26.547      857.931
09/03/2014  12:13:00       25.830      -14.769       40.502       39.963       48.860       44.751     1597.019     2387.312     2002.639        0.426        0.299       29.755       29.104        0.957      347.529       26.565      857.911
09/03/2014  12:14:00       50.932       16.276       46.519       53.096       45.866       34.673     2819.207     2103.705     1202.246        0.557        0.306       53.469       26.756        0.250      347.649       26.771      857.893
09/03/2014  12:15:00       21.573       -1.413       47.715       46.890       50.798       35.320     2198.646     2580.435     1247.485        0.438        0.301       21.619       29.322        1.840      347.812       27.053      857.877
09/03/2014  12:16:00       16.440       -0.352       62.816       43.032       59.002       35.437     1851.713     3481.214     1255.755        0.540        0.329       16.444       27.600        2.817      348.021       27.413      857.858
09/03/2014  12:17:00       35.352       77.707       92.890       61.198       60.614       47.186     3745.248     3674.035     2226.479        1.278        0.482       85.370       36.219        0.180      347.588       26.666      857.838
09/03/2014  12:18:00       60.922       80.054       69.739       67.057       58.524       54.134     4496.599     3425.115     2930.454        1.292        0.543      100.599       40.684        0.164      347.475       26.472      857.825
09/03/2014  12:19:00       53.416       45.215       89.791       68.037      109.146       62.870     4628.977    11912.758     3952.574        1.672        1.025       69.984       68.953        0.971      347.571       26.636      857.818
09/03/2014  12:20:00        1.796      -18.526       26.436       31.629       57.776       38.751     1000.386     3338.040     1501.626        0.344        0.292       18.613       37.451        4.048      347.635       26.748      857.804
09/03/2014  12:21:00        4.956      -88.620      -15.287       44.460       53.577       34.689     1976.711     2870.489     1203.359        0.708        0.303       88.758       21.609        0.059      347.747       26.939      857.791
09/03/2014  12:22:00       43.070      -25.584       25.430       51.624       79.240       52.006     2665.038     6278.961     2704.623        0.740        0.582       50.095       52.735        1.108      347.789       27.013      857.793
09/03/2014  12:23:00       49.552       36.346       68.441       64.392       85.990       47.141     4146.287     7394.253     2222.245        1.111        0.688       61.452       49.260        0.643      347.564       26.624      857.775
09/03/2014  12:24:00       68.090       55.727       11.243       81.368       87.180       61.415     6620.770     7600.310     3771.786        1.293        0.900       87.987       56.792        0.417      347.685       26.834      857.765
09/03/2014  12:25:00       89.379       85.962       14.677       88.363       56.432       49.778     7808.090     3184.566     2477.872        1.453        0.674      124.008       33.912        0.075      347.758       26.959      857.763
09/03/2014  12:26:00      153.519      103.533       17.287       45.291       40.707       27.497     2051.307     1657.045      756.062        1.952        0.223      185.168       15.672        0.007      347.091       25.809      857.775
09/03/2014  12:27:00      151.577      100.557       23.394       64.608       67.713       47.130     4174.190     4585.032     2221.243        2.231        0.549      181.900       41.657        0.052      347.450       26.426      857.751
09/03/2014  12:28:00      123.003      124.150       12.707       47.150       39.443       35.074     2223.101     1555.787     1230.180        1.786        0.250      174.766       23.569        0.018      347.273       26.122      857.737
09/03/2014  12:29:00       86.575       69.858        3.975       33.575       32.820       33.614     1127.269     1077.185     1129.917        0.786        0.167      111.245       21.004        0.036      347.294       26.160      857.744
09/03/2014  12:30:00       13.448       51.268        0.535       24.932       28.115       30.997      621.589      790.465      960.800        0.259        0.119       53.002       16.083        0.092      347.461       26.447      857.740
09/03/2014  12:31:00       27.901       49.412       14.959       35.316       39.868       34.382     1247.191     1589.477     1182.116        0.373        0.201       56.745       27.433        0.234      347.607       26.700      857.714
09/03/2014  12:32:00      -19.420       70.718       20.341       34.256       44.411       36.084     1173.489     1972.294     1302.059        0.512        0.222       73.336       30.311        0.171      347.683       26.830      857.682
09/03/2014  12:33:00        1.481        1.299        6.527       44.365       42.482       40.106     1968.237     1804.733     1608.525        0.271        0.269        1.970       22.339      128.568      347.906       27.216      857.670
09/03/2014  12:34:00       -2.976      -85.909       -4.310       48.514       65.673       31.905     2353.656     4312.972     1017.897        0.754        0.384       85.960       15.845        0.034      347.556       26.611      857.658
09/03/2014  12:35:00      -66.481     -134.397      -18.570       57.614       42.283       28.532     3319.411     1787.890      814.063        1.437        0.296      149.940       19.670        0.017      347.215       26.023      857.639
09/03/2014  12:36:00      -46.488      -78.831       -3.466       68.118       51.631       39.645     4640.042     2665.776     1571.699        0.863        0.444       91.517       41.307        0.204      347.584       26.659      857.602
09/03/2014  12:37:00        6.395      -89.978      -19.305       46.054       54.229       31.349     2120.928     2940.737      982.771        0.728        0.302       90.205       30.833        0.117      347.481       26.482      857.592
09/03/2014  12:38:00       16.480       61.573        6.814       59.540       49.907       29.613     3544.952     2490.673      876.943        0.551        0.346       63.741       12.522        0.039      347.851       27.120      857.575
09/03/2014  12:39:00       88.219       59.600       24.549       41.664       36.913       37.463     1735.891     1362.556     1403.448        0.822        0.225      106.465       23.895        0.050      347.676       26.818      857.547
09/03/2014  12:40:00       51.378      -34.868       -9.656       53.422       52.570       31.237     2853.931     2763.607      975.747        0.527        0.330       62.093       19.065        0.094      347.635       26.747      857.532
09/03/2014  12:41:00      125.544       25.626       34.817       87.843       80.629       55.155     7716.329     6501.010     3042.053        1.744        0.863      128.133       50.615        0.156      347.773       26.985      857.513
09/03/2014  12:42:00       97.232      142.007      149.335      128.809      102.046       91.038    16591.653    10413.431     8287.864        4.360        1.765      172.105       81.384        0.224      347.794       27.018      857.481
09/03/2014  12:43:00      133.152      154.577      138.126       90.858       85.984       93.381     8255.090     7393.278     8720.064        4.253        1.218      204.019       73.751        0.131      347.540       26.580      857.483
09/03/2014  12:44:00      114.600      107.053      118.494       82.867       80.784       59.884     6866.975     6526.095     3586.068        2.780        0.849      156.823       52.748        0.113      347.523       26.551      857.479
09/03/2014  12:45:00       63.769       72.346       99.925       69.726       74.490       52.760     4861.717     5548.706     2783.643        1.624        0.660       96.439       52.081        0.292      347.728       26.909      857.456
09/03/2014  12:46:00      154.548      121.659       53.443       82.717       77.339       73.790     6842.115     5981.280     5445.025        2.990        0.913      196.687       45.251        0.053      347.474       26.468      857.453
09/03/2014  12:47:00      128.580      103.379        9.964       58.718       54.813       42.475     3447.782     3004.448     1804.158        1.779        0.413      164.985       22.048        0.018      347.657       26.784      857.442
09/03/2014  12:48:00       94.612       68.209        3.475       58.886       49.249       43.946     3467.612     2425.422     1931.248        1.072        0.391      116.636       26.397        0.051      347.392       26.329      857.441
09/03/2014  12:49:00      -15.480       42.073      -18.447       41.404       38.773       20.950     1714.297     1503.340      438.888        0.300        0.183       44.831       15.674        0.122      347.423       26.381      857.433
09/03/2014  12:50:00      -52.914       52.261      -19.901       32.374       42.769       21.301     1048.105     1829.168      453.738        0.463        0.167       74.371       15.221        0.042      347.540       26.582      857.405
09/03/2014  12:51:00      -26.196       35.493       15.967       59.853       37.097       41.040     3582.431     1376.208     1684.292        0.442        0.332       44.113       34.692        0.618      348.207       27.735      857.380
09/03/2014  12:52:00      -11.384       42.028        8.901       58.546       55.738       31.540     3427.637     3106.698      994.750        0.475        0.376       43.542       22.362        0.264      348.232       27.778      857.376
09/03/2014  12:53:00       13.341     -114.071      -15.786       49.399      101.835       43.583     2440.235    10370.365     1899.488        1.407        0.736      114.848       31.200        0.074      347.832       27.087      857.373
09/03/2014  12:54:00       38.549     -139.039       -7.972       58.680       68.045       47.193     3443.322     4630.125     2227.199        1.559        0.515      144.284       29.338        0.041      347.804       27.038      857.372
09/03/2014  12:55:00       47.331      -80.389      -10.821       55.180       51.226       34.542     3044.801     2624.066     1193.153        0.784        0.343       93.288       36.276        0.151      347.647       26.768      857.375
09/03/2014  12:56:00       17.870      -39.293        4.088       38.492       51.637       41.311     1481.630     2666.380     1706.558        0.387        0.293       43.165       16.653        0.149      348.098       27.547      857.375
09/03/2014  12:57:00      -20.256      -32.962       19.555       43.410       53.877       34.943     1884.451     2902.752     1221.045        0.394        0.300       38.688       32.583        0.709      348.280       27.861      857.373
09/03/2014  12:58:00      -51.496      -35.182       22.203       54.421       59.302       30.793     2961.682     3516.732      948.199        0.590        0.371       62.367       31.488        0.255      348.438       28.134      857.358
09/03/2014  12:59:00      -22.102     -110.696       11.353       47.110       74.020       34.449     2219.385     5479.025     1186.725        1.088        0.444      112.881       37.818        0.112      347.766       26.974      857.348
09/03/2014  13:00:00      -45.027      -73.575        8.099       65.039       52.104       39.660     4230.113     2714.796     1572.896        0.801        0.426       86.259       43.007        0.249      347.938       27.271      857.348
09/03/2014  13:01:00      -60.699      -41.952        2.139       65.451       42.531       27.896     4283.826     1808.850      778.163        0.616        0.344       73.785       23.134        0.098      347.959       27.309      857.335
09/03/2014  13:02:00      -41.953      -36.890        9.570       49.366       53.693       28.104     2437.008     2882.888      789.863        0.466        0.305       55.865       27.340        0.240      348.198       27.720      857.318
09/03/2014  13:03:00      -94.082      -24.068      -11.752       51.880       74.550       29.554     2691.503     5557.757      873.451        0.934        0.456       97.112       28.724        0.087      347.845       27.111      857.302
09/03/2014  13:04:00      -40.654     -100.929        0.472       45.238       36.572       29.355     2046.479     1337.492      861.691        0.804        0.212      108.809       18.899        0.030      347.667       26.802      857.289
09/03/2014  13:05:00      -61.725      -98.317      -11.721       44.574       30.039       18.755     1986.823      902.355      351.753        0.843        0.162      116.087       13.143        0.013      347.603       26.691      857.265
09/03/2014  13:06:00        6.245        7.988       33.671       44.429       42.025       34.996     1973.972     1766.116     1224.694        0.310        0.248       10.139       36.526       12.977      348.268       27.842      857.243
09/03/2014  13:07:00      -28.459      -12.402       28.731       34.141       23.837       25.626     1165.596      568.196      656.684        0.209        0.120       31.044       19.762        0.405      348.706       28.599      857.238
09/03/2014  13:08:00       -7.116      -82.713       -6.470       24.088       36.422       32.594      580.242     1326.555     1062.376        0.495        0.148       83.019       19.944        0.058      347.831       27.085      857.221
09/03/2014  13:09:00       99.472       32.721       -3.109       46.944       41.680       34.654     2203.779     1737.199     1200.865        0.806        0.257      104.716       22.574        0.046      347.739       26.928      857.206
09/03/2014  13:10:00       70.517       32.700       34.805       62.328       54.411       42.958     3884.738     2960.605     1845.428        0.797        0.435       77.730       30.006        0.149      348.115       27.576      857.199
09/03/2014  13:11:00      123.579       71.982       26.208       62.772       52.525       46.964     3940.266     2758.835     2205.622        1.502        0.445      143.014       28.787        0.041      347.807       27.044      857.192
09/03/2014  13:12:00      132.010       73.290        9.729       76.546       64.508       46.810     5859.240     4161.280     2191.156        1.755        0.611      150.990       31.766        0.044      347.947       27.285      857.186
09/03/2014  13:13:00       15.503       62.509       10.998       72.984       83.595       43.389     5326.671     6988.174     1882.570        0.923        0.710       64.403       45.347        0.496      348.164       27.660      857.180
09/03/2014  13:14:00      -47.330      157.877       -2.646       37.463       66.277       37.468     1403.462     4392.605     1403.867        1.718        0.360      164.819       37.507        0.052      348.066       27.489      857.163
09/03/2014  13:15:00       37.811       93.002       10.986       80.593       63.942       56.917     6495.202     4088.586     3239.542        1.201        0.691      100.395       45.110        0.202      348.547       28.323      857.154
09/03/2014  13:16:00      113.877      102.209        8.977      103.395       73.376       70.124    10690.539     5384.026     4917.425        2.224        1.050      153.019       50.028        0.107      348.325       27.937      857.132
09/03/2014  13:17:00      116.515       56.870       19.581       95.691       87.743       58.931     9156.685     7698.872     3472.816        1.876        1.016      129.653       44.938        0.120      348.254       27.815      857.133
09/03/2014  13:18:00      151.929       76.736       45.822      112.260       87.202       74.917    12602.365     7604.150     5612.605        2.844        1.291      170.208       57.275        0.113      348.279       27.857      857.133
09/03/2014  13:19:00      292.619      130.082       84.091      148.948       91.933       92.651    22185.494     8451.670     8584.180        7.441        1.961      320.230       71.634        0.050      347.993       27.361      857.104
09/03/2014  13:20:00      201.610       84.793       45.525      128.521      105.242       94.033    16517.617    11075.817     8842.187        4.316        1.822      218.715       58.549        0.072      347.820       27.062      857.097
09/03/2014  13:21:00      158.133      107.315      110.337       90.473       75.857       74.690     8185.283     5754.297     5578.574        3.410        0.976      191.109       61.790        0.105      347.992       27.361      857.093
09/03/2014  13:22:00      122.778      144.469      146.614       98.901       99.332       82.713     9781.340     9866.907     6841.461        4.196        1.324      189.594       81.814        0.186      347.811       27.047      857.072
09/03/2014  13:23:00      154.081      112.821       82.686       79.619       83.166       65.458     6339.236     6916.554     4284.688        3.042        0.877      190.970       47.999        0.063      347.997       27.371      857.069
09/03/2014  13:24:00       83.458       90.912       85.675       81.133       77.356       48.909     6582.602     5983.977     2392.068        1.876        0.748      123.411       30.472        0.061      348.096       27.541      857.056
09/03/2014  13:25:00       27.640       83.122      107.142       57.935       75.714       54.337     3356.514     5732.607     2952.530        1.559        0.602       87.597       58.315        0.443      348.309       27.911      857.061
09/03/2014  13:26:00      146.535      103.353       59.160       72.306       76.190       62.953     5228.169     5804.866     3963.098        2.532        0.750      179.317       49.186        0.075      347.924       27.243      857.054
09/03/2014  13:27:00       86.645       40.455       70.377       79.162       93.342       62.149     6266.550     8712.806     3862.524        1.647        0.942       95.624       60.821        0.405      348.280       27.860      857.038
09/03/2014  13:28:00      153.850     -106.616       16.384       81.791       90.312       59.766     6689.831     8156.331     3572.016        2.686        0.921      187.181       53.414        0.081      347.933       27.259      857.046
09/03/2014  13:29:00       18.457       63.712       95.811       43.130       54.464       35.786     1860.172     2966.323     1280.642        0.984        0.305       66.332       37.711        0.323      348.119       27.582      857.059
09/03/2014  13:30:00       28.129      -97.686       22.528       63.772      100.845       41.546     4066.907    10169.664     1726.049        1.340        0.798      101.655       43.542        0.183      348.051       27.465      857.036
09/03/2014  13:31:00       98.053      -72.730        8.508       69.204      106.968       43.358     4789.160    11442.231     1879.906        1.654        0.906      122.082       56.489        0.214      348.005       27.385      857.042
09/03/2014  13:32:00      174.000      126.176       92.353       89.238       77.743       71.472     7963.461     6044.041     5108.219        3.692        0.956      214.933       56.274        0.069      348.110       27.563      857.036
09/03/2014  13:33:00      105.912       99.307      106.702      145.644      101.261       70.841    21212.127    10253.691     5018.436        3.447        1.824      145.187       65.880        0.206      348.407       28.078      857.027
09/03/2014  13:34:00      136.351      191.297       13.447      137.025      104.282       78.352    18775.803    10874.757     6139.114        4.557        1.789      234.917       61.359        0.068      348.484       28.211      857.038
09/03/2014  13:35:00      263.043      199.095       30.051      134.788       83.347       76.468    18167.847     6946.666     5847.299        7.034        1.548      329.894       45.395        0.019      348.220       27.753      857.048
09/03/2014  13:36:00      215.454      168.146       34.436      151.420       89.926       85.539    22928.154     8086.596     7316.921        5.710        1.917      273.302       45.971        0.028      348.011       27.392      857.059
09/03/2014  13:37:00      228.395      155.086       16.651      124.375       74.637       80.365    15469.189     5570.646     6458.600        5.199        1.375      276.072       34.569        0.016      348.016       27.401      857.038
09/03/2014  13:38:00       84.840       72.332       33.689       60.444       45.674       46.470     3653.506     2086.139     2159.487        1.073        0.395      111.489       37.689        0.114      348.133       27.608      857.011
09/03/2014  13:39:00      121.284       97.603       49.459      103.556       71.291       64.007    10723.890     5082.451     4096.929        2.329        0.995      155.679       54.996        0.125      348.399       28.064      856.992
09/03/2014  13:40:00      135.354      102.588       57.484      101.824       90.938       76.611    10368.136     8269.742     5869.169        2.832        1.225      169.839       57.523        0.115      348.363       28.002      856.987
09/03/2014  13:41:00       61.536      -31.723       27.058       82.004       85.808       60.266     6724.582     7362.949     3632.016        1.162        0.886       69.232       59.568        0.740      348.032       27.433      856.969
09/03/2014  13:42:00      136.262      157.519      164.838      131.214      113.025       91.512    17217.121    12774.640     8374.420        5.445        1.918      208.278       77.972        0.140      348.139       27.615      856.936
09/03/2014  13:43:00      162.518      117.364       86.634      104.289       76.827       70.212    10876.242     5902.351     4929.752        3.470        1.085      200.465       70.476        0.124      348.030       27.424      856.935
09/03/2014  13:44:00      113.626      107.449      104.753      123.506      113.155       88.498    15253.624    12803.959     7831.875        3.565        1.794      156.385       89.106        0.325      348.230       27.771      856.913
09/03/2014  13:45:00      158.476       52.813       98.391      106.894       82.764       67.107    11426.291     6849.872     4503.397        3.018        1.139      167.045       61.718        0.137      347.953       27.293      856.908
09/03/2014  13:46:00       90.522       16.051       39.101      118.478       77.838       45.047    14037.045     6058.718     2029.191        1.605        1.106       91.935       41.524        0.204      348.244       27.798      856.881
09/03/2014  13:47:00       24.202        7.059       54.331       55.440       89.412       52.429     3073.574     7994.558     2748.814        0.870        0.691       25.211       49.938        3.924      348.835       28.820      856.857
09/03/2014  13:48:00      115.748     -113.528       19.002       95.665       86.564       56.113     9151.862     7493.403     3148.640        2.322        0.990      162.131       52.538        0.105      348.330       27.945      856.844
09/03/2014  13:49:00      180.584     -218.895      -35.135       72.601       73.950       46.536     5270.892     5468.647     2165.626        4.733        0.645      283.770       44.532        0.025      347.893       27.189      856.816
09/03/2014  13:50:00      159.966     -178.266      -21.377       76.622       96.177       57.965     5870.912     9250.076     3359.920        3.815        0.924      239.516       56.745        0.056      347.985       27.349      856.800
09/03/2014  13:51:00       82.158      -70.040       18.513       85.743       87.170       59.937     7351.860     7598.533     3592.435        1.527        0.927      107.961       44.634        0.171      348.328       27.944      856.800
09/03/2014  13:52:00       29.069       36.903       61.165       56.393       68.482       45.030     3180.193     4689.726     2027.715        0.792        0.495       46.977       31.378        0.446      348.648       28.497      856.800
09/03/2014  13:53:00       87.545       72.146       60.944       98.852       73.277       68.798     9771.776     5369.581     4733.201        1.823        0.994      113.442       38.419        0.115      348.470       28.186      856.789
09/03/2014  13:54:00       39.997       42.522       49.551       57.759       49.906       37.825     3336.152     2490.643     1430.746        0.656        0.363       58.377       23.571        0.163      348.617       28.443      856.785
09/03/2014  13:55:00      141.038      124.443       71.459      137.773       94.976       70.806    18981.264     9020.361     5013.448        3.674        1.651      188.090       85.103        0.205      348.463       28.176      856.775
09/03/2014  13:56:00      285.352      177.271       36.313      122.759       87.247       72.306    15069.688     7612.023     5228.223        7.103        1.395      335.933       41.364        0.015      348.057       27.471      856.769
09/03/2014  13:57:00      121.870       99.415       16.471       77.806       69.262       66.013     6053.733     4797.224     4357.695        2.010        0.760      157.276       41.430        0.069      348.104       27.555      856.773
09/03/2014  13:58:00      139.803      100.606       59.410      138.526       79.665       86.354    19189.467     6346.465     7457.053        3.309        1.650      172.240       18.894        0.012      348.244       27.795      856.751
09/03/2014  13:59:00      196.071      171.151      105.041      165.426       96.195      114.118    27365.808     9253.569    13022.839        6.420        2.482      260.263      100.160        0.148      348.610       28.429      856.702
09/03/2014  14:00:00      228.946      215.320       -0.678      161.720      112.611       74.723    26153.253    12681.151     5583.464        7.159        2.221      314.291       48.567        0.024      348.363       28.002      856.753
09/03/2014  14:01:00       88.305      221.483      -16.429      129.999      144.161       86.192    16899.732    20782.371     7429.034        5.111        2.256      238.438       84.643        0.126      348.175       27.676      856.735
09/03/2014  14:02:00      212.221      129.683       15.754      130.311       91.427       75.323    16980.961     8358.969     5673.532        4.655        1.551      248.708       46.839        0.035      348.402       28.068      856.717
09/03/2014  14:03:00      146.263      146.167        1.896      129.726      109.059       71.102    16828.749    11893.903     5055.442        3.826        1.689      206.779       62.213        0.091      348.344       27.969      856.722
09/03/2014  14:04:00       95.514      115.663        9.833      100.542       72.670       47.418    10108.767     5280.885     2248.513        2.011        0.882      150.003       41.940        0.078      348.221       27.758      856.699
09/03/2014  14:05:00       88.445      102.348      132.953      101.419       93.812       87.744    10285.870     8800.620     7698.924        3.137        1.339      135.269       62.073        0.211      348.279       27.858      856.682
09/03/2014  14:06:00      154.904     -117.782       28.431      114.522      123.741       62.670    13115.250    15311.839     3927.580        3.551        1.618      194.596       80.646        0.172      348.162       27.654      856.646
09/03/2014  14:07:00       75.789     -161.869       13.244       80.652      117.845       62.615     6504.694    13887.417     3920.667        2.821        1.216      178.733       72.464        0.164      348.336       27.956      856.629
09/03/2014  14:08:00       80.645     -186.182       -1.753      102.724       96.379       72.719    10552.263     9288.992     5288.070        3.314        1.256      202.897       64.176        0.100      348.408       28.078      856.600
09/03/2014  14:09:00       88.979       69.021       73.515       93.432      102.039       67.230     8729.501    10411.870     4519.822        2.087        1.183      112.610       47.990        0.182      348.594       28.401      856.617
09/03/2014  14:10:00      196.169      151.745      190.456      142.965      138.250      101.008    20439.115    19112.946    10202.587        7.376        2.488      248.009      104.371        0.177      348.265       27.831      856.624
09/03/2014  14:11:00      119.110      125.365      176.346      121.408      139.622       91.916    14739.791    19494.286     8448.615        5.183        2.134      172.927       93.733        0.294      348.450       28.151      856.609
09/03/2014  14:12:00      208.845      111.275       87.575      145.285      154.567       86.120    21107.794    23891.018     7416.601        5.803        2.621      236.639       73.490        0.096      348.442       28.137      856.608
09/03/2014  14:13:00      341.908      202.890       47.792      161.085      118.136      105.813    25948.454    13956.159    11196.432       10.571        2.555      397.574       78.442        0.039      348.426       28.109      856.629
09/03/2014  14:14:00      346.350      221.310       44.711      131.806      102.854       94.958    17372.786    10579.046     9017.024       10.394        1.848      411.019       64.988        0.025      348.030       27.425      856.635
09/03/2014  14:15:00      230.588      162.265       84.066      121.372       94.893       82.307    14731.165     9004.758     6774.485        5.853        1.526      281.958       61.141        0.047      348.248       27.802      856.619
09/03/2014  14:16:00      158.149      126.497       79.032      107.947       70.320       80.188    11652.491     4944.832     6430.145        3.514        1.151      202.515       58.098        0.082      348.437       28.129      856.630
09/03/2014  14:17:00       97.356       64.765       55.012       89.147       82.029       76.826     7947.138     6728.736     5902.256        1.863        1.029      116.931       64.661        0.306      348.704       28.594      856.623
09/03/2014  14:18:00       77.685       74.492       31.492       77.674       65.948       62.522     6033.179     4349.182     3909.061        1.343        0.715      107.629       17.983        0.028      348.577       28.374      856.617
09/03/2014  14:19:00      220.612      144.106       41.542      121.038       82.159       81.837    14650.191     6750.171     6697.372        4.962        1.405      263.508       58.202        0.049      348.413       28.088      856.609
09/03/2014  14:20:00      342.309      213.078       19.210       94.971       97.018       72.658     9019.453     9412.515     5279.149        9.332        1.186      403.209       49.816        0.015      348.185       27.694      856.601
09/03/2014  14:21:00      176.808      136.740       23.322       77.143       58.293       50.879     5951.080     3398.040     2588.684        3.122        0.597      223.515       27.295        0.015      348.051       27.462      856.608
09/03/2014  14:22:00      208.727      131.552       14.044       92.913       63.615       54.237     8632.806     4046.823     2941.613        3.834        0.781      246.724       46.704        0.036      348.124       27.587      856.588
09/03/2014  14:23:00      106.044       98.206       13.116       80.216       58.034       48.599     6434.555     3367.919     2361.876        1.661        0.608      144.533       40.934        0.080      348.393       28.055      856.578
09/03/2014  14:24:00       -2.935       92.482      -14.404       30.267       56.197       27.936      916.086     3158.129      780.419        0.681        0.243       92.529       20.939        0.051      348.217       27.753      856.563
09/03/2014  14:25:00       91.927       82.201       39.568       77.845       61.014       49.604     6059.867     3722.677     2460.591        1.451        0.612      123.319       38.495        0.097      348.514       28.264      856.543
09/03/2014  14:26:00      178.251      122.847        6.197       72.617       63.979       50.384     5273.272     4093.249     2538.557        2.940        0.595      216.483       36.578        0.029      348.649       28.495      856.520
09/03/2014  14:27:00       82.423       32.172       28.516       69.119       48.684       34.003     4777.430     2370.130     1156.200        0.847        0.415       88.479       24.274        0.075      348.476       28.198      856.500
09/03/2014  14:28:00       18.728       -2.494       52.270       35.310       77.863       46.623     1246.788     6062.591     2173.731        0.628        0.474       18.894       52.283        7.657      348.499       28.242      856.462
09/03/2014  14:29:00       23.954      -66.807       18.974       37.994       56.931       38.229     1443.574     3241.161     1461.422        0.577        0.307       70.971       26.350        0.138      348.582       28.382      856.428
09/03/2014  14:30:00      144.026      127.089       54.471      103.310       84.553       87.220    10672.994     7149.174     7607.365        3.264        1.271      192.081       62.287        0.105      348.663       28.522      856.443
09/03/2014  14:31:00      201.541      154.590       61.338      116.970       99.423       84.619    13682.001     9884.912     7160.334        4.950        1.536      254.002       57.692        0.052      348.758       28.685      856.421
09/03/2014  14:32:00      249.894      129.320       65.815      147.929      112.518       84.654    21883.011    12660.214     7166.277        6.260        2.085      281.373       71.402        0.064      348.466       28.178      856.427
09/03/2014  14:33:00      272.343      192.472       14.056       83.741       90.282       59.352     7012.596     8150.805     3522.637        6.505        0.934      333.491       32.429        0.009      348.316       27.919      856.436
09/03/2014  14:34:00      122.060      120.483       17.102      126.757      100.711       69.439    16067.242    10142.803     4821.782        3.036        1.552      171.508       45.634        0.071      348.575       28.369      856.417
09/03/2014  14:35:00      294.747      129.827       38.192      197.213      109.847       85.696    38892.879    12066.439     7343.776        8.173        2.915      322.072       40.793        0.016      348.426       28.112      856.418
09/03/2014  14:36:00      277.164      178.711       69.441      122.285       76.206       56.118    14953.594     5807.362     3149.231        6.874        1.196      329.784       27.971        0.007      348.134       27.606      856.423
09/03/2014  14:37:00       94.796       69.405       64.850       84.351       70.411       54.519     7115.089     4957.704     2972.305        1.652        0.752      117.487       30.406        0.067      348.382       28.035      856.394
09/03/2014  14:38:00       78.520       69.934        9.795       48.504       63.706       48.904     2352.647     4058.445     2391.580        0.998        0.440      105.148       42.988        0.167      348.607       28.425      856.399
09/03/2014  14:39:00       91.315       31.962       39.471       66.953       68.664       37.828     4482.747     4714.715     1430.947        1.077        0.531       96.747       36.150        0.140      348.615       28.440      856.378
09/03/2014  14:40:00       41.388       33.033       28.397       48.486       59.157       44.628     2350.847     3499.561     1991.680        0.572        0.392       52.954       31.393        0.351      348.829       28.810      856.346
09/03/2014  14:41:00       71.239       74.776       11.616       45.645       49.509       37.616     2083.506     2451.155     1414.986        0.837        0.297      103.278       28.364        0.075      348.395       28.059      856.324
09/03/2014  14:42:00        7.205      140.769      -26.631       39.785       67.266       23.490     1582.829     4524.663      551.798        1.362        0.333      140.954       19.202        0.019      348.658       28.515      856.310
09/03/2014  14:43:00       66.083      179.097        2.028       93.505      108.165       73.928     8743.154    11699.561     5465.422        3.117        1.295      190.900       66.342        0.121      348.766       28.700      856.305
09/03/2014  14:44:00      -15.060      266.066      -31.034       71.134      125.017       57.041     5059.991    15629.372     3253.730        4.796        1.197      266.492       57.050        0.046      348.575       28.369      856.297
09/03/2014  14:45:00       25.183      348.643      -50.820       66.316       95.852       51.308     4397.800     9187.616     2632.509        7.049        0.811      349.552       47.125        0.018      348.343       27.965      856.285
09/03/2014  14:46:00       16.196      216.259        1.751      101.857      155.924       78.031    10374.747    24312.355     6088.817        4.390        2.039      216.864       86.884        0.161      348.722       28.624      856.276
09/03/2014  14:47:00      -68.492      251.694      -40.239       51.997      116.850       39.603     2703.643    13653.925     1568.371        4.379        0.896      260.847       48.205        0.034      348.278       27.854      856.290
09/03/2014  14:48:00       37.353      200.677      -11.471       83.032      125.755       61.883     6894.360    15814.409     3829.480        3.416        1.327      204.124       72.453        0.126      348.435       28.125      856.274
09/03/2014  14:49:00        5.130      227.497      -26.711       57.767       58.040       42.126     3336.980     3368.632     1774.615        3.049        0.424      227.555       30.861        0.018      348.467       28.180      856.258
09/03/2014  14:50:00       20.069      161.804       -5.045       83.842      113.760       45.701     7029.446    12941.424     2088.593        2.433        1.103      163.044       58.313        0.128      348.697       28.581      856.249
09/03/2014  14:51:00      -63.987      146.149      -24.826       91.467       68.772       33.764     8366.224     4729.583     1139.989        2.015        0.712      159.542       20.733        0.017      348.381       28.034      856.249
09/03/2014  14:52:00      -50.610       27.894      -11.349       32.281       46.071       20.460     1042.080     2122.502      418.591        0.352        0.179       57.788       12.533        0.047      348.416       28.095      856.214
09/03/2014  14:53:00     -136.569       55.685      -21.374       38.086       38.979       28.589     1450.509     1519.390      817.328        1.300        0.189      147.486       17.401        0.014      348.433       28.125      856.191
09/03/2014  14:54:00     -114.438      -35.134       -3.139       56.099       52.467       30.084     3147.086     2752.820      905.023        1.057        0.340      119.710       27.643        0.053      348.643       28.489      856.174
09/03/2014  14:55:00      -19.793       29.661       28.660       47.882       32.311       31.918     2292.720     1044.001     1018.771        0.322        0.218       35.659       28.298        0.630      349.101       29.282      856.190
09/03/2014  14:56:00       58.917      153.365      -23.044       64.049       90.929       44.946     4102.236     8268.160     2020.114        2.095        0.720      164.292       45.707        0.077      348.558       28.339      856.188
09/03/2014  14:57:00       75.706       77.690       13.171       78.224       72.630       46.825     6118.944     5275.105     2192.575        1.276        0.679      108.477       35.561        0.107      348.829       28.810      856.159
09/03/2014  14:58:00       82.887      126.925       -5.089       86.271       87.171       51.988     7442.633     7598.822     2702.740        2.037        0.887      151.593       38.486        0.064      348.858       28.859      856.144
09/03/2014  14:59:00       53.289      377.516      -53.511       86.688      138.461       77.478     7514.832    19171.431     6002.867        9.045        1.634      381.259       76.266        0.040      348.471       28.188      856.123
09/03/2014  15:00:00       92.921      143.686       -3.499       75.353      102.212       57.843     5678.093    10447.323     3345.840        2.438        0.974      171.114       57.651        0.114      348.477       28.200      856.126
09/03/2014  15:01:00      -11.882      109.387       -0.579       52.685       57.041       40.576     2775.760     3253.692     1646.387        0.989        0.384      110.030       37.708        0.117      348.828       28.810      856.110
09/03/2014  15:02:00       17.346      161.423      -14.527       49.979      123.567       40.395     2497.907    15268.867     1631.745        2.298        0.970      162.352       44.641        0.076      348.726       28.632      856.076
09/03/2014  15:03:00      -90.841      155.226       -9.052       79.523       90.390       56.212     6323.968     8170.434     3159.733        2.504        0.883      179.853       48.077        0.071      348.700       28.585      856.055
09/03/2014  15:04:00      -47.577      165.239      -21.245       40.594       71.906       32.646     1647.885     5170.476     1065.780        1.895        0.394      171.952       28.866        0.028      348.501       28.243      856.047
09/03/2014  15:05:00      -16.750       70.815       -6.310       40.605       40.361       29.519     1648.776     1629.024      871.354        0.474        0.207       72.769       23.527        0.105      348.643       28.488      856.024
09/03/2014  15:06:00       37.027       29.581       16.126      101.600       66.888       42.881    10322.647     4474.035     1838.751        0.957        0.832       47.393       46.960        0.982      348.688       28.567      855.984
09/03/2014  15:07:00       98.943       93.540       16.968      118.963       73.390       60.358    14152.160     5386.067     3643.045        2.100        1.159      136.159       32.684        0.058      348.869       28.878      855.953
09/03/2014  15:08:00      150.763      164.022       15.844      126.758      113.508       82.356    16067.570    12883.959     6782.528        4.280        1.787      222.784       66.821        0.090      348.769       28.705      855.951
09/03/2014  15:09:00      170.400      185.173        7.853      148.736       96.792       83.329    22122.463     9368.648     6943.659        5.090        1.922      251.645       65.219        0.067      348.761       28.690      855.938
09/03/2014  15:10:00      307.233      180.809       45.330      103.219       63.305       75.955    10654.246     4007.513     5769.146        7.478        1.022      356.488       31.573        0.008      348.619       28.443      855.948
09/03/2014  15:11:00      252.920      115.447       47.284       93.633       92.430       63.264     8767.201     8543.366     4002.284        5.042        1.066      278.023       58.365        0.044      348.508       28.252      855.943
09/03/2014  15:12:00      135.876      108.113       22.720       88.691       82.066       57.937     7866.135     6734.802     3356.747        2.431        0.898      173.640       45.442        0.068      348.578       28.374      855.918
09/03/2014  15:13:00      195.926      114.231       57.467      106.648       84.891       71.133    11373.786     7206.420     5059.959        3.918        1.182      226.794       39.078        0.030      348.853       28.849      855.907
09/03/2014  15:14:00      105.649       64.869       61.359      103.137       86.533       73.888    10637.151     7487.934     5459.458        2.135        1.179      123.974       69.322        0.313      348.833       28.816      855.909
09/03/2014  15:15:00      161.058      129.624       40.881      138.312       95.082       67.076    19130.130     9040.623     4499.225        3.854        1.633      206.741       58.379        0.080      349.006       29.116      855.894
09/03/2014  15:16:00      182.308      103.677       28.536       88.503       66.091       50.415     7832.831     4368.075     2541.686        2.977        0.737      209.727       34.110        0.026      348.800       28.758      855.892
09/03/2014  15:17:00       82.886       40.842       14.761       72.875       67.006       37.324     5310.808     4489.786     1393.112        0.997        0.560       92.403       29.728        0.104      348.712       28.608      855.872
09/03/2014  15:18:00       11.657       61.950      -12.736       53.791       47.814       39.045     2893.432     2286.154     1524.507        0.542        0.335       63.037       32.688        0.269      348.745       28.666      855.861
09/03/2014  15:19:00       73.824       64.000        8.574       79.578       62.391       37.268     6332.603     3892.611     1388.929        1.061        0.581       97.704       26.639        0.074      348.699       28.586      855.851
09/03/2014  15:20:00      187.652      138.717       30.078      155.964      107.363       78.248    24324.787    11526.766     6122.769        4.866        2.099      233.358       66.314        0.081      348.865       28.869      855.821
09/03/2014  15:21:00      113.955      130.643       -0.058       82.303       89.604       61.896     6773.855     8028.828     3831.116        2.434        0.932      173.359       53.818        0.096      348.914       28.956      855.844
09/03/2014  15:22:00       91.674       52.151        8.256       84.060       71.520       30.407     7066.145     5115.069      924.601        1.215        0.655      105.470       35.737        0.115      348.452       28.159      855.857
09/03/2014  15:23:00       29.391      142.229      -19.096       46.969       85.235       37.512     2206.051     7264.942     1407.119        1.617        0.544      145.234       39.940        0.076      348.697       28.580      855.830
09/03/2014  15:24:00       75.349      182.257       -1.599       84.255      101.012       71.664     7098.840    10203.444     5135.700        3.066        1.122      197.218       67.885        0.118      348.694       28.574      855.842
09/03/2014  15:25:00      102.730      100.185        1.792       75.428       59.225       57.838     5689.435     3507.570     3345.288        1.657        0.627      143.494       37.340        0.068      348.502       28.244      855.861
09/03/2014  15:26:00      141.041      100.779        6.853      103.040       64.486       49.717    10617.148     4158.429     2471.750        2.367        0.862      173.347       30.774        0.032      348.676       28.543      855.848
09/03/2014  15:27:00       95.872       98.970       26.749       83.680       49.936       52.796     7002.285     2493.595     2787.467        1.599        0.614      137.792       46.448        0.114      348.607       28.424      855.850
09/03/2014  15:28:00       43.517       49.820       -5.481       37.167       29.240       25.796     1381.414      854.973      665.440        0.365        0.145       66.150       21.229        0.103      348.644       28.490      855.817
09/03/2014  15:29:00       24.191       12.879       -4.380       33.927       25.067       25.260     1151.056      628.333      638.067        0.159        0.121       27.406       11.259        0.169      348.895       28.925      855.783
09/03/2014  15:30:00       30.625       50.442        5.841       58.469       41.056       25.201     3418.579     1685.562      635.089        0.463        0.287       59.011       24.707        0.175      348.894       28.924      855.751
09/03/2014  15:31:00       85.516       87.021       18.175       62.928       54.589       47.888     3959.880     2979.980     2293.263        1.222        0.462      122.007       36.844        0.091      348.736       28.649      855.739
09/03/2014  15:32:00       38.751      142.622        7.260       86.470      155.900       55.063     7477.146    24304.775     3031.972        2.835        1.741      147.793       78.491        0.282      348.953       29.024      855.720
09/03/2014  15:33:00      206.776      113.826       31.440      140.306       85.505       61.627    19685.788     7311.074     3797.859        4.374        1.540      236.035       46.988        0.040      348.873       28.882      855.698
09/03/2014  15:34:00      167.289      139.510       29.567       98.397       75.187       72.146     9682.051     5653.108     5205.073        3.443        1.027      217.828       44.640        0.042      348.711       28.604      855.692
09/03/2014  15:35:00       -8.056      196.304      -26.102       82.578       91.951       53.914     6819.100     8454.912     2906.692        2.873        0.909      196.469       59.509        0.092      349.014       29.127      855.694
09/03/2014  15:36:00      -55.522      154.934      -11.668       78.697      109.557       50.719     6193.262    12002.811     2572.440        2.399        1.038      164.582       60.466        0.135      348.992       29.089      855.697
09/03/2014  15:37:00      -33.897      120.030      -12.103       47.842       64.639       37.834     2288.861     4178.240     1431.379        1.180        0.395      124.724       38.175        0.094      349.053       29.198      855.685
09/03/2014  15:38:00      -31.401      138.139       -6.055       43.960       54.154       38.933     1932.483     2932.648     1515.802        1.324        0.319      141.663       26.916        0.036      349.121       29.317      855.675
09/03/2014  15:39:00      -11.005      158.755      -22.660       46.787       60.979       34.218     2189.000     3718.474     1170.846        1.646        0.354      159.136       35.407        0.050      349.157       29.379      855.678
09/03/2014  15:40:00      -44.949      288.660      -43.247       56.628       92.497       42.096     3206.746     8555.639     1772.047        5.037        0.677      292.139       28.941        0.010      348.713       28.607      855.673
09/03/2014  15:41:00      -14.044       99.697       23.836      104.698       91.685       58.768    10961.697     8406.188     3453.625        1.676        1.141      100.681       60.914        0.366      349.066       29.221      855.653
09/03/2014  15:42:00       34.707       60.681       12.851       81.923       57.234       42.344     6711.352     3275.772     1792.984        0.841        0.589       69.906       31.446        0.202      349.078       29.241      855.628
09/03/2014  15:43:00       97.407      117.683       15.046       90.426       90.526       68.198     8176.895     8194.869     4650.906        2.229        1.051      152.766       50.773        0.110      348.830       28.812      855.619
09/03/2014  15:44:00       -9.289      301.982      -40.671       76.212      101.919       54.840     5808.337    10387.539     3007.413        5.606        0.960      302.125       56.254        0.035      348.595       28.402      855.634
09/03/2014  15:45:00      -32.507      204.717       -9.883       68.283       99.585       43.135     4662.634     9917.134     1860.587        2.975        0.822      207.282       47.108        0.052      348.864       28.867      855.634
09/03/2014  15:46:00       46.816      100.375       -6.156       61.581       76.911       34.059     3792.251     5915.299     1160.003        1.158        0.543      110.756       38.616        0.122      348.739       28.656      855.624
09/03/2014  15:47:00       60.038       77.372       25.702       78.900       57.601       55.766     6225.154     3317.880     3109.850        1.145        0.633       97.934       45.935        0.220      349.060       29.210      855.586
09/03/2014  15:48:00      -12.614      249.013      -34.061       42.699      129.758       42.372     1823.195    16837.060     1795.392        4.189        1.023      249.332       60.020        0.058      348.741       28.655      855.586
09/03/2014  15:49:00       40.608      203.461      -28.255       49.054       93.739       41.530     2406.258     8787.029     1724.778        2.838        0.646      207.474       53.526        0.067      348.589       28.392      855.588
09/03/2014  15:50:00      102.557       85.299        9.211       85.554       49.678       38.174     7319.404     2467.885     1457.256        1.456        0.562      133.393       29.238        0.048      348.631       28.468      855.581
09/03/2014  15:51:00      103.625      117.430        2.902       79.299       64.689       50.722     6288.299     4184.627     2572.691        1.879        0.652      156.614       43.301        0.076      348.775       28.717      855.573
09/03/2014  15:52:00        4.345      159.790      -21.656       23.686       56.357       30.349      561.036     3176.130      921.066        1.534        0.233      159.850       34.613        0.047      348.702       28.590      855.562
09/03/2014  15:53:00       79.856       56.809       42.696       56.192       52.940       44.312     3157.590     2802.644     1963.557        0.967        0.396       98.001       30.560        0.097      348.944       29.010      855.549
09/03/2014  15:54:00       50.110       88.943        8.702       94.086       66.959       60.515     8852.267     4483.495     3662.037        1.374        0.850      102.088       44.598        0.191      349.068       29.223      855.525
09/03/2014  15:55:00      181.514      114.247       34.485       86.788       62.445       50.944     7532.115     3899.429     2595.280        3.061        0.701      214.475       26.180        0.015      348.918       28.963      855.520
09/03/2014  15:56:00      168.766      137.184       23.286      107.594       62.127       57.799    11576.432     3859.719     3340.692        3.331        0.939      217.489       52.512        0.058      348.878       28.892      855.522
09/03/2014  15:57:00      217.347      167.079       19.372       86.740       61.831       55.432     7523.790     3823.057     3072.679        4.497        0.721      274.144       20.910        0.006      348.608       28.424      855.508
09/03/2014  15:58:00      -14.515      137.435      -18.004       70.955      115.110       38.463     5034.612    13250.230     1479.382        1.959        0.988      138.199       52.228        0.143      348.935       28.994      855.522
09/03/2014  15:59:00       43.247      316.311      -54.727       46.651       56.794       34.952     2176.352     3225.537     1221.608        5.577        0.331      319.254       24.409        0.006      348.708       28.596      855.520
09/03/2014  16:00:00      125.883      160.916       10.864       70.419       78.547       63.309     4958.778     6169.627     4007.984        2.849        0.757      204.305       66.331        0.105      348.626       28.455      855.510
09/03/2014  16:01:00       52.919       46.903       12.193       66.902       47.233       30.679     4475.865     2230.915      941.216        0.640        0.382       70.713       31.801        0.202      349.022       29.145      855.489
09/03/2014  16:02:00       37.371       69.787       17.714      121.630       86.222       50.924    14793.852     7434.262     2593.214        1.570        1.241       79.163       41.244        0.271      349.188       29.431      855.481
09/03/2014  16:03:00       54.291      171.830      -12.521       86.669       90.149       62.639     7511.474     8126.762     3923.622        2.609        0.978      180.202       51.807        0.083      348.939       29.000      855.479
09/03/2014  16:04:00      130.031      156.709        9.461      164.159      132.409       77.393    26948.251    17532.079     5989.733        4.600        2.524      203.631       61.550        0.091      348.927       28.977      855.451
09/03/2014  16:05:00      322.055      231.917       20.129      126.907       91.640       71.315    16105.309     8397.861     5085.809        9.374        1.479      396.869       36.090        0.008      348.620       28.445      855.421
09/03/2014  16:06:00      106.507      183.459      -26.643      141.952       81.303       47.362    20150.497     6610.211     2243.130        3.735        1.450      212.134       38.156        0.032      348.846       28.837      855.421
09/03/2014  16:07:00      -37.152      320.016      -25.001      150.950      122.648       69.979    22785.871    15042.497     4897.117        7.356        2.136      322.165       71.430        0.049      348.968       29.049      855.415
09/03/2014  16:08:00       67.993      410.963      -49.271      100.237      163.641       85.330    10047.400    26778.487     7281.229       11.002        2.205      416.549       94.340        0.051      348.819       28.790      855.405
09/03/2014  16:09:00       -3.207      363.231      -39.087       86.709      164.845       67.572     7518.491    27173.875     4566.038        8.636        1.963      363.245       88.029        0.059      348.856       28.854      855.405
09/03/2014  16:10:00      -86.552      314.060      -36.457       88.207      137.041       63.821     7780.390    18780.193     4073.126        6.904        1.532      325.768       75.021        0.053      349.010       29.122      855.398
09/03/2014  16:11:00       30.399      300.086      -27.633      119.282      185.108       76.050    14228.233    34264.975     5783.647        7.300        2.714      301.621       90.399        0.090      349.113       29.298      855.378
09/03/2014  16:12:00      117.012      233.422      -22.599      129.705      129.472       68.891    16823.380    16762.936     4746.015        5.350        1.917      261.109       76.078        0.085      349.006       29.113      855.373
09/03/2014  16:13:00      180.606      183.093       13.867      154.868      116.503      105.751    23983.966    13572.877    11183.251        5.753        2.437      257.180       75.818        0.087      348.906       28.941      855.382
09/03/2014  16:14:00     -117.908      269.445      -28.603       87.609      111.695       58.839     7675.409    12475.697     3462.006        5.546        1.181      294.114       52.349        0.032      348.914       28.954      855.412
09/03/2014  16:15:00     -144.053      206.125      -29.423      108.634       72.354       47.107    11801.359     5235.104     2219.094        4.168        0.963      251.473       50.087        0.040      348.794       28.748      855.399
09/03/2014  16:16:00      231.163      122.167       72.902      157.996      112.852       87.794    24962.678    12735.639     7707.849        5.953        2.270      261.459       51.373        0.039      348.855       28.853      855.359
09/03/2014  16:17:00      289.605      133.150       26.303      136.304      108.333       97.631    18578.673    11736.035     9531.720        7.106        1.992      318.748       72.056        0.051      348.733       28.641      855.327
09/03/2014  16:18:00       80.390      235.221      -33.689      109.832      105.187       72.370    12063.105    11064.390     5237.372        4.564        1.418      248.579       59.872        0.058      348.894       28.920      855.339
09/03/2014  16:19:00      123.962      223.934       -3.500      119.791      176.272       82.568    14349.851    31071.932     6817.404        5.887        2.612      255.955       95.962        0.141      348.852       28.847      855.366
09/03/2014  16:20:00      190.913      203.488       16.457      147.930      140.914      109.794    21883.189    19856.674    12054.787        6.595        2.690      279.025       82.466        0.087      348.695       28.576      855.356
09/03/2014  16:21:00      142.829      109.404        2.462       98.758       83.519       57.968     9753.193     6975.425     3360.279        2.623        1.004      179.915       32.646        0.033      348.716       28.613      855.360
09/03/2014  16:22:00      200.203      157.863       19.149       94.512       85.130       71.425     8932.431     7247.101     5101.475        4.332        1.064      254.955       34.652        0.018      348.813       28.780      855.348
09/03/2014  16:23:00       61.979      318.017      -20.792      123.127      158.832       94.988    15160.156    25227.458     9022.629        7.740        2.471      324.001       93.959        0.084      348.838       28.822      855.340
09/03/2014  16:24:00       91.297      333.270      -32.842      110.514      209.459       94.908    12213.436    43873.066     9007.564        9.278        3.255      345.548      104.535        0.092      348.771       28.709      855.362
09/03/2014  16:25:00        0.293      402.389      -41.539       97.296      174.224       77.299     9466.514    30353.950     5975.109       10.471        2.290      402.389       88.929        0.049      348.473       28.191      855.411
09/03/2014  16:26:00       86.457      169.606       12.050      110.708      110.196       72.956    12256.182    12143.190     5322.539        3.305        1.486      190.371       71.648        0.142      348.608       28.425      855.381
09/03/2014  16:27:00      119.433      171.381       10.464      111.619      118.071       91.253    12458.900    13940.751     8327.085        3.923        1.736      208.892       84.160        0.162      348.526       28.284      855.354
09/03/2014  16:28:00      131.028      161.264       -1.011       96.645       80.524       76.315     9340.347     6484.141     5823.966        3.241        1.082      207.784       60.217        0.084      348.523       28.278      855.351
09/03/2014  16:29:00      153.787      165.855       19.439      163.779      108.168       79.380    26823.649    11700.296     6301.144        4.817        2.241      226.182       60.915        0.073      348.585       28.385      855.310
09/03/2014  16:30:00      129.777      229.841      -17.573      124.767      136.520       92.348    15566.755    18637.600     8528.095        5.635        2.137      263.948       79.117        0.090      348.713       28.607      855.322
09/03/2014  16:31:00      123.026      132.514       13.407      121.533      109.331       79.242    14770.253    11953.160     6279.374        3.293        1.650      180.818       54.359        0.090      348.626       28.457      855.333
09/03/2014  16:32:00       71.020      292.702      -37.435      107.273      130.938       74.932    11507.563    17144.805     5614.731        6.319        1.713      301.195       71.164        0.056      348.670       28.532      855.308
09/03/2014  16:33:00       19.805      321.732      -17.249      105.962      213.703       92.944    11228.022    45669.068     8638.537        8.486        3.277      322.341      118.067        0.134      348.838       28.822      855.309
09/03/2014  16:34:00     -131.787      278.468      -35.558       96.510      147.499       55.191     9314.102    21756.063     3046.042        6.514        1.706      308.079       50.550        0.027      348.716       28.611      855.314
09/03/2014  16:35:00     -104.201      224.812      -21.571      100.603       88.039       47.930    10120.913     7750.854     2297.250        4.101        1.008      247.787       39.786        0.026      348.830       28.809      855.304
09/03/2014  16:36:00     -104.906      402.507      -50.002      109.309      161.338       72.285    11948.489    26030.040     5225.140       10.935        2.160      415.953       80.019        0.037      348.822       28.795      855.313
09/03/2014  16:37:00      -14.152      338.041      -38.680      116.994      155.769       84.812    13687.601    24264.013     7193.115        8.055        2.257      338.337       88.595        0.069      348.728       28.633      855.315
09/03/2014  16:38:00       28.235      362.749      -45.335       94.396      195.958       78.483     8910.644    38399.651     6159.506        9.394        2.673      363.846       94.898        0.068      348.732       28.639      855.299
09/03/2014  16:39:00      -96.497      342.701      -48.901      124.191      108.561       63.884    15423.365    11785.592     4081.218        8.021        1.565      356.027       53.407        0.023      348.792       28.743      855.306
09/03/2014  16:40:00      -82.426      357.659      -36.718      121.131      108.019       61.855    14672.600    11668.134     3825.989        8.311        1.508      367.034       56.318        0.024      348.504       28.244      855.320
09/03/2014  16:41:00      -45.702      223.469        2.167      111.869      145.333       77.459    12514.626    21121.543     5999.969        4.583        1.982      228.095       91.316        0.160      348.738       28.649      855.306
09/03/2014  16:42:00       56.754      282.324      -27.932      110.970      200.434       86.930    12314.296    40173.732     7556.789        7.186        3.002      287.972      107.504        0.139      348.735       28.646      855.303
09/03/2014  16:43:00       41.558      310.193      -32.415       81.667      182.399       81.728     6669.483    33269.219     6679.493        7.280        2.331      312.964      100.612        0.103      348.688       28.562      855.294
09/03/2014  16:44:00       34.022      209.777       -1.619      137.302      161.257       69.796    18851.807    26003.981     4871.424        4.744        2.486      212.518       87.931        0.171      348.781       28.724      855.303
09/03/2014  16:45:00       17.543      471.779      -57.007      127.209      145.719       68.632    16182.097    21234.106     4710.361       13.412        2.106      472.105       59.982        0.016      348.522       28.275      855.319
09/03/2014  16:46:00      -96.741      288.901      -40.297      106.432      104.985       63.477    11327.807    11021.934     4029.359        6.041        1.319      304.668       55.447        0.033      348.651       28.500      855.330
09/03/2014  16:47:00     -106.599      208.461      -34.374       86.869      131.549       57.893     7546.293    17305.218     3351.552        4.210        1.410      234.136       63.917        0.075      348.543       28.313      855.319
09/03/2014  16:48:00      -97.103      309.393      -40.695      103.095      142.866       57.804    10628.665    20410.710     3341.261        7.059        1.719      324.273       46.249        0.020      348.575       28.367      855.281
09/03/2014  16:49:00      -58.630      392.890      -38.686       82.480      100.584       63.135     6802.951    10117.075     3986.030        9.010        1.045      397.241       59.055        0.022      348.661       28.515      855.279
09/03/2014  16:50:00      -27.704      398.340      -52.719       70.241      140.987       57.769     4933.819    19877.450     3337.216        9.518        1.407      399.302       59.858        0.022      348.642       28.483      855.293
09/03/2014  16:51:00      -13.182      129.605       -9.619       67.846      138.578       56.037     4603.086    19203.731     3140.161        2.200        1.347      130.274       69.271        0.283      348.851       28.848      855.293
09/03/2014  16:52:00      -54.211      324.467      -29.711       92.429      165.950       61.208     8543.175    27539.280     3746.436        7.446        1.991      328.965       67.525        0.042      348.745       28.661      855.295
09/03/2014  16:53:00      -70.523      235.528      -17.622      114.247      113.096       61.406    13052.416    12790.760     3770.691        4.518        1.481      245.859       57.893        0.055      348.706       28.594      855.286
09/03/2014  16:54:00       89.585      185.397       -8.748      113.343      127.357       74.317    12846.611    16219.841     5523.043        3.852        1.729      205.907       77.863        0.143      348.769       28.705      855.278
09/03/2014  16:55:00      128.312      247.405       -1.035      120.319      180.272      107.316    14476.741    32498.029    11516.679        6.807        2.925      278.699      110.452        0.157      348.593       28.399      855.282
09/03/2014  16:56:00       59.658      303.981      -27.427       93.214      173.305       78.770     8688.861    30034.515     6204.662        7.081        2.246      309.780       88.213        0.081      348.543       28.314      855.300
09/03/2014  16:57:00      127.919      231.372      -30.888      139.383      143.446       94.328    19427.547    20576.647     8897.857        5.987        2.445      264.379       83.730        0.100      348.570       28.359      855.304
09/03/2014  16:58:00       77.224      364.727      -30.227      131.252      228.899       98.239    17227.003    52394.937     9650.823       10.957        3.964      372.813      120.848        0.105      348.478       28.201      855.292
09/03/2014  16:59:00      125.728      203.176       14.184      141.222      123.891       93.390    19943.581    15348.889     8721.694        5.064        2.201      238.931       90.863        0.145      348.483       28.209      855.298
09/03/2014  17:00:00      104.906      201.925      -12.861       90.492      187.908       84.695     8188.876    35309.339     7173.248        5.130        2.534      227.549      102.620        0.203      348.553       28.329      855.299
09/03/2014  17:01:00       93.925      232.675       -9.247       99.004      152.574       73.635     9801.862    23278.890     5422.139        5.077        1.925      250.917       74.267        0.088      348.503       28.245      855.294
09/03/2014  17:02:00      133.078      175.364       -6.926      120.534      151.808       88.968    14528.394    23045.748     7915.217        4.699        2.274      220.142       81.541        0.137      348.513       28.261      855.283
09/03/2014  17:03:00       85.560      206.630       -3.490      109.153      170.173       86.044    11914.421    28958.751     7403.504        4.914        2.414      223.644       91.206        0.166      348.578       28.374      855.299
09/03/2014  17:04:00      192.644      148.817        6.194      130.349       73.792       62.599    16990.887     5445.311     3918.622        4.282        1.318      243.430       32.437        0.018      348.599       28.408      855.302
09/03/2014  17:05:00      149.263      186.661       11.315      119.953      105.208       84.657    14388.765    11068.736     7166.773        4.493        1.631      239.002       64.855        0.074      348.643       28.485      855.324
09/03/2014  17:06:00       78.169      274.438      -20.790       95.038      145.119       88.189     9032.311    21059.404     7777.241        5.986        1.893      285.354       88.577        0.096      348.476       28.198      855.338
09/03/2014  17:07:00      112.383      261.202      -16.269      122.049      132.858       77.763    14895.860    17651.269     6047.125        5.985        1.930      284.352       85.633        0.091      348.505       28.247      855.338
09/03/2014  17:08:00      160.951      231.756        9.703      179.018      151.240      102.878    32047.405    22873.663    10583.788        7.259        3.275      282.164       92.207        0.107      348.381       28.034      855.310
09/03/2014  17:09:00      148.744      192.243       -8.279      125.106      135.309       89.526    15651.514    18308.547     8014.898        5.055        2.099      243.068       77.598        0.102      348.489       28.219      855.305
09/03/2014  17:10:00      159.456      241.507      -20.532      119.826      137.870       84.367    14358.251    19008.249     7117.842        6.232        2.024      289.399       77.840        0.072      348.473       28.190      855.337
09/03/2014  17:11:00      265.755      193.491       17.776      155.006       97.737       94.306    24026.903     9552.479     8893.535        7.542        2.124      328.732       53.187        0.026      348.368       28.010      855.329
09/03/2014  17:12:00      388.950      260.101       68.766      141.988      129.754       97.030    20160.476    16836.072     9414.743       13.503        2.321      467.904       69.237        0.022      348.308       27.907      855.318
09/03/2014  17:13:00      281.356      211.575       12.709      176.716      104.696       78.678    31228.596    10961.255     6190.190        8.622        2.419      352.030       56.852        0.026      348.259       27.821      855.339
09/03/2014  17:14:00      167.669      220.808       11.021      137.215      129.410       95.197    18827.966    16746.926     9062.480        6.081        2.232      277.253       88.859        0.103      348.357       27.990      855.371
09/03/2014  17:15:00      110.028      101.898       21.239      106.879       71.752       57.198    11423.143     5148.353     3271.565        2.139        0.992      149.965       29.597        0.039      348.503       28.245      855.391
09/03/2014  17:16:00      120.756      111.268        4.148      114.876       75.505       57.649    13196.521     5700.944     3323.451        2.460        1.111      164.203       42.520        0.067      348.515       28.266      855.382
09/03/2014  17:17:00      110.654      182.154       -2.013      128.707      144.419       70.218    16565.433    20856.787     4930.558        4.388        2.118      213.130       71.371        0.112      348.491       28.224      855.366
09/03/2014  17:18:00      108.880      128.729       -1.298      103.618      145.190       66.005    10736.666    21080.281     4356.616        3.229        1.809      168.600       57.227        0.115      348.514       28.265      855.322
09/03/2014  17:19:00      151.861      211.879        8.980      157.725      155.644       85.631    24877.079    24225.164     7332.745        6.222        2.822      260.681       77.016        0.087      348.523       28.277      855.350
09/03/2014  17:20:00      288.739      276.570        8.042      185.104      122.733       96.760    34263.392    15063.358     9362.564       10.930        2.934      399.826       63.520        0.025      348.363       28.001      855.319
09/03/2014  17:21:00      254.203      238.264        5.055      151.518      140.185       98.255    22957.793    19651.971     9653.956        8.683        2.613      348.410       69.037        0.039      348.324       27.932      855.323
09/03/2014  17:22:00      175.795      185.531        2.703      151.125      124.601       72.723    22838.642    15525.325     5288.564        5.448        2.183      255.589       69.973        0.075      348.351       27.979      855.334
09/03/2014  17:23:00      133.802      226.128       20.813      160.314      144.803       83.244    25700.486    20967.973     6929.626        6.152        2.680      262.749       69.553        0.070      348.382       28.034      855.360
09/03/2014  17:24:00      110.220      199.181       -1.993      142.064      125.195       93.890    20182.185    15673.711     8815.279        4.824        2.234      227.643       82.015        0.130      348.380       28.030      855.391
09/03/2014  17:25:00      173.958      127.963       28.916      139.164      113.845       79.095    19366.589    12960.745     6256.025        4.302        1.929      215.953       48.740        0.051      348.266       27.835      855.360
09/03/2014  17:26:00      186.404      212.579        8.233      161.710      114.349       93.519    26150.134    13075.620     8745.775        6.398        2.399      282.730       69.862        0.061      348.312       27.914      855.372
09/03/2014  17:27:00      126.019      213.820        8.924      187.986      148.867       82.163    35338.899    22161.506     6750.701        6.295        3.213      248.193       81.987        0.109      348.321       27.929      855.389
09/03/2014  17:28:00       53.289      233.894       -7.078      125.851      159.283       84.764    15838.418    25370.927     7184.994        5.299        2.420      239.888       91.256        0.145      348.340       27.962      855.434
09/03/2014  17:29:00       61.337      231.711      -23.891       80.721      124.869       57.462     6515.899    15592.389     3301.848        4.171        1.271      239.692       53.176        0.049      348.309       27.909      855.456
09/03/2014  17:30:00       50.854      381.935      -27.506      119.010      170.747       98.589    14163.415    29154.669     9719.879       10.112        2.652      385.305       96.983        0.063      348.200       27.720      855.449
09/03/2014  17:31:00      106.036      181.866       -9.619      110.739      149.239       77.256    12263.150    22272.303     5968.512        4.245        2.025      210.520       66.241        0.099      348.349       27.978      855.454
09/03/2014  17:32:00      203.429      193.425       21.760      139.999      133.880      104.783    19599.806    17923.736    10979.574        6.388        2.425      280.708       88.820        0.100      348.252       27.810      855.449
09/03/2014  17:33:00      103.475      156.667       13.607      107.745      113.816       79.937    11609.061    12954.174     6389.937        3.319        1.548      187.754       74.266        0.156      348.249       27.806      855.455
09/03/2014  17:34:00       64.331      181.131        2.971      105.066      126.296       62.958    11038.932    15950.800     3963.697        3.395        1.548      192.216       66.113        0.118      348.241       27.792      855.461
09/03/2014  17:35:00       59.041      244.360       -5.236      126.213      163.234       85.345    15929.809    26645.278     7283.748        5.653        2.493      251.392       91.787        0.133      348.294       27.881      855.476
09/03/2014  17:36:00       17.521      374.440      -33.936      131.429      224.393       86.148    17273.653    50352.077     7421.477       10.834        3.752      374.849       98.551        0.069      348.178       27.681      855.503
09/03/2014  17:37:00       96.642      264.496       -5.962      129.911      181.289       95.497    16876.754    32865.613     9119.600        6.909        2.943      281.598      103.113        0.134      348.144       27.622      855.502
09/03/2014  17:38:00      171.458      241.840        9.627      127.234      154.716      105.801    16188.480    23937.141    11193.936        6.964        2.566      296.453       91.750        0.096      348.067       27.488      855.503
09/03/2014  17:39:00       70.401      327.594      -28.223      120.074      224.090       97.558    14417.811    50216.462     9517.472        9.360        3.708      335.073      120.820        0.130      348.084       27.520      855.503
09/03/2014  17:40:00       82.149      313.541      -13.639      119.140      173.707       92.968    14194.382    30174.182     8642.974        7.912        2.651      324.124      107.510        0.110      348.055       27.468      855.528
09/03/2014  17:41:00      139.207      238.273       -7.351      132.146      132.939       69.817    17462.456    17672.689     4874.397        5.810        2.000      275.958       63.794        0.053      348.161       27.652      855.544
09/03/2014  17:42:00      167.350      178.415       15.684      162.256      108.729       79.033    26326.929    11821.999     6246.234        5.223        2.220      244.618       55.510        0.051      348.271       27.843      855.559
09/03/2014  17:43:00       66.502      152.619       -6.312      108.935      125.292       63.356    11866.774    15698.024     4014.017        2.966        1.579      166.478       60.579        0.132      348.270       27.841      855.572
09/03/2014  17:44:00      132.959      132.270       17.252      125.770       96.036       71.833    15818.098     9222.822     5159.984        3.283        1.510      187.546       46.047        0.060      348.216       27.748      855.571
09/03/2014  17:45:00      184.047      189.207       35.070      175.350      137.631      122.058    30747.480    18942.350    14898.102        6.773        3.229      263.956       86.982        0.109      347.976       27.332      855.568
09/03/2014  17:46:00      157.060      199.542       11.928      135.040      139.024       88.125    18235.732    19327.809     7766.038        5.497        2.266      253.939       81.381        0.103      348.017       27.404      855.570
09/03/2014  17:47:00      152.010      259.880      -14.849      146.283      112.531       78.093    21398.852    12663.137     6098.516        6.550        2.008      301.073       56.476        0.035      348.033       27.430      855.573
09/03/2014  17:48:00      241.109      158.194       21.345      161.522       73.455       65.314    26089.493     5395.674     4265.915        5.968        1.788      288.372       40.098        0.019      348.014       27.399      855.566
09/03/2014  17:49:00      303.337      260.219        7.771      211.591      136.726       91.652    44770.793    18694.104     8400.076       11.581        3.593      399.659       65.955        0.027      347.945       27.279      855.573
09/03/2014  17:50:00      293.416      200.041       26.323      202.829      145.682       96.567    41139.784    21223.297     9325.129        9.923        3.584      355.119       67.999        0.037      347.993       27.361      855.546
09/03/2014  17:51:00      229.496      194.356       14.670      159.162      122.830       99.554    25332.490    15087.118     9911.052        7.048        2.517      300.737       67.725        0.051      348.023       27.413      855.572
09/03/2014  17:52:00      320.946      257.198       31.109      187.386      136.764      121.664    35113.617    18704.291    14802.037       11.936        3.431      411.287       78.079        0.036      347.961       27.306      855.569
09/03/2014  17:53:00      254.066      212.609       24.057      202.463      133.840       97.750    40991.458    17913.100     9555.081        8.938        3.423      331.289       62.232        0.035      347.962       27.306      855.584
09/03/2014  17:54:00      147.286      127.923       29.155      115.998       80.518       63.843    13455.440     6483.201     4075.919        3.146        1.201      195.083       42.764        0.048      348.049       27.458      855.596
09/03/2014  17:55:00      188.268      188.332       21.882      167.371      142.186      105.441    28013.176    20216.923    11117.756        6.536        2.967      266.296       77.992        0.086      347.980       27.340      855.604
09/03/2014  17:56:00       93.434      220.109      -23.541      123.792      156.820       89.558    15324.494    24592.390     8020.612        5.283        2.397      239.119       81.584        0.116      347.922       27.239      855.620
09/03/2014  17:57:00       73.147      175.529       -6.539       95.648      120.950       67.907     9148.543    14628.926     4611.303        3.229        1.419      190.160       57.432        0.091      347.959       27.304      855.642
09/03/2014  17:58:00       61.001      141.010        9.815       79.967      139.607       65.393     6394.754    19489.990     4276.287        2.693        1.508      153.639       76.779        0.250      347.988       27.354      855.633
09/03/2014  17:59:00       65.215      181.571       -8.335      118.526      112.841       69.193    14048.388    12733.162     4787.698        3.442        1.578      192.928       65.149        0.114      347.960       27.306      855.639
09/03/2014  18:00:00       19.824      377.694      -54.325       84.698      158.050       48.690     7173.727    24979.800     2370.749        9.025        1.726      378.214       58.982        0.024      347.912       27.223      855.640
09/03/2014  18:01:00       45.513      164.983      -20.952       67.224      127.484       49.578     4519.124    16252.211     2458.012        2.648        1.161      171.146       64.796        0.143      347.962       27.310      855.622
09/03/2014  18:02:00      245.410      219.739       21.771      178.083      124.262       93.643    31713.468    15441.128     8769.026        8.244        2.796      329.410       58.337        0.031      347.882       27.168      855.615
09/03/2014  18:03:00      240.340      198.776       36.631      155.643      141.657       92.971    24224.706    20066.785     8643.547        7.577        2.647      311.890       52.265        0.028      347.766       26.971      855.588
09/03/2014  18:04:00      103.475      205.116       16.268      141.403      180.999      133.452    19994.706    32760.610    17809.501        6.179        3.528      229.739      117.264        0.261      347.754       26.950      855.613
09/03/2014  18:05:00       53.788      322.884      -31.857       94.793      183.426       76.526     8985.621    33645.036     5856.271        7.831        2.424      327.333       89.888        0.075      347.751       26.943      855.616
09/03/2014  18:06:00       79.557      210.781      -11.620       84.428      132.813       78.536     7128.076    17639.300     6167.841        4.091        1.547      225.296       81.785        0.132      347.834       27.087      855.623
09/03/2014  18:07:00       81.406      105.241       20.651       82.327       66.457       70.942     6777.791     4416.562     5032.706        1.717        0.811      133.051       51.203        0.148      347.882       27.171      855.610
09/03/2014  18:08:00      129.877      108.946       14.177       77.784       60.940       55.529     6050.327     3713.658     3083.456        2.089        0.642      169.521       32.060        0.036      347.900       27.202      855.591
09/03/2014  18:09:00       81.925      137.956      -11.448       71.942       93.427       47.441     5175.593     8728.552     2250.680        2.101        0.808      160.448       46.818        0.085      347.886       27.179      855.582
09/03/2014  18:10:00       94.627      104.134        3.960       58.240       64.775       56.607     3391.854     4195.766     3204.352        1.530        0.540      140.705       41.405        0.087      347.889       27.185      855.570
09/03/2014  18:11:00      148.320      210.966       12.002      152.464      125.786       85.255    23245.152    15822.151     7268.423        5.648        2.317      257.886       72.222        0.078      347.868       27.145      855.581
09/03/2014  18:12:00      169.479      237.033       -5.927      141.399      124.621       88.181    19993.722    15530.288     7775.931        6.411        2.165      291.389       79.930        0.075      347.812       27.049      855.588
09/03/2014  18:13:00       52.125      205.984      -13.766       97.266      119.263       73.864     9460.673    14223.701     5455.825        3.723        1.457      212.477       70.818        0.111      347.820       27.063      855.588
09/03/2014  18:14:00       19.619      279.460      -30.247       87.659      157.765       64.128     7684.138    24889.887     4112.348        5.803        1.834      280.148       74.793        0.071      347.772       26.980      855.568
09/03/2014  18:15:00       53.077      213.921      -12.191       87.668      138.199       73.702     7685.691    19098.979     5431.941        4.047        1.611      220.408       81.823        0.138      347.806       27.039      855.561
09/03/2014  18:16:00       86.831       86.735       18.284       77.670       68.388       51.275     6032.585     4676.934     2629.136        1.437        0.667      122.730       40.787        0.110      347.842       27.103      855.569
09/03/2014  18:17:00       92.083      212.482      -11.055       80.669      139.107       67.401     6507.516    19350.846     4542.936        4.207        1.520      231.577       61.332        0.070      347.830       27.081      855.580
09/03/2014  18:18:00      160.090      216.457       33.493      152.182      216.927      105.226    23159.264    47057.479    11072.605        7.743        4.064      269.226      108.001        0.161      347.748       26.939      855.575
09/03/2014  18:19:00      181.843      158.427        7.422      100.035       95.449       84.199    10006.915     9110.532     7089.530        4.221        1.310      241.177       66.127        0.075      347.728       26.903      855.579
09/03/2014  18:20:00      288.347      185.754       40.231      189.797      120.222       75.898    36022.816    14453.327     5760.517        8.774        2.812      343.000       65.479        0.036      347.732       26.911      855.580
09/03/2014  18:21:00      194.481      139.212       24.223      151.128      109.964       75.216    22839.698    12092.174     5657.383        4.918        2.029      239.171       57.699        0.058      347.704       26.864      855.570
09/03/2014  18:22:00      136.570      146.972        7.888      105.956       85.392       74.233    11226.614     7291.866     5510.537        3.217        1.201      200.630       58.611        0.085      347.738       26.921      855.610
09/03/2014  18:23:00       85.551      258.597        8.025      124.929      217.685      118.767    15607.193    47386.753    14105.495        7.566        3.855      272.381      131.037        0.231      347.698       26.852      855.609
09/03/2014  18:24:00       96.471      251.119      -22.411      101.445      198.336       74.491    10291.048    39337.108     5548.893        6.401        2.759      269.012       75.902        0.080      347.692       26.843      855.604
09/03/2014  18:25:00      185.338      243.479        5.541      195.217      124.465       93.894    38109.828    15491.517     8815.992        7.803        3.121      305.994       87.253        0.081      347.701       26.858      855.633
09/03/2014  18:26:00      106.981      218.968      -15.266      107.361      145.207       71.397    11526.316    21085.151     5097.476        4.866        1.885      243.704       83.950        0.119      347.673       26.809      855.638
09/03/2014  18:27:00      344.756      227.940       26.214      133.823      124.032       81.319    17908.567    15383.969     6612.770       10.569        1.995      413.295       69.150        0.028      347.682       26.825      855.650
09/03/2014  18:28:00      183.588      157.752       30.943      156.774       96.371       76.178    24578.162     9287.371     5803.056        4.960        1.983      242.054       52.213        0.047      347.698       26.852      855.660
09/03/2014  18:29:00       65.678      154.898       -5.448       70.997       76.722       59.614     5040.623     5886.198     3553.883        2.141        0.724      168.246       55.430        0.109      347.733       26.915      855.673
09/03/2014  18:30:00       51.266      172.335        6.744       85.039      114.862       48.916     7231.674    13193.299     2392.755        2.759        1.141      179.798       53.494        0.089      347.689       26.840      855.686
09/03/2014  18:31:00       83.488      216.441        7.656      108.958      149.244       89.753    11871.745    22273.666     8055.529        4.803        2.110      231.984       87.047        0.141      347.673       26.811      855.685
09/03/2014  18:32:00       22.377      327.802      -53.937       78.230      135.517       52.491     6119.921    18364.958     2755.319        6.905        1.362      328.564       59.629        0.033      347.660       26.786      855.705
09/03/2014  18:33:00      -22.367      292.858      -27.488       87.804      172.027       67.528     7709.628    29593.145     4560.080        6.443        2.093      293.711       79.144        0.073      347.625       26.726      855.700
09/03/2014  18:34:00      158.971      200.633        9.932      122.304      152.345       72.843    14958.272    23208.860     5306.102        5.454        2.174      255.979       81.603        0.102      347.602       26.688      855.687
09/03/2014  18:35:00      114.949      180.907       17.542      117.568      156.632       92.763    13822.156    24533.504     8604.973        4.660        2.348      214.338       92.943        0.188      347.594       26.675      855.698
09/03/2014  18:36:00       88.798      214.840        6.347       97.538      150.243       83.406     9513.643    22573.067     6956.530        4.655        1.952      232.468       85.630        0.136      347.568       26.629      855.706
09/03/2014  18:37:00      166.395      203.009        8.132      132.587      124.880      103.434    17579.264    15595.050    10698.609        5.641        2.194      262.488       92.591        0.124      347.580       26.650      855.712
09/03/2014  18:38:00      116.414      217.931        0.125      141.598      168.271       77.389    20050.090    28315.139     5989.008        5.769        2.718      247.076       80.496        0.106      347.545       26.590      855.713
09/03/2014  18:39:00      171.287      285.470        3.634      156.321      170.224      109.384    24436.151    28976.376    11964.830        8.810        3.269      332.915       95.102        0.082      347.529       26.560      855.718
09/03/2014  18:40:00      107.173      152.488       -2.557      110.175       89.369       77.118    12138.538     7986.813     5947.139        3.040        1.304      186.383       56.901        0.093      347.518       26.543      855.725
09/03/2014  18:41:00       71.632      259.536      -13.859      111.097      151.369       82.882    12342.521    22912.501     6869.425        5.739        2.106      269.240       87.747        0.106      347.513       26.533      855.714
09/03/2014  18:42:00      156.768      219.601       -6.775      165.039      158.724       89.180    27237.866    25193.170     7953.011        6.660        3.019      269.816       90.405        0.112      347.486       26.485      855.703
09/03/2014  18:43:00       73.843      244.945      -16.626       98.553      158.029       77.932     9712.664    24973.060     6073.440        5.324        2.038      255.834       88.962        0.121      347.483       26.481      855.705
09/03/2014  18:44:00       96.186      193.298        1.585      105.975      101.091       73.196    11230.805    10219.304     5357.649        3.671        1.340      215.907       62.897        0.085      347.464       26.447      855.702
09/03/2014  18:45:00      152.030      150.579       11.569      131.379       94.435       78.618    17260.366     8918.057     6180.787        3.913        1.618      213.980       53.834        0.063      347.467       26.455      855.706
09/03/2014  18:46:00      176.855      275.937       -4.753      118.636      166.426      110.353    14074.472    27697.709    12177.749        8.068        2.697      327.748       95.704        0.085      347.453       26.427      855.702
09/03/2014  18:47:00      133.299      248.164      -13.645      124.589      150.953       89.708    15522.356    22786.785     8047.554        6.294        2.318      281.698       88.905        0.100      347.451       26.425      855.715
09/03/2014  18:48:00       61.723      289.473      -22.154      106.171      165.861       92.805    11272.235    27509.784     8612.789        6.774        2.370      295.981      106.608        0.130      347.445       26.416      855.728
09/03/2014  18:49:00       40.009      264.578      -15.354      114.230      201.775       75.424    13048.602    40713.204     5688.744        6.563        2.973      267.586       93.250        0.121      347.454       26.432      855.735
09/03/2014  18:50:00       60.907      109.126        5.320       67.002       90.136       53.024     4489.254     8124.533     2811.578        1.553        0.771      124.972       52.213        0.175      347.447       26.423      855.737
09/03/2014  18:51:00       54.544      219.026      -25.527       66.079      100.281       54.354     4366.403    10056.183     2954.408        3.448        0.869      225.715       56.226        0.062      347.428       26.385      855.746
09/03/2014  18:52:00      103.939      153.455        2.564      103.635      102.254       63.053    10740.249    10455.975     3975.708        2.976        1.259      185.342       58.595        0.100      347.443       26.411      855.758
09/03/2014  18:53:00      181.730      117.386       34.858      134.482       84.592       57.022    18085.486     7155.872     3251.492        3.825        1.425      216.346       26.487        0.015      347.423       26.378      855.753
09/03/2014  18:54:00      178.812      178.821       25.677      142.263      100.571       81.653    20238.659    10114.462     6667.141        5.081        1.851      252.885       59.701        0.056      347.421       26.374      855.760
09/03/2014  18:55:00      167.365      135.223       26.313      119.290       76.043       63.948    14230.004     5782.527     4089.319        3.554        1.205      215.166       48.570        0.051      347.394       26.328      855.765
09/03/2014  18:56:00       97.505      139.962      -10.714       79.518       81.561       51.254     6323.117     6652.128     2626.940        2.240        0.780      170.578       44.426        0.068      347.378       26.302      855.787
09/03/2014  18:57:00      223.533      162.362       18.337      119.375       80.444       59.455    14250.374     6471.169     3534.902        5.046        1.213      276.275       42.745        0.024      347.410       26.354      855.777
09/03/2014  18:58:00      130.605      119.631       22.433      108.733       76.541       67.993    11822.960     5858.536     4623.018        2.708        1.115      177.114       39.951        0.051      347.363       26.275      855.784
09/03/2014  18:59:00       80.562      154.233      -11.570       65.839      103.428       53.800     4334.741    10697.403     2894.412        2.417        0.896      174.006       53.725        0.095      347.357       26.266      855.793
09/03/2014  19:00:00       89.734      385.678      -50.947       99.789      179.302       88.322     9957.805    32149.177     7800.818       10.464        2.495      395.980      100.633        0.065      347.354       26.259      855.781
09/03/2014  19:01:00      128.999      213.620       -7.246      107.417      151.998       97.373    11538.375    23103.380     9481.583        5.322        2.206      249.548       84.088        0.114      347.326       26.211      855.782
09/03/2014  19:02:00       31.296      265.654      -19.408      102.414      188.575       78.575    10488.562    35560.708     6174.028        6.207        2.611      267.491       97.902        0.134      347.320       26.201      855.797
09/03/2014  19:03:00       16.970      176.577      -14.243       57.850       92.690       51.915     3346.676     8591.392     2695.133        2.315        0.732      177.391       44.810        0.064      347.280       26.131      855.800
09/03/2014  19:04:00       58.868      178.185       -7.567       83.906      130.592       78.457     7040.295    17054.302     6155.579        3.276        1.513      187.658       76.160        0.165      347.283       26.139      855.788
09/03/2014  19:05:00       46.095      149.746      -15.396       58.557       64.654       47.067     3428.943     4180.126     2215.337        1.730        0.491      156.680       44.905        0.082      347.268       26.113      855.786
09/03/2014  19:06:00       45.482      153.023      -11.631       58.183      106.814       41.686     3385.252    11409.169     1737.684        2.107        0.827      159.639       50.425        0.100      347.259       26.095      855.804
09/03/2014  19:07:00       23.624      270.701      -17.041       81.330      116.267       69.935     6614.647    13518.072     4890.911        4.957        1.251      271.730       68.185        0.063      347.229       26.043      855.801
09/03/2014  19:08:00       68.476      258.857      -22.215       71.897      147.580       84.230     5169.124    21779.748     7094.685        5.311        1.702      267.761       93.152        0.121      347.240       26.062      855.794
09/03/2014  19:09:00       36.236      145.302      -11.212       70.466       99.497       43.923     4965.464     9899.653     1929.207        1.967        0.840      149.752       50.309        0.113      347.220       26.029      855.812
09/03/2014  19:10:00       28.550      277.111      -20.524       93.831      114.291       64.521     8804.210    13062.531     4162.910        5.202        1.301      278.578       72.185        0.067      347.224       26.034      855.813
09/03/2014  19:11:00       54.580      347.035      -37.518       77.311      168.061       70.446     5976.935    28244.394     4962.642        8.199        1.959      351.300       92.641        0.070      347.235       26.055      855.807
09/03/2014  19:12:00       27.655      189.144        3.317       75.718      125.348       69.826     5733.156    15712.035     4875.680        3.143        1.316      191.155       73.852        0.149      347.185       25.968      855.826
09/03/2014  19:13:00       31.269      268.322      -38.852       69.963       84.251       46.986     4894.821     7098.240     2207.718        4.434        0.710      270.138       49.241        0.033      347.201       25.994      855.828
09/03/2014  19:14:00       37.018      230.811      -18.822       62.859       89.249       52.937     3951.203     7965.409     2802.353        3.486        0.736      233.761       55.788        0.057      347.167       25.936      855.833
09/03/2014  19:15:00      -14.553      189.918      -18.161       52.112       95.902       46.600     2715.628     9197.164     2171.583        2.534        0.704      190.475       53.123        0.078      347.151       25.911      855.841
09/03/2014  19:16:00        2.415      215.404      -20.203       57.154       78.672       49.848     3266.613     6189.337     2484.775        2.937        0.597      215.418       42.879        0.040      347.132       25.878      855.850
09/03/2014  19:17:00       -1.441      260.562      -29.455       75.155       93.680       49.314     5648.296     8776.013     2431.863        4.281        0.843      260.566       41.441        0.025      347.099       25.819      855.852
09/03/2014  19:18:00       15.877      176.984      -23.141       57.757      116.986       47.437     3335.903    13685.817     2250.223        2.569        0.964      177.695       63.009        0.126      347.111       25.842      855.847
09/03/2014  19:19:00       39.209      129.758        4.954       73.910      105.262       47.220     5462.627    11080.062     2229.717        1.858        0.939      135.552       49.892        0.135      347.070       25.771      855.852
09/03/2014  19:20:00       30.028      283.559      -29.371       64.336      109.373       59.016     4139.174    11962.441     3482.927        5.087        0.979      285.145       58.842        0.043      347.080       25.787      855.839
09/03/2014  19:21:00       29.625      257.585      -25.593       62.744      144.782       48.171     3936.855    20961.881     2320.453        4.755        1.361      259.283       60.364        0.054      347.047       25.731      855.841
09/03/2014  19:22:00       70.003      313.137      -46.709       79.561      156.225       76.093     6329.984    24406.277     5790.089        7.082        1.826      320.866       86.226        0.072      347.070       25.768      855.830
09/03/2014  19:23:00       50.052      174.660      -22.197       82.302      102.676       58.624     6773.680    10542.343     3436.742        2.712        1.038      181.690       61.817        0.116      347.020       25.684      855.839
09/03/2014  19:24:00       -5.855      264.428      -32.471       74.021       75.496       48.100     5479.090     5699.703     2313.652        4.225        0.675      264.493       40.271        0.023      347.027       25.693      855.840
09/03/2014  19:25:00       31.781      172.981      -11.826       78.404       85.896       59.899     6147.179     7378.084     3587.889        2.409        0.856      175.877       58.711        0.111      346.963       25.586      855.856
09/03/2014  19:26:00       38.263      240.634      -14.175       78.532      127.067       74.222     6167.286    16145.900     5508.848        4.369        1.391      243.657       79.562        0.107      346.987       25.627      855.859
09/03/2014  19:27:00        0.924      256.752      -31.563       58.849       74.625       42.203     3463.243     5568.818     1781.072        3.886        0.541      256.753       39.182        0.023      346.988       25.629      855.873
09/03/2014  19:28:00       26.049      210.112      -24.210       48.483       91.129       42.029     2350.631     8304.404     1766.472        2.891        0.621      211.721       49.040        0.054      346.953       25.569      855.889
09/03/2014  19:29:00        2.265      152.147      -15.448       62.316       62.883       34.244     3883.263     3954.279     1172.677        1.620        0.451      152.164       34.357        0.051      346.917       25.509      855.904
09/03/2014  19:30:00       40.404      213.277       -9.172       79.204      107.989       63.483     6273.316    11661.630     4030.083        3.458        1.098      217.071       65.994        0.092      346.905       25.484      855.909
09/03/2014  19:31:00       14.275      262.155      -34.417       59.234      114.272       47.187     3508.630    13058.120     2226.596        4.445        0.940      262.544       54.324        0.043      346.951       25.565      855.913
09/03/2014  19:32:00       44.542      305.858      -48.864       46.678       70.181       34.947     2178.837     4925.385     1221.306        5.312        0.416      309.084       31.546        0.010      346.935       25.536      855.919
09/03/2014  19:33:00        4.777      286.732      -38.834       77.398       98.815       52.904     5990.405     9764.424     2798.781        5.115        0.928      286.772       57.161        0.040      346.949       25.560      855.928
09/03/2014  19:34:00       17.062      217.769      -19.992       83.854      108.105       67.082     7031.480    11686.584     4499.958        3.566        1.161      218.437       62.804        0.083      346.879       25.439      855.929
09/03/2014  19:35:00       20.708      241.772      -18.969       57.255      160.733       72.599     3278.127    25835.170     5270.607        4.681        1.719      242.658       93.761        0.149      346.894       25.469      855.937
09/03/2014  19:36:00       37.903      121.004      -10.215       54.642       94.388       47.246     2985.733     8909.124     2232.218        1.515        0.706      126.801       53.033        0.175      346.837       25.373      855.950
09/03/2014  19:37:00       -6.456      175.502      -22.122       52.546       96.235       40.653     2761.060     9261.159     1652.652        2.250        0.684      175.621       48.683        0.077      346.844       25.382      855.956
09/03/2014  19:38:00       21.714      319.604      -32.239       94.900      119.243       62.234     9006.067    14218.850     3873.057        6.537        1.355      320.340       68.661        0.046      346.888       25.456      855.965
09/03/2014  19:39:00       15.243      203.032        0.232      106.921      126.848       67.629    11432.193    16090.432     4573.719        3.677        1.605      203.603       75.127        0.136      346.851       25.395      855.973
09/03/2014  19:40:00      -35.917      257.804      -34.024       59.096       69.634       38.464     3492.394     4848.915     1479.501        3.936        0.491      260.294       32.116        0.015      346.890       25.460      855.981
09/03/2014  19:41:00       34.036      259.416      -25.063       79.533       93.349       57.430     6325.439     8713.953     3298.227        4.371        0.917      261.640       57.669        0.049      346.826       25.350      855.979
09/03/2014  19:42:00      -10.373      256.763      -31.300       55.696       87.282       42.044     3101.995     7618.157     1767.672        3.975        0.624      256.972       44.614        0.030      346.847       25.385      855.987
09/03/2014  19:43:00       33.912      191.855      -18.688       54.796       83.400       52.426     3002.556     6955.605     2748.492        2.550        0.635      194.829       55.772        0.082      346.804       25.312      855.990
09/03/2014  19:44:00       22.081      193.268      -26.700       53.074      121.399       49.124     2816.871    14737.686     2413.176        2.926        0.998      194.526       62.743        0.104      346.786       25.284      855.999
09/03/2014  19:45:00      -19.164      238.011      -19.240       82.330       95.498       53.279     6778.255     9119.801     2838.672        3.806        0.937      238.781       44.327        0.034      346.779       25.267      856.009
09/03/2014  19:46:00      -22.251      272.812      -33.364       56.934      121.345       42.080     3241.435    14724.575     1770.725        4.788        0.987      273.717       53.153        0.038      346.796       25.298      856.011
09/03/2014  19:47:00       -1.894      229.332      -27.309       78.264       94.976       54.600     6125.184     9020.488     2981.132        3.573        0.906      229.340       57.653        0.063      346.784       25.276      856.018
09/03/2014  19:48:00        9.627      180.378      -22.665       56.692       76.150       38.888     3214.012     5798.760     1512.289        2.183        0.526      180.634       37.258        0.043      346.735       25.194      856.016
09/03/2014  19:49:00       20.978      321.391      -35.319       83.769      109.872       57.942     7017.216    12071.866     3357.319        6.371        1.122      322.075       60.204        0.035      346.795       25.295      856.013
09/03/2014  19:50:00        1.800      189.988      -18.367       67.265       83.434       48.435     4524.564     6961.207     2345.975        2.513        0.692      189.996       44.284        0.054      346.741       25.204      856.020
09/03/2014  19:51:00      -13.880      349.793      -52.638       82.515       75.381       49.520     6808.741     5682.300     2452.214        7.013        0.747      350.069       33.960        0.009      346.811       25.322      856.031
09/03/2014  19:52:00       14.931      318.948      -41.460       47.463       67.112       39.046     2252.691     4503.955     1524.567        5.597        0.414      319.297       36.743        0.013      346.768       25.248      856.032
09/03/2014  19:53:00      -10.591      266.516      -30.964       79.367       74.977       47.139     6299.081     5621.624     2222.095        4.312        0.707      266.727       36.625        0.019      346.741       25.201      856.037
09/03/2014  19:54:00       12.687      293.381      -36.301       60.290       78.881       40.481     3634.906     6222.243     1638.749        4.952        0.575      293.655       39.845        0.018      346.779       25.269      856.040
09/03/2014  19:55:00       20.912      212.867      -25.302       63.841       70.842       43.972     4075.637     5018.546     1933.507        2.871        0.551      213.891       36.423        0.029      346.731       25.187      856.047
09/03/2014  19:56:00       12.979      281.984      -36.265       72.396       93.679       41.452     5241.193     8775.722     1718.275        4.836        0.787      282.283       41.894        0.022      346.741       25.202      856.054
09/03/2014  19:57:00      -27.819      351.118      -43.243       78.406      103.228       51.040     6147.526    10655.997     2605.122        7.266        0.970      352.218       61.702        0.031      346.797       25.300      856.066
09/03/2014  19:58:00      -18.316      252.400      -33.580       61.728      104.356       40.138     3810.405    10890.112     1611.088        4.074        0.816      253.064       48.211        0.036      346.746       25.210      856.083
09/03/2014  19:59:00       10.764      327.647      -41.021       69.970      101.148       49.233     4895.833    10230.867     2423.870        6.335        0.878      327.824       57.838        0.031      346.754       25.226      856.098
09/03/2014  20:00:00       -7.846      294.861      -23.793       77.527      146.674       57.375     6010.440    21513.127     3291.937        5.919        1.541      294.965       69.797        0.056      346.747       25.213      856.118
09/03/2014  20:01:00       -0.714      292.866      -35.260       71.948      100.205       44.425     5176.573    10041.066     1973.596        5.210        0.860      292.867       46.069        0.025      346.736       25.192      856.137
09/03/2014  20:02:00      -10.092      285.894      -35.575       87.824       93.009       55.125     7712.988     8650.693     3038.811        5.125        0.970      286.072       56.769        0.039      346.750       25.218      856.155
09/03/2014  20:03:00      -10.052      215.535      -18.188       46.711       63.381       30.104     2181.939     4017.124      906.252        2.699        0.355      215.769       30.446        0.020      346.692       25.118      856.174
09/03/2014  20:04:00        1.339      286.740      -45.610       79.037       84.863       34.174     6246.865     7201.698     1167.870        4.946        0.731      286.744       31.945        0.012      346.722       25.170      856.193
09/03/2014  20:05:00      -63.074      247.746      -29.553       71.701       57.739       34.510     5140.985     3333.820     1190.919        3.795        0.483      255.649       26.479        0.011      346.700       25.130      856.203
09/03/2014  20:06:00      -79.875      192.937      -25.538       78.204       90.168       44.251     6115.938     8130.318     1958.174        3.023        0.810      208.818       35.768        0.029      346.659       25.062      856.220
09/03/2014  20:07:00      -47.562      198.916      -24.337       62.567       92.867       49.200     3914.620     8624.340     2420.612        2.869        0.748      204.523       49.390        0.058      346.672       25.086      856.241
09/03/2014  20:08:00      -85.380      175.785      -22.404       63.299       90.501       39.555     4006.814     8190.482     1564.637        2.622        0.688      195.423       44.241        0.051      346.646       25.040      856.254
09/03/2014  20:09:00      -31.096       83.498       -6.915       45.977       57.775       28.894     2113.887     3338.001      834.886        0.714        0.314       89.101       28.216        0.100      346.633       25.021      856.274
09/03/2014  20:10:00      -49.899      146.048      -11.900       53.158       70.791       40.115     2825.804     5011.301     1609.252        1.670        0.472      154.337       44.421        0.083      346.611       24.981      856.290
09/03/2014  20:11:00      -16.966      272.374      -29.427       66.882      106.329       36.137     4473.241    11305.923     1305.857        4.621        0.854      272.902       41.387        0.023      346.698       25.130      856.314
09/03/2014  20:12:00     -107.951      132.909      -29.014       51.381       78.060       39.167     2640.020     6093.362     1534.062        2.021        0.513      171.226       19.870        0.013      346.594       24.952      856.317
09/03/2014  20:13:00      -73.820      158.118      -21.561       35.736       68.158       27.022     1277.069     4645.477      730.182        1.878        0.333      174.501       25.210        0.021      346.590       24.945      856.348
09/03/2014  20:14:00      -97.955       97.908      -18.537       31.270       61.834       26.018      977.798     3823.416      676.913        1.250        0.274      138.496       28.039        0.041      346.526       24.836      856.355
09/03/2014  20:15:00     -143.821      106.831      -27.269       55.460       56.036       36.723     3075.769     3140.043     1348.590        2.020        0.378      179.157       29.976        0.028      346.406       24.629      856.384
09/03/2014  20:16:00     -143.803      104.630      -26.645       62.393       40.622       29.033     3892.937     1650.149      842.918        1.936        0.319      177.839       19.643        0.012      346.373       24.573      856.385
09/03/2014  20:17:00      -76.388      125.687      -23.399       36.217       59.927       19.031     1311.637     3591.196      362.182        1.372        0.263      147.080       20.689        0.020      346.437       24.683      856.394
09/03/2014  20:18:00     -129.893      104.686      -22.649       47.771       54.329       27.393     2282.098     2951.616      750.350        1.716        0.299      166.827       24.591        0.022      346.413       24.642      856.405
09/03/2014  20:19:00     -139.376      133.878      -26.893       53.791       63.372       38.603     2893.443     4015.962     1490.212        2.323        0.420      193.259       38.577        0.040      346.398       24.613      856.408
09/03/2014  20:20:00     -135.869      152.762      -36.264       51.471       52.817       29.765     2649.216     2789.607      885.978        2.472        0.316      204.442       33.341        0.027      346.380       24.583      856.428
09/03/2014  20:21:00     -134.281      110.547      -22.779       49.172       50.542       31.544     2417.912     2554.455      994.999        1.837        0.298      173.931       22.414        0.017      346.395       24.610      856.442
09/03/2014  20:22:00     -154.418      164.103      -45.206       47.156       50.889       27.462     2223.712     2589.731      754.151        2.919        0.278      225.332       21.579        0.009      346.395       24.608      856.467
09/03/2014  20:23:00     -141.294      146.039      -36.064       43.255       49.200       31.047     1870.959     2420.601      963.893        2.392        0.263      203.203       25.197        0.015      346.407       24.630      856.477
09/03/2014  20:24:00     -136.623      160.010      -43.060       49.873       61.635       31.897     2487.293     3798.857     1017.425        2.671        0.365      210.402       33.572        0.025      346.394       24.609      856.499
09/03/2014  20:25:00      -83.281       61.779      -13.120       40.087       56.164       26.466     1606.948     3154.396      700.446        0.819        0.273      103.693       30.455        0.086      346.344       24.525      856.510
09/03/2014  20:26:00     -115.398      107.325      -26.653       33.160       43.172       23.364     1099.584     1863.829      545.892        1.453        0.175      157.592       20.038        0.016      346.356       24.545      856.510
09/03/2014  20:27:00     -120.523      126.136      -26.761       42.929       54.282       31.542     1842.878     2946.552      994.917        1.847        0.289      174.459       33.345        0.037      346.393       24.607      856.528
09/03/2014  20:28:00     -134.166       86.174      -28.069       38.641       37.086       24.436     1493.091     1375.405      597.102        1.484        0.173      159.457       15.045        0.009      346.363       24.557      856.536
09/03/2014  20:29:00      -87.872       75.551      -21.894       32.587       34.506       21.814     1061.881     1190.660      475.856        0.832        0.136      115.886       15.236        0.017      346.312       24.468      856.549
09/03/2014  20:30:00      -90.750      101.434      -19.786       50.717       63.901       40.216     2572.196     4083.372     1617.364        1.359        0.414      136.104       39.967        0.086      346.300       24.448      856.561
09/03/2014  20:31:00     -139.391      112.401      -26.049       40.361       65.569       28.627     1629.023     4299.238      819.483        1.974        0.337      179.064       33.933        0.036      346.332       24.501      856.567
09/03/2014  20:32:00      -91.723      118.906      -28.840       40.131       40.628       24.455     1610.486     1650.633      598.044        1.362        0.193      150.172       24.612        0.027      346.303       24.454      856.568
09/03/2014  20:33:00      -92.715       58.608      -10.541       47.328       33.539       25.519     2239.942     1124.886      651.244        0.808        0.201      109.686       24.116        0.048      346.248       24.358      856.570
09/03/2014  20:34:00      -97.799       86.256      -15.090       37.402       44.999       25.104     1398.877     2024.911      630.231        1.064        0.203      130.402       19.765        0.023      346.245       24.354      856.580
09/03/2014  20:35:00      -77.856       49.775      -15.407       34.446       30.960       21.618     1186.532      958.525      467.341        0.569        0.131       92.408       16.456        0.032      346.232       24.332      856.583
09/03/2014  20:36:00      -99.743       59.615      -14.894       35.910       40.087       26.196     1289.519     1607.006      686.220        0.865        0.179      116.201       20.222        0.030      346.242       24.348      856.602
09/03/2014  20:37:00     -100.632       78.898      -10.867       52.553       46.715       32.634     2761.849     2182.297     1064.948        1.124        0.300      127.874       33.590        0.069      346.202       24.278      856.610
09/03/2014  20:38:00     -114.420       58.339       -6.181       37.285       34.202       25.962     1390.169     1169.761      674.028        0.988        0.162      128.434       15.767        0.015      346.219       24.307      856.613
09/03/2014  20:39:00     -107.884       79.143      -20.758       35.789       34.369       28.917     1280.823     1181.256      836.219        1.082        0.165      133.801       22.991        0.030      346.181       24.243      856.627
09/03/2014  20:40:00     -133.930       73.352      -26.557       44.236       36.559       28.176     1956.832     1336.568      793.912        1.405        0.204      152.701       20.981        0.019      346.163       24.213      856.644
09/03/2014  20:41:00     -124.094       95.115      -21.764       55.082       52.634       37.275     3033.997     2770.329     1389.410        1.606        0.360      156.353       32.212        0.042      346.170       24.223      856.651
09/03/2014  20:42:00     -135.281      137.845      -35.859       41.352       58.735       27.127     1709.986     3449.793      735.876        2.224        0.295      193.138       29.116        0.023      346.146       24.182      856.673
09/03/2014  20:43:00     -113.196       71.595      -16.272       45.757       46.177       33.396     2093.715     2132.289     1115.269        1.177        0.267      133.937       27.861        0.043      346.083       24.075      856.694
09/03/2014  20:44:00     -103.467      126.497      -28.544       40.992       57.841       33.500     1680.331     3345.579     1122.225        1.683        0.307      163.422       30.552        0.035      346.137       24.166      856.715
09/03/2014  20:45:00     -121.315       99.998      -25.416       49.836       46.356       28.633     2483.640     2148.861      819.864        1.541        0.273      157.216       23.986        0.023      346.105       24.113      856.730
09/03/2014  20:46:00     -113.224       93.474      -16.902       66.008       35.755       28.918     4357.007     1278.390      836.250        1.416        0.324      146.823       26.121        0.032      346.024       23.973      856.751
09/03/2014  20:47:00      -69.554       83.767      -23.744       38.790       40.912       20.283     1504.639     1673.787      411.393        0.800        0.179      108.879       15.048        0.019      346.011       23.952      856.771
09/03/2014  20:48:00      -77.446       83.372      -12.031       38.134       54.664       27.286     1454.192     2988.203      744.548        0.914        0.259      113.793       20.982        0.034      346.078       24.066      856.788
09/03/2014  20:49:00      -69.536       67.562       -9.370       35.131       50.429       20.238     1234.213     2543.053      409.566        0.684        0.209       96.953       17.946        0.034      346.069       24.051      856.788
09/03/2014  20:50:00      -79.949       86.260      -11.211       35.573       46.241       23.357     1265.465     2138.189      545.538        0.895        0.197      117.612       18.023        0.023      345.991       23.917      856.797
09/03/2014  20:51:00     -103.378       77.648      -29.343       34.823       33.997       16.180     1212.644     1155.824      261.800        1.010        0.132      129.291       10.513        0.007      346.041       24.003      856.810
09/03/2014  20:52:00      -92.092      107.426      -21.651       79.065       67.284       39.933     6251.353     4527.142     1594.658        1.643        0.619      141.496       42.990        0.092      346.029       23.979      856.816
09/03/2014  20:53:00      -93.748       88.486      -24.765       56.407       55.140       37.303     3181.711     3040.440     1391.492        1.242        0.381      128.912       42.536        0.109      345.950       23.846      856.830
09/03/2014  20:54:00     -113.337      103.954      -20.649       43.095       57.054       29.088     1857.205     3255.182      846.130        1.502        0.298      153.791       17.111        0.012      345.935       23.820      856.843
09/03/2014  20:55:00     -128.475      134.182      -41.891       59.287       50.005       26.670     3514.993     2500.474      711.292        2.149        0.336      185.770       31.330        0.028      345.968       23.876      856.858
09/03/2014  20:56:00     -129.881       65.793      -19.075       38.568       41.517       23.176     1487.505     1723.647      537.126        1.265        0.187      145.595       17.632        0.015      345.984       23.905      856.863
09/03/2014  20:57:00     -144.753      115.428      -32.014       55.663       59.271       28.291     3098.424     3513.070      800.396        2.136        0.371      185.141       34.612        0.035      345.938       23.824      856.877
09/03/2014  20:58:00      -90.221      125.707      -22.812       42.284       68.447       31.390     1787.902     4684.992      985.336        1.596        0.373      154.732       20.802        0.018      345.868       23.705      856.883
09/03/2014  20:59:00     -122.095      106.188      -24.365       39.968       36.361       21.685     1597.465     1322.154      470.225        1.508        0.169      161.812       12.526        0.006      345.905       23.770      856.890
09/03/2014  21:00:00     -101.469       76.971      -17.208       40.338       47.253       23.176     1627.127     2232.855      537.148        1.046        0.220      127.360       20.479        0.026      345.864       23.700      856.908
09/03/2014  21:01:00     -140.240      153.109      -28.203       84.453       74.635       47.332     7132.386     5570.451     2240.275        2.942        0.747      207.628       52.171        0.063      345.887       23.736      856.909
09/03/2014  21:02:00     -155.294      114.206      -25.074       56.981       43.094       36.647     3246.842     1857.090     1342.997        2.212        0.322      192.768       31.648        0.027      345.900       23.758      856.904
09/03/2014  21:03:00     -137.537      119.384      -26.116       63.732       58.462       34.285     4061.758     3417.858     1175.454        2.125        0.433      182.124       32.394        0.032      345.841       23.658      856.925
09/03/2014  21:04:00     -163.321      137.707      -33.829       51.287       50.749       32.730     2630.404     2575.428     1071.241        2.653        0.314      213.628       28.652        0.018      345.853       23.678      856.923
09/03/2014  21:05:00     -152.442      151.002      -34.188       64.154       58.921       39.787     4115.688     3471.736     1583.043        2.819        0.459      214.569       33.966        0.025      345.853       23.678      856.923
09/03/2014  21:06:00     -107.470      117.360      -35.211       61.258       87.743       35.419     3752.517     7698.755     1254.509        1.963        0.635      159.132       38.455        0.058      345.851       23.675      856.936
09/03/2014  21:07:00      -95.382       75.589      -18.462       35.092       39.214       17.810     1231.469     1537.772      317.180        0.912        0.154      121.702       11.878        0.010      345.813       23.612      856.940
09/03/2014  21:08:00      -46.728       64.303        7.595       54.498       36.027       31.436     2969.994     1297.914      988.218        0.582        0.263       79.488       24.894        0.098      345.765       23.530      856.959
09/03/2014  21:09:00     -104.238       81.003      -15.511       44.918       41.498       24.100     2017.615     1722.095      580.817        1.099        0.216      132.012       24.532        0.035      345.721       23.455      856.971
09/03/2014  21:10:00      -62.113      134.109      -17.451       64.310       52.967       36.650     4135.772     2805.533     1343.235        1.521        0.414      147.794       29.746        0.041      345.700       23.418      856.990
09/03/2014  21:11:00      -78.171       74.588       -4.366       49.988       51.825       33.218     2498.777     2685.804     1103.465        0.899        0.314      108.047       30.155        0.078      345.726       23.461      857.004
09/03/2014  21:12:00      -79.884       77.623      -15.066       47.858       43.650       34.374     2290.403     1905.312     1181.548        0.900        0.269      111.386       29.479        0.070      345.673       23.371      857.020
09/03/2014  21:13:00      -39.022      127.976      -14.172       54.792       78.399       42.678     3002.148     6146.430     1821.443        1.453        0.549      133.793       21.046        0.025      345.779       23.553      857.029
09/03/2014  21:14:00      -88.918      165.636      -17.795       63.186       69.991       32.289     3992.497     4898.800     1042.589        2.279        0.497      187.994       28.906        0.024      345.710       23.433      857.039
09/03/2014  21:15:00      -26.056      104.791      -10.277       35.503       39.098       18.837     1260.460     1528.683      354.847        0.745        0.157      107.981       13.435        0.015      345.740       23.485      857.056
09/03/2014  21:16:00      -11.464       52.605        3.274       34.262       42.948       22.960     1173.913     1844.573      527.157        0.323        0.177       53.840       20.623        0.147      345.657       23.344      857.064
09/03/2014  21:17:00        7.531       37.313        8.459       31.970       26.306       20.370     1022.087      692.010      414.927        0.182        0.106       38.065       15.886        0.174      345.668       23.362      857.082
09/03/2014  21:18:00       51.823       23.632        6.674       28.539       17.311       22.552      814.484      299.671      508.591        0.246        0.081       56.957        6.194        0.012      345.592       23.231      857.093
09/03/2014  21:19:00        3.877       12.782       30.679       14.677       18.797       16.552      215.422      353.325      273.961        0.098        0.042       13.357       11.137        0.695      345.484       23.048      857.121
09/03/2014  21:20:00        4.281       34.475       51.305       15.547       24.266       12.614      241.706      588.830      159.121        0.241        0.049       34.739        9.046        0.068      345.461       23.008      857.131
09/03/2014  21:21:00       -5.923        9.762       43.938       21.350       34.514       19.989      455.815     1191.221      399.578        0.205        0.102       11.419       19.512        2.920      345.424       22.945      857.144
09/03/2014  21:22:00        3.733        4.985       31.228       14.857       27.022       16.221      220.721      730.170      263.119        0.111        0.061        6.227       12.463        4.005      345.399       22.902      857.151
09/03/2014  21:23:00       -1.515       34.373       57.513       24.576       30.616       16.770      603.969      937.333      281.220        0.316        0.091       34.407       13.559        0.155      345.450       22.989      857.169
09/03/2014  21:24:00        1.405      -11.215       30.567       28.252       54.471       27.489      798.167     2967.067      755.668        0.279        0.226       11.302       31.436        7.736      345.484       23.048      857.173
09/03/2014  21:25:00       18.355        3.024       27.893       23.495       44.336       18.156      552.022     1965.653      329.645        0.199        0.142       18.602       15.062        0.656      345.464       23.013      857.177
09/03/2014  21:26:00       78.911       44.504        2.379       22.956       25.948       22.265      526.986      673.275      495.719        0.495        0.085       90.595       12.659        0.020      345.715       23.444      857.196
09/03/2014  21:27:00       13.147       27.648        3.400       19.155       13.813       12.577      366.930      190.793      158.177        0.083        0.036       30.615        9.832        0.103      345.658       23.347      857.195
09/03/2014  21:28:00        2.107       34.748       -2.856       18.174       17.267        7.999      330.301      298.136       63.989        0.096        0.035       34.812        7.387        0.045      345.633       23.304      857.204
09/03/2014  21:29:00        9.666       65.083      -12.397       13.306       20.976       10.646      177.060      440.007      113.336        0.261        0.037       65.797       11.653        0.031      345.617       23.274      857.209
09/03/2014  21:30:00        6.659       61.443       -2.910       28.446       24.290       15.822      809.186      589.991      250.332        0.274        0.082       61.802       16.976        0.075      345.668       23.364      857.206
09/03/2014  21:31:00        8.833       52.640       -2.413       20.509       25.003       13.717      420.638      625.139      188.166        0.204        0.062       53.376       12.608        0.056      345.742       23.491      857.212
09/03/2014  21:32:00      -22.034       66.058      -12.834       22.180       16.762        9.751      491.967      280.950       95.086        0.294        0.043       69.636        4.951        0.005      345.689       23.399      857.234
09/03/2014  21:33:00      -77.501       47.650      -15.016       17.887       24.048       14.243      319.928      578.288      202.874        0.480        0.055       90.978        7.383        0.007      345.482       23.044      857.241
09/03/2014  21:34:00      -38.309       66.863       -9.369       31.795       22.702       10.498     1010.929      515.402      110.211        0.383        0.082       77.060       11.822        0.024      345.467       23.016      857.255
09/03/2014  21:35:00      -50.864       71.310      -14.234       52.080       20.949       19.630     2712.337      438.873      385.325        0.571        0.177       87.592       15.945        0.033      345.541       23.144      857.261
09/03/2014  21:36:00      -23.913      109.321      -24.675       34.624       36.942       20.418     1198.813     1364.700      416.914        0.806        0.149      111.906       16.479        0.022      345.530       23.126      857.255
09/03/2014  21:37:00      -18.836       79.142      -10.949       16.770       32.278       15.034      281.239     1041.861      226.027        0.414        0.077       81.352       14.984        0.034      345.395       22.894      857.256
09/03/2014  21:38:00      -22.356      113.498      -21.218       22.882       33.871       13.298      523.597     1147.234      176.845        0.784        0.092      115.679       12.674        0.012      345.449       22.988      857.262
09/03/2014  21:39:00      -26.464       55.955      -13.574       37.368       20.166       12.745     1396.382      406.673      162.423        0.299        0.098       61.897        3.925        0.004      345.330       22.783      857.256
09/03/2014  21:40:00      -54.670       27.894       -6.303       21.503       18.266       12.648      462.362      333.659      159.967        0.238        0.048       61.375        9.927        0.026      345.328       22.781      857.268
09/03/2014  21:41:00      -64.832       18.541       -5.919       18.916       24.718       17.043      357.823      610.979      290.475        0.292        0.063       67.432       13.352        0.039      345.371       22.853      857.272
09/03/2014  21:42:00      -67.364       10.922       -7.434       28.627       32.504       14.255      819.500     1056.487      203.195        0.340        0.104       68.244       14.361        0.044      345.464       23.013      857.277
09/03/2014  21:43:00      -46.512        3.417       -3.093       21.930       20.337       11.030      480.907      413.610      121.658        0.160        0.051       46.637        7.707        0.027      345.319       22.763      857.278
09/03/2014  21:44:00      -35.797        3.765       -7.624       13.709       21.337       11.282      187.942      455.251      127.282        0.106        0.039       35.994        8.397        0.054      345.362       22.838      857.287
09/03/2014  21:45:00      -53.757      -22.887       -8.401       16.287       20.131       11.780      265.268      405.246      138.769        0.215        0.040       58.426        9.844        0.028      345.452       22.990      857.288
09/03/2014  21:46:00      -55.250      -23.397        3.501       31.241       23.068       12.479      976.008      532.148      155.718        0.264        0.083       60.000       15.095        0.063      345.333       22.787      857.304
09/03/2014  21:47:00      -57.821      -20.148       -1.541       25.890       21.803       12.311      670.303      475.385      151.554        0.252        0.065       61.231       13.375        0.048      345.334       22.792      857.311
09/03/2014  21:48:00      -77.148      -60.038       -0.784       35.323       23.000       17.562     1247.747      529.002      308.414        0.582        0.104       97.757       13.677        0.020      345.241       22.631      857.307
09/03/2014  21:49:00      -87.710      -46.311       -4.489       32.238       29.974       19.972     1039.312      898.466      398.866        0.610        0.117       99.185       14.964        0.023      345.119       22.422      857.312
09/03/2014  21:50:00      -70.621      -21.167        2.271       37.775       25.173       18.504     1426.980      633.704      342.414        0.392        0.120       73.725       17.659        0.057      345.051       22.304      857.328
09/03/2014  21:51:00     -120.792      -64.072        0.368       40.372       24.856       18.682     1629.871      617.805      349.001        1.065        0.130      136.733       22.557        0.027      345.008       22.234      857.334
09/03/2014  21:52:00     -147.989      -36.391       -4.065       40.381       34.294       20.226     1630.610     1176.052      409.087        1.323        0.161      152.398       18.367        0.015      344.977       22.179      857.338
09/03/2014  21:53:00      -98.540      -77.899       -0.446       53.903       41.484       27.426     2905.507     1720.939      752.166        1.058        0.269      125.612       27.974        0.050      344.951       22.134      857.348
09/03/2014  21:54:00      -64.739      -58.135        1.203       46.898       35.079       28.974     2199.386     1230.566      839.482        0.592        0.213       87.011       33.234        0.146      344.927       22.094      857.358
09/03/2014  21:55:00      -53.624      -49.676        1.435       42.084       27.628       22.974     1771.084      763.281      527.797        0.420        0.153       73.097       19.685        0.073      344.935       22.108      857.356
09/03/2014  21:56:00      -57.382      -51.538       10.309       39.985       42.450       26.178     1598.790     1802.030      685.279        0.507        0.204       77.129       24.428        0.100      344.894       22.038      857.356
09/03/2014  21:57:00      -37.379      -55.198       12.626       43.433       32.919       26.413     1886.447     1083.640      697.664        0.413        0.183       66.663       24.808        0.138      344.964       22.158      857.366
09/03/2014  21:58:00      -54.246      -33.452        7.017       36.236       27.174       20.153     1313.040      738.426      406.128        0.328        0.123       63.731       19.986        0.098      344.922       22.084      857.377
09/03/2014  21:59:00      -47.347      -50.453        9.866       53.437       36.889       24.113     2855.462     1360.816      581.443        0.484        0.240       69.190       26.544        0.147      344.918       22.078      857.379
09/03/2014  22:00:00      -21.903      -33.568       11.415       29.096       31.001       17.836      846.563      961.035      318.138        0.193        0.106       40.082       17.564        0.192      344.891       22.033      857.387
09/03/2014  22:01:00      -28.961      -52.327        4.228       34.938       29.870       18.115     1220.672      892.209      328.164        0.302        0.122       59.806       18.971        0.101      344.958       22.146      857.398
09/03/2014  22:02:00      -23.224      -49.528       -1.936       22.215       20.815       12.541      493.526      433.273      157.266        0.204        0.054       54.703       10.905        0.040      344.977       22.178      857.408
09/03/2014  22:03:00      -11.673      -33.432       -3.035       18.786       11.723       14.600      352.931      137.425      213.166        0.098        0.035       35.411        8.750        0.061      344.982       22.185      857.417
09/03/2014  22:04:00      -35.307      -15.079        6.229       34.051       17.815       13.860     1159.474      317.362      192.106        0.159        0.083       38.392       12.238        0.102      344.917       22.076      857.425
09/03/2014  22:05:00      -38.090      -31.224        3.277       35.062       14.774       12.474     1229.372      218.272      155.597        0.202        0.080       49.253       15.325        0.097      344.817       21.907      857.441
09/03/2014  22:06:00      -30.511        3.336       -0.625       16.833       17.176        9.426      283.354      295.005       88.858        0.080        0.033       30.693        7.700        0.063      344.800       21.876      857.451
09/03/2014  22:07:00       -7.523      -20.320        4.280       11.662       22.417       12.490      135.992      502.513      155.993        0.064        0.040       21.668        8.090        0.139      344.691       21.690      857.452
09/03/2014  22:08:00      -11.016      -33.102       11.074       18.661       23.638       15.048      348.240      558.771      226.447        0.124        0.057       34.887       13.367        0.147      344.869       21.995      857.469
09/03/2014  22:09:00       33.168       32.360       14.350       15.493       19.478       14.012      240.025      379.389      196.339        0.158        0.041       46.338        8.002        0.030      344.576       21.494      857.486
09/03/2014  22:10:00        5.202        5.570       16.621       11.113        9.676        5.726      123.490       93.631       32.790        0.029        0.012        7.621        5.581        0.536      344.414       21.216      857.493
09/03/2014  22:11:00       14.088      -69.966       -4.124       15.749       23.985        8.898      248.037      575.263       79.173        0.301        0.045       71.370       12.140        0.029      344.723       21.744      857.507
09/03/2014  22:12:00        8.925      -84.120        3.197       14.102       17.267       13.033      198.860      298.151      169.863        0.392        0.033       84.592        8.436        0.010      344.834       21.934      857.520
09/03/2014  22:13:00       26.350        8.946       11.802       22.394       47.929       14.250      501.496     2297.206      203.052        0.196        0.150       27.828       15.215        0.299      344.615       21.561      857.526
09/03/2014  22:14:00       -1.404       16.522       18.951       21.708       13.893       12.202      471.254      193.005      148.885        0.072        0.041       16.581       10.554        0.405      344.534       21.421      857.543
09/03/2014  22:15:00       -6.729      -27.117       20.519        9.426       22.558       12.585       88.853      508.883      158.377        0.098        0.038       27.940        7.380        0.070      344.645       21.611      857.556
09/03/2014  22:16:00       24.690       37.884        6.849       15.674        9.841       12.902      245.663       96.853      166.464        0.130        0.025       45.219        9.110        0.041      344.750       21.793      857.575
09/03/2014  22:17:00       -5.689       33.937       -4.718       28.380       49.308       22.275      805.397     2431.276      496.186        0.247        0.187       34.411        8.931        0.067      344.844       21.951      857.586
09/03/2014  22:18:00        1.724       69.413      -10.492       10.024       17.450        8.989      100.476      304.495       80.803        0.271        0.024       69.434        5.227        0.006      344.836       21.937      857.598
09/03/2014  22:19:00       17.152       50.088       -6.644       12.058       24.045       14.701      145.386      578.176      216.117        0.189        0.047       52.944       16.282        0.095      344.788       21.856      857.597
09/03/2014  22:20:00       26.679       22.166        4.115       12.557        9.751       12.174      157.669       95.079      148.217        0.081        0.020       34.686        8.400        0.059      344.741       21.774      857.599
09/03/2014  22:21:00       16.527       -2.814       -3.360       11.089       14.799        5.559      122.960      219.013       30.900        0.033        0.019       16.765        4.293        0.066      344.669       21.653      857.600
09/03/2014  22:22:00        8.180        9.820       -1.591       15.004       19.341        9.703      225.111      374.056       94.148        0.043        0.035       12.781        8.450        0.437      344.702       21.708      857.595
09/03/2014  22:23:00        5.660       24.929       -3.917       14.795       30.436       10.323      218.879      926.324      106.555        0.096        0.063       25.564       13.550        0.281      344.764       21.813      857.597
09/03/2014  22:24:00        7.115       62.601       -4.202       27.046       35.219       15.280      731.506     1240.382      233.467        0.310        0.110       63.004       16.302        0.067      344.798       21.872      857.592
09/03/2014  22:25:00        0.419       75.394      -13.503       21.856       25.607       11.084      477.703      655.693      122.858        0.356        0.063       75.395       10.838        0.021      344.819       21.909      857.584
09/03/2014  22:26:00       -0.884      145.553      -22.342       34.360       25.895       15.918     1180.634      670.564      253.374        1.189        0.105      145.555       14.549        0.010      344.820       21.909      857.583
09/03/2014  22:27:00        6.416      184.771      -30.400       29.548       38.514       16.720      873.094     1483.366      279.560        1.887        0.132      184.882       15.749        0.007      344.817       21.905      857.587
09/03/2014  22:28:00      -25.183      121.314      -20.768       46.805       53.556       26.152     2190.751     2868.225      683.951        1.076        0.287      123.901       34.723        0.079      344.705       21.714      857.572
09/03/2014  22:29:00      -13.315       91.987      -16.049       31.515       36.692       15.011      993.178     1346.268      225.344        0.573        0.128       92.946       17.563        0.036      344.698       21.702      857.565
09/03/2014  22:30:00       -5.401      108.533      -14.618       19.698       31.460       14.960      387.998      989.729      223.807        0.681        0.080      108.668       14.730        0.018      344.688       21.683      857.571
09/03/2014  22:31:00      -34.634       77.047       -2.998       36.621       55.310       23.601     1341.130     3059.176      557.016        0.605        0.248       84.474       20.753        0.060      344.521       21.400      857.556
09/03/2014  22:32:00      -85.036       59.264       -8.351       41.828       45.879       25.511     1749.575     2104.874      650.816        0.766        0.225      103.650       16.482        0.025      344.614       21.556      857.553
09/03/2014  22:33:00      -69.969       44.719      -13.428       33.820       29.818       21.022     1143.763      889.139      441.930        0.477        0.124       83.039       16.613        0.040      344.655       21.627      857.556
09/03/2014  22:34:00      -99.406       15.576      -20.964       46.360       25.682       24.507     2149.261      659.568      600.569        0.699        0.170      100.619       20.981        0.043      344.712       21.724      857.551
09/03/2014  22:35:00      -62.013       46.643      -11.851       45.886       22.523       16.512     2105.517      507.300      272.647        0.452        0.144       77.596       14.412        0.034      344.586       21.509      857.549
09/03/2014  22:36:00      -89.230       47.639      -13.352       43.998       29.640       24.285     1935.794      878.506      589.755        0.691        0.170      101.150       19.633        0.038      344.659       21.634      857.546
09/03/2014  22:37:00     -144.060      106.538      -22.479       48.038       52.667       26.403     2307.672     2773.792      697.099        1.919        0.289      179.175       29.891        0.028      344.690       21.685      857.542
09/03/2014  22:38:00     -112.109       86.901      -19.034       45.293       45.764       31.044     2051.474     2094.353      963.754        1.279        0.255      141.846       28.385        0.040      344.707       21.716      857.540
09/03/2014  22:39:00      -99.119       71.182      -20.132       42.629       28.556       23.753     1817.223      815.459      564.191        0.925        0.160      122.030       17.158        0.020      344.713       21.728      857.543
09/03/2014  22:40:00     -115.785      108.531      -21.463       39.776       55.367       31.384     1582.164     3065.455      984.930        1.564        0.282      158.698       29.812        0.035      344.699       21.702      857.540
09/03/2014  22:41:00     -134.395      135.667      -27.088       54.092       57.666       34.639     2925.911     3325.311     1199.866        2.232        0.373      190.965       38.415        0.040      344.687       21.681      857.532
09/03/2014  22:42:00     -131.330      155.644      -38.176       50.021       66.366       33.483     2502.112     4404.394     1121.118        2.548        0.401      203.648       26.226        0.017      344.666       21.643      857.535
09/03/2014  22:43:00     -166.880      122.780      -30.980       48.207       59.271       35.562     2323.895     3512.994     1264.665        2.549        0.355      207.181       31.601        0.023      344.657       21.629      857.534
09/03/2014  22:44:00     -131.946      102.813      -27.066       66.728       53.445       32.861     4452.591     2856.331     1079.820        1.855        0.419      167.273       30.040        0.032      344.593       21.520      857.527
09/03/2014  22:45:00     -164.750      123.223      -37.979       51.605       50.011       29.935     2663.088     2501.130      896.093        2.491        0.303      205.734       29.852        0.021      344.645       21.609      857.524
09/03/2014  22:46:00     -113.301       64.674      -23.996       47.769       48.228       31.969     2281.870     2325.893     1022.014        1.161        0.281      130.460       21.765        0.028      344.598       21.529      857.535
09/03/2014  22:47:00      -66.184      110.829      -26.767       56.373       46.446       34.454     3177.953     2157.215     1187.059        1.195        0.326      129.087       35.162        0.074      344.625       21.577      857.530
09/03/2014  22:48:00     -125.329      105.699      -16.517       63.592       74.334       41.585     4043.947     5525.584     1729.285        1.922        0.565      163.950       33.119        0.041      344.565       21.471      857.521
09/03/2014  22:49:00      -89.986      155.648      -19.275       43.571       44.918       37.008     1898.422     2017.647     1369.593        1.899        0.264      179.788       34.972        0.038      344.534       21.420      857.522
09/03/2014  22:50:00      -92.471       82.079      -18.060       41.283       40.323       25.710     1704.280     1625.925      661.008        0.980        0.200      123.644       18.149        0.022      344.518       21.394      857.530
09/03/2014  22:51:00     -155.382      140.604      -37.304       42.717      100.585       38.732     1824.782    10117.278     1500.156        2.937        0.672      209.554       40.139        0.037      344.590       21.514      857.522
09/03/2014  22:52:00     -158.298      108.664      -36.035       45.167       80.058       28.573     2040.059     6409.229      816.418        2.371        0.463      192.005       25.481        0.018      344.547       21.442      857.526
09/03/2014  22:53:00     -120.184       74.676      -10.765       84.098       43.930       38.525     7072.529     1929.855     1484.203        1.531        0.524      141.494       41.021        0.084      344.445       21.266      857.536
09/03/2014  22:54:00     -124.943      116.944      -20.808       58.854       50.442       37.635     3463.735     2544.364     1416.408        1.857        0.371      171.134       34.278        0.040      344.431       21.243      857.542
09/03/2014  22:55:00     -121.056       27.680      -11.724       45.947       77.086       30.633     2111.089     5942.256      938.357        1.227        0.450      124.180       19.965        0.026      344.442       21.264      857.556
09/03/2014  22:56:00      -67.701       75.589       -9.431       52.561       56.335       35.570     2762.697     3173.620     1265.252        0.879        0.360      101.474       38.754        0.146      344.356       21.116      857.581
09/03/2014  22:57:00     -157.514      141.143      -33.960       64.531       66.779       35.831     4164.266     4459.480     1283.829        2.789        0.495      211.499       38.537        0.033      344.429       21.237      857.583
09/03/2014  22:58:00     -155.112      149.061      -31.854       48.959       68.271       43.193     2396.969     4660.984     1865.625        2.811        0.446      215.125       36.328        0.029      344.384       21.161      857.596
09/03/2014  22:59:00     -149.603      149.123      -32.342       69.564       70.639       39.323     4839.188     4989.886     1546.312        2.852        0.569      211.231       41.594        0.039      344.423       21.229      857.608
09/03/2014  23:00:00     -128.758      153.283      -26.941       54.578       62.463       38.373     2978.812     3901.671     1472.463        2.457        0.418      200.186       35.431        0.031      344.366       21.132      857.624
09/03/2014  23:01:00     -101.040      121.979      -19.827       44.891       45.499       25.874     2015.209     2070.121      669.451        1.512        0.238      158.392       20.939        0.017      344.368       21.137      857.639
09/03/2014  23:02:00     -129.058      104.697      -32.365       31.300       47.264       23.035      979.711     2233.877      530.594        1.620        0.187      166.184       14.515        0.008      344.365       21.132      857.651
09/03/2014  23:03:00      -85.205       76.108      -11.578       48.145       43.782       32.416     2317.903     1916.820     1050.825        0.923        0.264      114.247       32.397        0.080      344.319       21.054      857.652
09/03/2014  23:04:00      -92.288       68.509      -14.864       35.397       35.900       25.033     1252.926     1288.801      626.649        0.830        0.158      114.937       17.631        0.024      344.303       21.025      857.651
09/03/2014  23:05:00      -84.537       78.140      -17.523       33.118       37.690       21.285     1096.805     1420.562      453.059        0.826        0.149      115.120       15.814        0.019      344.281       20.988      857.662
09/03/2014  23:06:00     -114.954      134.680      -27.310       33.967       58.019       27.804     1153.723     3366.170      773.077        1.869        0.265      177.068       25.387        0.021      344.311       21.040      857.663
09/03/2014  23:07:00     -148.261      165.966      -36.638       39.019       53.091       26.920     1522.493     2818.629      724.660        2.797        0.253      222.544       21.037        0.009      344.274       20.973      857.656
09/03/2014  23:08:00     -102.566      124.406      -21.870       42.592       36.824       30.163     1814.049     1355.988      909.820        1.528        0.204      161.235       23.213        0.021      344.246       20.928      857.651
09/03/2014  23:09:00     -130.443      134.714      -31.776       44.896       53.486       26.564     2015.644     2860.758      705.653        2.088        0.279      187.519       18.377        0.010      344.271       20.970      857.648
09/03/2014  23:10:00     -110.420      138.608      -22.867       31.576       37.824       20.653      997.035     1430.638      426.533        1.739        0.143      177.214       14.032        0.006      344.298       21.016      857.646
09/03/2014  23:11:00     -128.649      117.790      -25.922       45.378       42.410       32.225     2059.191     1798.641     1038.443        1.800        0.245      174.428       28.138        0.026      344.339       21.088      857.649
09/03/2014  23:12:00     -107.366      117.700      -19.319       44.447       53.446       28.371     1975.580     2856.479      804.930        1.569        0.282      159.313       32.382        0.041      344.299       21.018      857.663
09/03/2014  23:13:00     -131.329      142.825      -27.362       50.371       61.798       32.130     2537.240     3819.044     1032.363        2.289        0.369      194.027       24.598        0.016      344.357       21.117      857.666
09/03/2014  23:14:00     -113.650      164.568      -32.110       37.436       57.044       25.743     1401.457     3253.966      662.719        2.317        0.266      199.997       19.779        0.010      344.365       21.131      857.672
09/03/2014  23:15:00     -113.303      156.324      -30.516       38.817       43.105       27.995     1506.782     1858.035      783.705        2.118        0.207      193.067       21.533        0.012      344.277       20.979      857.681
09/03/2014  23:16:00      -95.192       94.114      -19.740       42.539       48.371       28.110     1809.530     2339.793      790.177        1.162        0.247      133.862       25.228        0.036      344.238       20.915      857.680
09/03/2014  23:17:00     -110.608      134.780      -30.371       56.091       51.720       33.832     3146.219     2674.943     1144.592        1.914        0.348      174.356       36.797        0.045      344.247       20.930      857.690
09/03/2014  23:18:00     -159.601      132.180      -30.050       48.915       57.281       39.250     2392.658     3281.157     1540.562        2.553        0.361      207.229       33.859        0.027      344.330       21.070      857.713
09/03/2014  23:19:00     -109.126      120.589      -22.191       69.078       54.289       37.663     4771.812     2947.290     1418.524        1.804        0.457      162.635       39.027        0.058      344.277       20.980      857.714
09/03/2014  23:20:00     -138.019      168.644      -30.836       56.161       63.745       35.289     3154.021     4063.444     1245.310        2.845        0.423      217.922       25.908        0.014      344.309       21.032      857.718
09/03/2014  23:21:00     -114.553      155.374      -19.868       51.405       71.453       40.006     2642.489     5105.470     1600.453        2.350        0.467      193.037       46.695        0.059      344.286       20.994      857.738
09/03/2014  23:22:00     -120.536      169.521      -29.732       54.991      112.300       37.904     3023.972    12611.191     1436.684        3.061        0.854      208.005       38.841        0.035      344.277       20.978      857.747
09/03/2014  23:23:00     -104.073      112.301      -19.453       46.052       50.467       28.080     2120.804     2546.922      788.466        1.464        0.273      153.110       21.477        0.020      344.247       20.930      857.762
09/03/2014  23:24:00     -120.909      111.561      -23.199       63.089       56.127       39.041     3980.176     3150.291     1524.213        1.813        0.433      164.514       42.824        0.068      344.258       20.948      857.787
09/03/2014  23:25:00      -99.210      118.359      -22.785       35.339       53.436       30.435     1248.810     2855.452      926.287        1.470        0.252      154.440       29.980        0.038      344.208       20.863      857.811
09/03/2014  23:26:00     -105.570      108.630      -18.613       46.033       41.117       27.127     2118.996     1690.637      735.898        1.392        0.227      151.477       16.842        0.012      344.201       20.852      857.817
09/03/2014  23:27:00     -145.040      147.651      -39.431       35.639       57.654       29.520     1270.149     3323.989      871.431        2.493        0.273      206.972       28.744        0.019      344.231       20.901      857.825
09/03/2014  23:28:00     -135.812      103.201      -17.988       68.720       64.876       31.750     4722.504     4208.957     1008.072        1.968        0.497      170.574       28.663        0.028      344.214       20.872      857.837
09/03/2014  23:29:00      -83.109       72.491      -16.036       31.720       47.327       21.365     1006.172     2239.804      456.456        0.806        0.185      110.282       21.492        0.038      344.130       20.732      857.848
09/03/2014  23:30:00      -83.335       81.259      -11.542       42.476       40.414       25.988     1804.190     1633.266      675.395        0.890        0.206      116.395       21.375        0.034      344.205       20.859      857.845
09/03/2014  23:31:00      -94.092       69.443      -18.698       36.773       39.185       27.984     1352.236     1535.435      783.101        0.885        0.184      116.943       20.447        0.031      344.180       20.815      857.853
09/03/2014  23:32:00      -93.542       70.564      -15.904       33.526       36.271       26.292     1123.995     1315.587      691.291        0.856        0.157      117.172       20.927        0.032      344.137       20.743      857.858
09/03/2014  23:33:00      -67.200       87.804      -11.997       45.159       51.968       22.232     2039.359     2700.693      494.245        0.880        0.262      110.568       20.470        0.034      344.084       20.651      857.860
09/03/2014  23:34:00      -96.255       69.510      -20.201       34.898       40.033       27.855     1217.839     1602.633      775.896        0.905        0.180      118.730       19.277        0.026      344.104       20.686      857.869
09/03/2014  23:35:00      -98.047       81.887      -16.532       58.304       32.308       23.176     3399.303     1043.810      537.147        1.079        0.249      127.744       17.994        0.020      344.094       20.667      857.870
09/03/2014  23:36:00      -99.848      102.790      -24.704       67.622       61.893       28.676     4572.706     3830.738      822.324        1.518        0.461      143.302       39.687        0.077      344.148       20.760      857.870
09/03/2014  23:37:00     -111.779      119.091      -23.171       41.415       60.135       27.442     1715.180     3616.247      753.088        1.665        0.304      163.331       17.132        0.011      344.139       20.745      857.878
09/03/2014  23:38:00     -121.596      103.969      -24.980       38.523       47.957       31.171     1484.033     2299.856      971.633        1.549        0.238      159.985       30.377        0.036      344.073       20.632      857.883
09/03/2014  23:39:00     -133.941      169.478      -36.402       56.961       73.468       35.584     3244.588     5397.496     1266.255        2.895        0.495      216.016       30.376        0.020      344.091       20.660      857.887
09/03/2014  23:40:00     -160.456      173.063      -37.865       41.802       53.932       33.353     1747.386     2908.701     1112.415        3.145        0.288      236.001       29.397        0.016      344.118       20.707      857.889
09/03/2014  23:41:00     -147.485      163.268      -37.025       52.660       48.787       31.672     2773.030     2380.144     1003.123        2.797        0.308      220.019       28.624        0.017      344.114       20.700      857.898
09/03/2014  23:42:00     -124.893      165.416      -33.686       48.842       65.068       33.696     2385.538     4233.821     1135.443        2.592        0.388      207.270       30.172        0.021      344.055       20.600      857.905
09/03/2014  23:43:00     -126.605      146.732      -32.348       45.931       45.500       26.696     2109.637     2070.205      712.681        2.175        0.245      193.802       25.801        0.018      344.022       20.543      857.908
09/03/2014  23:44:00     -156.496      168.834      -42.575       50.485       65.033       36.721     2548.766     4229.277     1348.452        3.147        0.406      230.208       34.673        0.023      344.094       20.665      857.916
09/03/2014  23:45:00     -101.549       85.467      -16.413       57.805       52.061       37.470     3341.459     2710.305     1404.002        1.267        0.373      132.728       32.836        0.061      344.014       20.530      857.925
09/03/2014  23:46:00     -119.809       99.608      -12.985       62.439       52.958       36.151     3898.592     2804.547     1306.884        1.623        0.401      155.807       35.769        0.053      343.997       20.503      857.924
09/03/2014  23:47:00     -131.218      116.004       -4.660       75.679       80.396       49.639     5727.255     6463.560     2463.985        2.267        0.733      175.143       56.627        0.105      343.972       20.457      857.907
09/03/2014  23:48:00     -144.722      158.203      -31.297       61.088       89.515       42.743     3731.709     8012.867     1827.003        3.026        0.679      214.412       44.037        0.042      343.992       20.491      857.909
09/03/2014  23:49:00     -113.908       95.970      -14.317       55.221       51.403       33.162     3049.316     2642.233     1099.709        1.459        0.340      148.947       22.780        0.023      343.935       20.397      857.900
09/03/2014  23:50:00     -117.618       80.841      -20.119       58.243       43.539       36.934     3392.241     1895.661     1364.152        1.371        0.333      142.721       32.358        0.051      343.971       20.458      857.881
09/03/2014  23:51:00     -125.838      127.323      -22.269       51.395       67.126       35.153     2641.441     4505.873     1235.756        2.046        0.419      179.015       37.760        0.044      343.920       20.370      857.876
09/03/2014  23:52:00     -237.142      137.528      -48.618       75.397       67.979       40.091     5684.761     4621.127     1607.258        4.471        0.596      274.135       36.805        0.018      344.026       20.550      857.876
09/03/2014  23:53:00     -202.813      121.747      -31.885       79.149       70.860       44.669     6264.543     5021.196     1995.280        3.512        0.664      236.549       40.733        0.030      343.995       20.497      857.864
09/03/2014  23:54:00     -127.841      121.562      -19.361       41.854       52.589       33.059     1751.736     2765.554     1092.912        1.855        0.281      176.411       21.971        0.016      343.860       20.268      857.858
09/03/2014  23:55:00      -95.792      109.379       -8.056       52.430       58.433       37.048     2748.953     3414.447     1372.566        1.437        0.377      145.396       28.534        0.039      343.876       20.295      857.866
09/03/2014  23:56:00     -152.052       71.756      -23.190       50.804       77.472       36.466     2581.028     6001.922     1329.790        1.936        0.496      168.133       39.935        0.056      343.982       20.477      857.860
09/03/2014  23:57:00     -122.871       14.872       -8.884       40.043       51.003       34.698     1603.435     2601.299     1203.930        1.040        0.270      123.768       22.788        0.034      343.910       20.355      857.850
09/03/2014  23:58:00     -105.477       57.662       -4.741       56.485       54.709       30.268     3190.587     2993.030      916.172        1.078        0.355      120.209       24.650        0.042      343.863       20.274      857.863
09/03/2014  23:59:00     -117.097       71.501      -20.253       58.344       38.696       31.412     3404.020     1497.415      986.717        1.256        0.294      137.201       32.267        0.055      343.887       20.315      857.863
